GFSSE_925_temp_000.txt.gz
Temp
21 21 21 21 22 22 22 22 22 22 22 23 23 23 23 23 23 23 23 23 22 22 22 22 22 21 21 21 21 20 20 20 20 20 20 20 20 20 20 21 22 23 20
21 22 21 21 22 22 22 22 22 23 23 23 23 23 23 23 22 22 22 22 22 22 22 22 21 21 21 21 21 21 21 21 21 21 20 22 21 20 20 21 21 21 20
23 22 22 22 22 22 22 22 22 23 23 23 23 23 23 22 22 22 21 21 22 22 21 21 21 21 21 21 21 21 21 21 21 22 22 24 23 21 21 21 21 21 20
25 25 23 21 22 22 22 22 22 22 22 23 23 23 23 22 22 22 21 22 21 21 21 21 22 21 21 21 22 22 21 21 21 22 24 24 25 21 20 20 20 20 20
24 25 22 22 22 22 22 22 22 22 22 22 22 23 22 22 22 22 21 21 21 21 21 21 22 22 21 21 21 22 22 22 22 22 23 24 25 21 20 20 20 20 20
24 24 22 22 22 22 22 22 22 22 22 22 22 22 22 22 22 22 22 22 22 22 22 22 22 21 21 21 21 22 21 22 22 23 23 23 24 22 20 20 20 20 20
25 25 23 22 22 22 22 22 21 21 22 22 22 22 22 22 22 22 22 21 21 21 22 22 21 21 21 21 22 22 22 22 23 23 23 24 24 22 20 20 20 20 19
26 25 24 22 22 22 22 21 22 22 22 22 22 22 22 22 22 22 22 21 21 21 21 22 22 22 21 22 21 22 22 22 24 23 23 23 22 22 21 20 20 20 20
26 25 25 24 22 21 22 21 21 22 22 22 22 23 23 23 23 22 22 22 21 22 22 22 22 22 22 22 22 22 22 23 23 23 24 22 22 22 21 20 20 20 20
26 25 24 24 23 24 23 22 21 21 22 22 23 23 23 23 23 23 24 22 23 23 22 22 22 22 22 23 23 23 23 23 25 25 24 23 22 22 20 20 20 20 20
26 25 25 24 24 23 24 23 22 22 22 22 23 23 24 25 25 24 23 23 23 23 22 22 23 23 23 23 23 23 24 25 24 25 25 22 22 21 20 20 20 20 20
26 26 26 26 24 24 25 24 24 24 24 24 24 24 24 24 24 24 24 23 23 23 23 23 23 23 24 25 25 24 25 24 24 24 25 23 22 22 21 20 21 20 20
27 26 25 25 24 25 25 24 25 25 25 24 24 24 24 24 24 25 25 25 24 24 25 24 24 25 23 23 24 24 24 24 25 25 24 22 22 22 22 21 20 20 20
27 26 26 25 24 25 24 24 25 25 25 25 25 23 24 24 24 24 25 24 24 25 24 24 24 23 23 23 23 23 24 23 24 24 24 22 22 22 22 21 21 20 21
27 26 26 25 24 24 23 25 25 25 25 25 25 24 24 25 24 24 23 23 23 24 24 24 23 23 23 23 23 23 23 23 22 23 24 22 22 22 22 21 21 20 20
27 26 26 25 24 24 24 24 24 24 25 25 25 25 23 24 23 24 24 24 24 24 24 23 23 22 23 23 23 23 23 23 23 22 23 23 22 22 22 22 21 21 20
27 26 26 25 25 24 24 23 24 25 25 25 25 24 24 23 23 23 24 23 24 23 22 23 23 23 24 24 24 24 23 23 23 22 23 23 24 22 22 22 22 21 21
27 26 26 26 26 25 24 24 24 25 25 25 26 25 23 23 23 23 24 24 23 23 24 24 24 24 24 24 24 24 23 23 23 23 23 23 24 24 23 22 22 22 21
27 26 25 25 25 25 24 24 24 25 24 24 24 23 24 23 23 23 24 24 23 22 21 23 24 23 24 24 24 24 24 23 23 24 23 23 23 23 24 23 22 22 22
27 26 25 25 25 24 24 23 24 24 24 24 25 23 24 23 23 23 23 23 22 22 23 23 22 23 22 23 23 24 23 23 23 24 23 24 23 23 23 22 23 23 22
27 26 26 25 25 24 24 25 25 26 26 25 25 23 23 24 23 23 23 23 22 23 23 22 22 23 23 23 23 25 24 23 23 23 23 23 23 23 22 22 23 23 22
28 27 26 25 25 24 25 26 26 26 27 26 26 24 24 24 23 23 23 23 22 24 22 22 21 23 23 23 24 24 27 25 24 24 23 23 22 23 22 22 21 20 21
29 27 27 26 25 25 25 25 25 24 24 25 25 24 24 23 23 22 22 23 22 22 24 22 22 22 24 22 21 23 26 27 25 24 23 23 22 22 22 22 21 20 20
29 28 27 26 25 25 25 26 25 26 27 28 27 27 26 24 23 23 22 22 22 23 22 22 21 21 21 24 23 22 21 22 26 26 25 23 23 23 21 22 22 21 20
30 29 28 26 26 25 25 25 26 25 27 27 27 25 24 24 23 23 22 22 22 22 21 21 21 20 22 22 23 23 22 23 22 24 25 25 24 23 22 22 21 22 21
30 29 28 27 26 26 25 25 25 26 26 27 26 26 25 25 24 23 22 22 22 22 21 21 20 20 21 21 22 22 23 24 24 24 24 24 24 23 22 22 21 21 21

GFSSE_925_temp_003.txt.gz
Temp
22 21 21 21 22 22 22 21 22 22 22 22 23 23 23 22 23 22 22 22 22 22 21 21 21 21 21 21 20 20 20 20 20 20 20 20 20 20 21 21 22 23 20
23 22 22 22 22 22 22 22 22 23 22 22 23 23 22 22 22 22 22 21 21 21 21 21 21 21 21 21 21 20 20 20 20 21 21 20 20 20 21 21 22 22 20
25 23 22 22 22 22 23 22 22 23 22 22 22 22 22 21 22 22 21 21 21 21 21 21 21 21 21 21 21 21 21 21 22 23 22 22 22 21 21 20 20 21 20
26 25 24 22 22 22 22 22 22 22 22 22 23 22 23 21 21 21 21 21 21 21 21 21 21 21 21 21 21 21 21 21 22 23 23 23 24 21 21 21 21 20 20
26 25 22 22 22 22 21 22 22 23 22 23 22 22 22 22 21 21 21 21 21 21 21 21 21 21 21 21 22 21 22 22 22 23 25 24 23 21 21 20 21 20 20
25 25 22 22 22 21 21 22 22 22 22 22 22 22 22 21 21 22 21 21 21 21 21 22 21 21 21 21 21 22 22 22 22 23 25 24 23 22 20 20 21 20 20
26 25 23 22 22 21 22 21 21 22 22 22 23 22 22 22 22 22 21 22 21 22 22 22 21 21 21 21 21 21 22 23 23 24 24 23 22 23 21 20 20 20 21
26 26 23 22 21 21 21 21 22 23 23 23 22 22 22 22 22 22 22 22 22 22 22 21 22 22 21 21 21 22 23 23 24 24 24 24 23 23 20 20 20 20 20
27 26 25 24 22 21 21 22 22 22 22 22 22 22 23 23 22 23 23 23 22 22 22 21 22 22 22 22 22 22 23 23 23 25 23 23 23 22 20 20 20 20 20
27 26 26 25 25 24 23 22 21 22 22 22 21 23 24 24 24 24 24 23 23 22 22 22 23 23 23 23 23 23 24 24 24 25 24 22 22 21 20 20 20 20 20
27 26 26 26 26 25 25 22 22 22 22 22 23 23 24 25 25 25 24 24 23 22 23 23 23 24 24 23 24 24 25 26 25 26 24 23 22 22 21 20 20 20 20
27 28 28 26 25 25 26 23 24 24 24 25 25 24 25 26 25 25 25 24 24 24 23 24 24 25 25 25 26 26 26 25 26 26 24 23 22 22 22 21 21 20 20
29 29 26 26 25 25 25 26 26 26 26 26 25 25 26 26 26 25 25 25 25 25 23 24 25 25 25 25 25 26 25 25 26 26 23 23 23 22 22 22 21 21 20
29 29 27 26 25 25 26 26 27 27 27 27 26 25 24 25 26 26 25 26 25 25 25 25 26 24 24 24 25 25 25 26 26 25 24 23 22 22 22 22 21 20 20
30 29 28 27 26 26 25 27 27 27 27 28 27 26 25 26 25 25 25 25 25 26 25 25 25 25 24 24 25 24 24 24 25 25 25 23 23 22 22 21 21 21 20
30 29 28 27 25 24 24 25 26 27 27 27 27 27 24 25 24 25 25 25 25 25 25 25 24 24 24 25 25 24 24 24 24 23 25 24 23 23 22 22 21 22 21
29 29 28 27 26 25 25 25 25 26 27 27 27 26 25 25 25 24 25 25 26 24 23 24 23 24 25 26 25 25 25 24 24 23 24 25 24 23 23 22 22 22 21
29 28 28 28 27 26 24 24 25 26 26 27 27 27 25 25 24 24 25 25 26 25 25 24 24 24 25 26 25 25 25 24 24 24 24 24 25 25 23 23 22 22 22
29 28 27 27 28 27 25 26 26 26 26 26 26 26 25 25 24 24 25 26 24 24 24 24 24 25 25 25 25 26 25 25 24 25 24 24 23 24 25 23 23 22 22
29 28 27 27 27 26 26 25 26 26 25 26 26 26 26 24 24 24 25 24 24 24 24 23 23 24 23 24 25 25 25 24 24 24 24 25 23 24 24 24 23 23 22
30 28 27 27 26 25 25 25 25 25 27 27 27 26 25 24 24 23 24 24 23 24 23 24 23 24 25 25 24 26 25 24 24 24 25 24 24 24 23 23 23 23 21
30 29 28 27 26 25 25 24 27 27 28 28 28 27 26 25 25 24 24 26 25 25 24 23 22 23 25 24 24 25 27 25 24 25 24 24 23 24 23 23 22 21 21
30 29 28 27 26 26 26 26 26 26 27 27 28 26 25 25 25 24 24 23 23 23 25 23 23 22 24 24 23 24 27 24 25 24 24 24 23 23 23 22 22 21 21
31 29 29 27 27 26 25 27 27 27 27 28 28 29 27 25 25 24 23 24 23 24 23 23 23 22 22 25 25 23 23 23 26 25 25 24 24 23 22 22 23 22 21
32 30 29 28 27 27 26 26 27 26 29 29 29 28 27 25 25 25 25 24 23 23 23 22 22 21 23 23 25 25 24 24 23 25 26 25 25 24 23 22 22 22 22
32 31 30 28 27 27 26 25 26 27 28 29 29 28 27 26 25 25 25 23 23 23 23 22 21 21 21 22 23 23 24 25 26 25 25 25 25 24 24 23 22 22 22

GFSSE_925_temp_006.txt.gz
Temp
20 20 21 21 21 21 22 22 22 22 22 22 23 23 23 22 22 23 23 22 22 21 21 21 21 21 21 21 20 21 21 22 22 21 20 20 20 20 20 21 21 21 20
22 21 21 21 22 22 22 22 22 22 22 23 23 23 22 22 22 22 22 22 22 21 21 21 21 21 21 21 21 20 21 23 21 20 21 21 20 21 21 21 22 21 20
23 21 21 22 22 22 22 22 22 22 22 23 22 22 22 22 22 22 22 22 21 21 21 21 21 21 21 21 21 21 22 23 22 21 21 22 21 21 20 21 22 20 20
24 23 22 22 22 22 22 22 22 22 22 22 22 22 22 22 22 22 22 22 21 21 21 21 21 21 21 21 21 21 22 23 23 23 22 23 23 21 20 21 20 21 21
25 24 22 22 22 22 22 23 22 22 22 22 22 22 22 22 22 22 22 22 21 21 21 21 21 21 21 21 21 21 22 23 23 23 23 23 22 21 21 21 20 20 20
26 24 22 22 22 22 22 22 22 22 22 22 22 22 22 22 22 21 21 21 21 21 21 21 21 21 21 21 21 21 22 22 22 23 23 23 22 22 21 21 20 20 20
25 23 22 22 22 22 22 22 22 22 22 22 22 22 22 22 22 22 22 22 22 22 22 21 21 21 21 21 22 22 23 23 23 24 23 23 23 22 20 20 20 20 20
26 24 22 22 22 22 22 22 22 22 22 22 22 22 22 22 22 22 22 22 22 22 22 22 22 22 22 22 23 24 23 23 23 24 24 23 23 22 20 20 20 20 20
26 24 22 22 22 22 22 22 22 22 22 22 23 23 23 23 22 22 22 23 23 23 22 23 23 23 23 23 24 24 24 24 24 23 22 23 23 21 20 20 20 20 20
27 26 24 23 22 22 22 22 22 23 22 22 23 24 23 23 22 23 23 24 24 23 23 24 24 24 23 24 25 25 24 24 25 21 23 22 23 21 20 20 20 20 20
27 26 26 25 24 23 23 22 22 22 22 22 23 24 24 24 24 24 24 24 24 24 24 24 25 24 24 24 25 26 25 25 25 24 23 23 22 22 20 20 20 20 20
28 26 26 26 25 25 25 23 23 23 23 23 24 25 25 24 25 25 24 24 25 24 23 24 25 24 24 24 25 26 26 26 26 25 24 23 23 22 21 21 20 21 20
28 28 27 26 26 26 24 25 24 25 25 25 25 25 25 26 26 25 23 22 23 23 23 23 23 24 25 25 25 25 25 26 26 25 23 23 23 23 22 21 20 21 20
30 27 26 26 26 26 26 26 26 26 26 26 26 26 25 25 26 23 22 25 24 25 23 24 25 25 24 24 24 24 24 25 25 25 24 23 23 23 22 21 21 20 20
30 28 26 26 26 25 26 27 27 27 28 27 26 26 26 26 26 25 25 25 25 25 25 25 25 25 25 25 25 25 24 24 24 24 24 24 24 23 22 22 21 22 21
31 30 28 26 26 25 26 26 27 28 27 28 28 26 26 25 25 25 25 25 25 25 25 25 24 24 24 25 25 25 25 25 24 24 24 24 24 24 23 23 22 21 21
31 30 29 27 26 26 25 25 25 27 27 27 27 26 26 26 25 24 24 25 25 25 25 24 24 24 24 25 26 26 25 25 24 23 23 24 24 23 24 23 22 22 21
31 30 29 29 26 25 25 25 25 26 27 27 27 27 26 25 25 24 25 25 24 25 25 24 24 24 24 25 25 26 25 25 25 24 24 24 24 24 24 23 23 23 22
31 29 29 28 28 26 25 25 24 25 26 26 26 26 25 25 24 25 25 24 24 24 24 24 23 24 24 25 25 26 25 25 25 24 24 24 24 25 24 23 23 23 22
30 29 28 28 28 27 25 25 25 26 26 26 25 25 25 25 25 24 25 25 25 24 24 24 23 23 24 24 25 25 25 24 24 24 25 24 24 24 23 22 22 22 22
30 29 28 27 28 27 26 25 25 25 26 26 27 27 25 25 25 24 24 24 24 24 24 24 23 23 24 25 24 24 24 24 25 25 25 24 24 24 23 23 22 21 21
31 29 28 27 27 27 26 26 25 25 26 26 27 27 26 25 25 24 24 24 24 25 24 23 22 23 24 25 24 24 22 24 24 24 24 24 24 23 23 22 22 21 20
31 29 28 27 26 26 26 26 26 25 26 27 27 27 26 26 25 24 24 24 24 24 24 23 23 23 23 24 24 23 22 22 23 24 24 24 23 23 23 22 22 21 21
32 30 28 27 26 25 26 25 25 26 27 28 28 27 27 26 25 25 24 24 23 24 24 23 23 22 23 23 23 24 23 23 22 22 23 23 23 22 22 23 23 22 22
32 30 29 27 26 26 25 26 26 27 27 28 29 28 27 25 25 25 24 24 23 23 24 23 22 22 22 23 23 24 24 23 24 23 21 23 23 23 23 22 22 22 22
33 31 29 28 26 26 25 26 26 26 27 28 29 27 26 25 25 25 25 24 23 23 23 22 22 22 22 22 23 23 24 24 23 24 23 24 24 24 24 23 23 22 22

GFSSE_925_temp_009.txt.gz
Temp
20 20 21 22 22 22 22 22 22 22 23 23 23 23 23 23 23 22 22 22 22 21 21 21 21 21 20 21 22 22 22 22 22 22 21 20 20 20 21 20 20 20 19
21 21 21 21 21 22 22 22 22 22 22 23 22 22 22 23 22 22 22 21 22 21 21 21 21 21 21 20 21 22 22 21 21 22 21 20 20 21 21 21 20 20 19
21 21 21 21 21 21 22 22 22 22 22 22 22 22 22 23 22 22 21 21 21 21 21 21 21 21 21 20 21 22 22 21 21 21 21 21 21 20 20 20 20 20 20
22 21 21 22 22 22 21 22 22 22 22 22 22 22 22 22 22 22 22 21 21 21 21 21 21 21 21 21 21 22 22 22 21 21 22 21 21 20 20 20 20 20 19
22 22 22 22 22 22 22 22 22 22 22 22 22 22 22 22 22 22 22 22 22 21 21 21 21 21 21 21 21 22 23 23 22 22 22 22 21 20 20 20 20 20 20
23 22 22 22 22 22 22 22 22 22 22 22 22 22 22 22 22 23 22 22 21 21 21 21 21 21 21 22 22 22 23 22 23 22 22 22 22 21 20 20 20 20 20
23 22 22 22 22 22 22 22 23 22 22 22 22 22 22 22 22 23 22 22 22 21 21 22 22 22 23 23 23 23 23 23 22 20 21 22 22 21 20 20 20 19 19
23 22 22 22 22 22 22 22 22 22 22 22 22 22 22 23 23 23 22 22 22 22 22 23 23 23 24 24 24 24 23 22 21 21 20 22 22 21 20 20 20 20 19
23 22 22 21 21 21 22 22 22 22 22 22 22 22 23 24 24 23 23 23 23 23 23 23 23 24 24 24 25 24 24 22 23 24 22 21 22 21 20 20 20 20 20
23 22 22 22 21 22 22 22 22 22 22 22 22 23 24 24 24 24 23 23 24 24 24 23 23 23 24 24 24 24 24 23 24 25 23 22 22 21 20 20 20 20 19
24 23 22 22 22 22 22 22 22 22 22 22 23 24 24 24 23 23 23 22 23 24 25 24 23 24 24 24 24 24 25 24 24 24 23 22 22 22 20 20 20 20 20
24 23 23 23 23 22 22 22 23 23 23 24 24 25 24 25 23 23 23 23 23 24 24 24 24 24 24 25 24 25 25 25 24 23 23 23 23 22 22 21 21 21 20
26 25 24 24 24 23 23 24 24 24 24 24 25 25 25 24 23 24 24 24 23 24 24 24 24 24 24 25 25 25 25 25 24 23 23 23 22 22 22 21 21 22 21
26 26 25 25 24 24 24 25 25 24 24 25 25 25 25 24 24 25 26 25 24 24 25 24 24 24 25 25 25 24 24 25 24 23 23 23 23 23 21 21 22 22 20
27 26 26 26 25 25 25 26 25 25 25 25 25 26 26 25 24 25 24 24 23 24 24 24 24 25 24 25 24 25 25 24 24 24 23 23 23 23 22 22 22 22 20
26 26 26 26 26 25 26 25 25 26 26 26 26 26 25 25 25 25 24 25 25 25 25 25 25 25 25 25 24 25 25 25 24 24 23 23 23 23 22 22 22 21 21
27 26 26 26 26 26 26 25 26 26 27 27 26 26 25 26 25 25 25 25 24 25 25 24 24 24 25 24 25 25 25 25 24 24 23 24 23 23 23 22 22 22 21
28 26 26 25 26 26 26 25 26 26 26 27 26 26 26 25 25 24 25 24 25 25 24 24 24 24 24 24 25 25 25 25 25 24 24 24 24 24 23 23 22 22 22
30 27 26 26 26 26 26 26 25 26 26 26 26 26 25 25 25 25 24 24 24 24 24 24 23 24 24 24 25 25 25 25 25 25 24 24 24 24 24 23 22 22 21
30 29 27 27 26 26 26 25 25 25 26 26 26 26 26 26 25 25 24 24 24 24 24 24 23 23 24 24 24 25 24 24 24 24 24 24 23 23 22 22 22 21 21
30 29 28 28 26 25 25 25 25 24 25 26 27 26 26 25 25 24 24 24 24 24 24 23 23 23 24 24 24 24 25 24 24 24 24 24 24 23 22 22 21 21 21
29 29 28 28 28 25 25 25 25 25 25 26 27 27 26 25 25 25 24 24 24 24 23 23 23 23 23 24 24 23 19 23 24 24 24 24 23 23 22 22 22 21 20
28 28 28 28 28 26 26 25 25 25 25 25 25 26 26 25 25 25 24 24 24 24 23 23 23 23 23 23 24 23 19 19 22 23 24 23 23 23 23 22 22 22 21
28 28 27 27 27 27 26 25 25 25 25 25 26 26 26 25 25 24 24 24 23 24 23 23 22 23 22 23 23 23 24 23 19 19 23 23 23 23 23 22 22 22 22
29 28 27 27 27 26 26 26 25 25 25 26 26 26 26 25 25 25 24 23 23 24 23 23 23 23 22 22 22 23 23 23 23 20 18 21 22 23 23 23 23 22 22
29 28 26 26 26 25 26 26 25 25 25 26 27 27 26 25 25 25 25 24 23 24 24 23 22 23 22 22 22 23 23 23 22 21 18 20 21 22 22 22 23 22 22

GFSSE_925_temp_012.txt.gz
Temp
20 20 21 21 22 22 22 22 22 23 23 23 23 23 23 22 22 22 22 21 21 21 21 20 21 20 21 22 21 21 21 21 21 20 20 20 20 20 20 20 20 19 19
21 21 21 22 22 21 22 21 23 23 23 23 23 23 22 22 22 22 22 21 21 21 21 21 20 20 21 21 21 21 21 22 21 20 20 20 21 20 20 20 20 19 19
21 21 21 21 21 21 22 22 22 22 23 22 23 22 22 22 21 21 21 21 21 21 21 21 21 21 21 21 21 21 21 22 21 21 21 21 21 21 20 20 19 19 20
21 21 21 21 21 21 22 22 22 21 22 22 22 22 22 22 22 21 21 21 21 21 21 21 21 21 21 22 21 22 22 22 21 21 21 21 21 20 20 20 20 19 19
21 21 21 21 21 21 22 21 21 21 22 22 22 22 22 22 21 21 21 21 21 21 21 21 21 21 21 22 22 22 22 22 21 22 21 21 20 20 20 20 20 19 20
21 21 21 21 21 21 21 21 21 22 22 22 22 22 22 21 21 21 21 21 21 21 21 21 22 22 22 22 22 23 22 22 20 21 21 21 21 20 20 20 20 20 20
22 22 21 22 22 21 21 21 22 23 22 22 22 22 22 21 22 21 22 22 22 22 22 22 23 23 23 22 23 22 22 21 21 21 21 21 21 20 20 20 20 19 19
22 22 22 22 22 22 21 22 22 23 22 22 22 22 22 22 23 23 23 22 22 22 22 23 23 23 23 23 22 22 22 22 22 21 21 21 21 20 20 20 20 20 19
22 22 21 21 21 21 22 22 22 22 22 22 23 23 23 23 23 23 23 23 23 22 23 23 24 24 24 23 23 22 22 22 22 22 21 21 21 20 20 20 20 20 19
22 22 21 21 21 21 22 21 21 21 22 23 23 23 23 23 23 22 23 23 23 23 23 24 24 24 24 23 23 23 23 23 23 23 22 22 21 20 20 20 20 20 20
22 22 21 21 21 22 22 21 21 21 22 23 23 24 24 23 23 23 22 23 23 23 23 24 24 24 24 23 24 23 23 24 24 23 22 22 21 21 20 20 20 20 21
21 22 22 21 22 22 22 22 22 22 23 23 24 24 23 23 23 23 23 23 24 24 24 24 24 24 24 24 24 24 24 24 23 23 23 22 22 22 21 20 20 20 20
22 22 22 22 22 22 22 22 23 23 24 24 25 24 24 23 23 23 24 24 25 24 24 24 24 25 24 24 25 25 24 24 24 23 23 22 22 22 22 20 20 20 20
22 23 23 23 23 23 23 23 24 24 24 24 25 24 24 24 24 24 24 24 24 24 24 24 24 24 24 25 25 25 24 23 23 23 23 23 22 22 22 21 21 20 20
23 23 24 23 23 23 23 24 24 25 25 25 25 24 24 24 25 24 25 25 24 24 24 24 25 24 24 24 24 24 24 24 24 23 23 23 22 22 21 21 21 21 20
24 24 24 23 24 24 24 24 25 25 25 25 25 25 24 25 25 25 25 24 24 24 24 24 24 24 24 25 25 25 25 25 24 23 23 23 23 22 22 21 22 22 21
25 25 25 24 24 24 25 25 25 25 25 25 25 25 25 25 25 25 24 24 24 24 24 24 24 24 24 24 24 24 25 24 24 23 23 23 23 22 22 22 21 21 21
26 25 25 24 25 25 25 25 24 25 25 26 26 25 25 25 25 24 24 24 24 24 24 24 24 24 24 24 24 25 25 24 24 24 24 24 23 22 22 22 22 21 21
26 25 25 25 25 25 25 25 25 26 25 25 26 26 25 25 25 25 25 24 24 24 24 24 23 23 24 24 24 24 24 24 24 24 23 24 24 23 23 22 22 21 21
26 25 25 25 26 26 26 25 26 26 26 25 25 25 25 25 25 25 24 24 24 24 23 23 23 23 23 23 24 24 24 24 24 24 23 24 24 24 22 22 22 21 21
26 25 24 24 25 25 25 24 25 25 26 26 25 25 25 25 25 25 25 24 23 23 23 23 23 23 23 23 24 24 23 23 24 24 23 23 23 23 22 22 22 21 21
25 25 24 25 25 25 25 25 25 26 25 26 25 25 26 26 25 25 24 24 23 23 23 23 23 23 23 23 23 21 19 22 23 23 23 23 22 22 22 22 22 21 21
26 25 25 25 25 25 25 25 25 25 25 25 25 25 25 25 25 25 24 24 23 23 23 23 23 23 23 22 23 22 18 18 20 22 23 23 23 22 22 22 22 21 21
27 26 26 25 26 25 25 25 24 24 23 24 25 25 25 25 25 25 24 24 24 24 23 23 23 23 23 23 22 23 23 22 18 19 22 22 23 23 22 22 21 21 21
28 26 26 26 26 26 25 25 24 25 25 25 25 25 25 26 25 25 24 24 24 23 24 23 23 22 22 22 22 22 22 22 22 19 17 20 22 22 23 22 22 22 22
29 27 26 26 25 26 25 25 25 24 25 25 25 25 25 25 25 25 24 24 23 23 23 23 23 23 22 22 22 22 23 22 21 20 16 18 20 22 23 22 22 22 22

GFSSE_925_temp_015.txt.gz
Temp
20 20 21 22 22 22 22 22 21 22 23 23 23 23 23 23 22 22 21 21 21 20 20 20 21 22 21 21 20 21 21 20 20 20 20 20 20 20 20 20 19 20 19
20 21 21 22 21 21 21 21 22 23 23 23 23 22 22 22 22 21 21 21 21 21 20 20 21 22 21 21 21 21 21 21 21 20 20 20 21 21 20 19 19 19 19
21 21 21 21 21 21 22 21 22 22 23 23 22 22 21 21 21 21 21 21 21 21 21 20 20 21 21 20 21 21 21 21 21 20 21 21 21 20 20 19 19 20 19
21 21 21 21 21 21 21 21 22 22 23 22 22 21 21 21 21 21 21 21 21 20 20 21 21 21 21 21 22 22 21 21 21 21 21 20 20 20 20 20 19 20 19
21 21 21 21 21 21 21 21 22 22 22 22 21 21 21 21 21 21 21 21 21 21 21 21 21 21 22 22 22 22 22 22 22 21 21 21 21 20 20 19 20 20 19
21 21 21 21 21 21 21 21 21 22 22 22 21 22 22 22 21 21 21 21 21 21 21 21 21 21 22 22 22 22 23 23 22 23 21 21 21 20 20 20 20 20 19
21 21 21 21 21 21 21 21 22 21 22 22 22 22 22 21 21 21 21 21 22 22 22 22 22 22 22 21 22 22 23 23 23 21 21 21 21 20 20 20 20 19 19
21 21 21 21 21 21 21 21 21 22 23 22 22 22 22 21 22 22 22 22 22 22 22 22 22 22 22 22 22 22 23 23 23 22 21 21 21 20 20 20 19 19 19
22 21 21 21 21 21 21 21 21 22 23 22 22 22 22 22 22 22 22 22 22 23 23 23 23 23 22 22 22 22 22 23 22 22 21 21 21 20 20 20 20 19 19
21 22 21 21 21 21 21 21 21 22 23 22 23 23 22 22 22 22 22 22 22 23 24 24 23 23 23 22 22 22 23 23 23 22 21 21 21 20 20 20 20 19 19
21 22 21 21 21 21 21 21 21 22 22 22 23 23 23 22 23 22 23 22 22 23 24 24 24 23 23 23 23 23 23 23 23 22 22 21 21 20 20 20 20 19 19
20 21 21 21 21 21 22 22 21 22 22 22 23 23 23 23 23 23 23 23 23 23 24 24 24 24 24 24 24 24 25 24 23 22 22 22 21 21 20 20 20 19 19
21 21 21 21 21 21 22 22 22 22 22 23 23 24 23 23 23 23 23 23 24 24 24 24 24 24 24 24 24 24 24 24 23 22 22 22 22 21 21 20 20 19 20
20 21 21 21 21 22 22 22 22 22 23 23 24 24 23 23 23 24 24 24 24 24 24 24 25 25 24 25 23 23 24 23 23 23 23 22 22 21 21 21 20 19 20
21 21 22 22 22 22 22 23 23 23 23 24 24 24 23 23 23 24 24 24 24 24 24 24 24 24 24 24 24 24 24 24 23 23 22 22 22 22 20 21 20 20 20
22 22 22 22 23 23 23 24 24 24 24 24 24 24 23 23 24 24 24 24 24 24 24 24 23 23 24 24 24 24 24 24 23 23 23 22 22 22 21 21 20 21 20
22 23 22 23 23 23 24 24 24 24 24 24 24 24 24 24 24 24 24 24 24 24 24 23 23 23 24 24 24 24 24 24 24 23 23 23 22 22 22 21 20 20 21
23 23 24 23 23 23 23 24 24 24 24 24 25 24 24 24 24 24 24 24 24 24 23 23 23 23 23 24 24 24 24 24 24 24 23 23 23 22 22 21 21 20 21
24 23 23 23 23 24 24 24 25 25 24 24 25 25 24 24 24 24 24 24 24 24 23 23 23 23 23 23 23 24 24 24 24 23 24 24 23 23 22 22 21 21 21
25 24 24 23 24 24 24 24 24 24 24 25 25 25 25 24 24 24 24 24 24 24 24 23 23 23 23 23 23 23 23 23 24 23 23 23 24 24 23 22 22 21 21
25 24 24 23 23 23 23 23 23 24 24 24 25 25 25 25 24 24 24 24 24 24 23 23 23 23 23 23 23 22 23 23 23 23 23 23 23 23 22 22 22 21 21
25 24 24 24 24 24 23 24 23 24 25 25 25 25 25 25 25 25 24 24 24 23 23 23 23 23 23 23 22 20 18 21 22 22 23 23 23 22 22 22 21 21 21
25 24 24 24 24 24 23 24 24 24 24 25 25 25 24 25 24 24 24 24 24 23 23 23 22 23 23 22 22 21 17 18 19 21 21 22 22 22 21 22 21 21 21
25 25 24 24 24 24 24 23 23 24 23 24 25 25 25 24 24 25 25 24 24 23 23 23 23 23 22 22 22 22 21 21 17 18 21 21 21 22 22 22 22 21 21
26 25 24 24 24 24 24 23 23 23 24 25 25 25 25 25 25 25 24 24 24 23 23 23 23 22 22 23 22 22 21 21 20 18 17 20 21 22 22 22 22 21 21
27 25 24 23 23 23 24 23 24 23 24 24 25 25 25 25 25 25 24 24 24 23 23 23 23 22 22 22 22 22 22 21 20 19 16 17 19 22 22 22 22 22 22

GFSSE_925_temp_021.txt.gz
Temp
19 20 20 20 21 21 21 21 21 21 22 22 22 23 21 21 20 21 21 21 22 21 21 20 20 20 20 20 20 20 20 20 20 20 20 20 20 20 19 20 21 22 20
20 20 21 21 20 21 21 21 21 22 22 22 22 21 21 21 21 21 21 20 21 21 21 20 20 20 20 20 21 20 20 20 20 20 20 20 20 20 19 20 20 20 20
20 20 21 21 21 21 21 21 21 22 21 22 21 21 21 21 21 21 21 21 21 21 20 20 20 20 21 21 21 21 20 20 20 20 20 21 21 20 19 19 19 20 20
21 21 21 21 21 21 21 21 21 21 21 21 21 21 21 21 21 21 20 21 21 21 21 20 21 21 21 21 21 21 21 20 20 20 21 21 22 20 20 20 20 20 19
21 21 21 21 21 21 21 21 21 21 21 21 21 21 21 21 21 21 21 22 22 22 21 20 21 21 21 21 21 22 21 21 20 21 21 21 22 20 20 20 20 20 20
21 22 21 21 21 21 21 21 21 21 21 21 21 21 21 21 21 21 21 21 22 21 21 21 21 21 21 21 22 21 22 21 21 21 21 21 20 20 20 20 20 19 20
22 21 21 21 21 21 22 21 21 21 21 21 21 21 21 21 21 21 21 21 21 21 21 21 22 22 22 22 22 21 21 21 21 20 21 21 21 20 20 20 20 20 20
22 22 22 21 21 21 21 21 21 21 21 21 21 21 21 21 21 21 21 21 21 21 22 22 22 22 22 22 22 22 22 21 20 20 20 21 21 20 20 20 20 20 19
22 22 22 22 21 21 21 21 21 21 22 22 21 22 22 21 21 22 22 21 21 22 22 23 23 23 23 23 23 22 22 22 21 20 21 21 20 20 20 20 20 20 19
22 22 22 22 22 22 21 21 21 22 22 22 22 22 23 22 22 22 22 22 22 22 23 23 23 23 23 23 23 23 23 22 21 20 21 21 21 20 20 20 20 19 20
22 22 22 22 22 21 21 21 21 21 22 21 22 22 22 22 22 22 22 22 23 22 23 23 23 23 23 23 24 23 23 22 22 21 21 21 21 20 20 20 20 20 20
22 22 22 22 22 21 22 21 21 22 22 22 22 21 22 22 22 22 22 23 23 23 23 23 23 23 23 24 24 24 24 22 22 22 22 21 21 21 20 20 20 20 20
22 22 22 21 21 21 22 21 21 22 22 22 21 21 21 21 22 22 22 22 23 23 23 23 23 24 24 24 23 24 23 22 23 23 22 22 21 21 20 20 20 20 20
22 22 22 21 21 21 21 21 22 22 22 22 22 22 22 22 22 23 22 23 23 23 23 24 23 24 24 22 23 23 23 24 23 23 22 22 21 21 20 20 20 20 20
22 22 22 21 21 21 20 21 21 21 22 22 21 22 22 22 22 23 23 23 23 23 23 23 23 24 23 23 23 23 23 23 22 23 22 22 21 21 20 20 20 20 20
23 22 22 21 21 21 21 20 21 21 21 21 22 22 23 22 23 23 23 23 23 23 23 23 23 23 23 23 23 23 23 23 23 22 22 22 22 21 21 20 20 20 20
23 22 22 21 21 20 20 20 21 21 21 22 22 23 23 23 23 23 23 23 23 23 23 23 23 23 23 22 23 23 23 24 23 22 22 22 22 22 21 21 21 20 20
23 22 22 22 21 21 21 21 21 21 21 22 22 22 23 23 23 23 23 23 23 23 23 23 23 23 22 23 22 23 23 23 23 22 22 22 22 23 22 21 21 21 21
23 22 22 21 22 21 21 21 21 21 21 22 22 22 24 24 23 23 23 23 23 22 23 23 23 22 22 22 23 22 22 22 22 23 22 22 22 22 22 21 21 21 21
23 22 22 22 21 21 21 20 21 21 21 22 22 22 24 24 24 24 23 24 23 22 22 22 22 21 22 22 23 22 22 22 22 22 22 23 22 21 22 21 21 21 21
23 23 22 22 22 21 21 22 22 22 22 22 22 24 24 25 25 24 23 24 23 22 22 22 21 21 22 21 22 23 22 22 22 22 22 22 22 22 21 21 21 21 21
24 23 22 22 22 21 22 22 22 22 23 23 23 23 24 25 25 24 24 23 23 22 22 22 22 22 22 21 23 23 25 24 23 22 22 22 21 22 22 21 20 20 20
25 23 23 22 22 22 22 22 21 22 22 22 23 23 24 25 25 25 25 23 23 22 22 22 22 22 23 21 22 23 24 25 24 22 21 21 21 22 21 21 21 20 20
25 24 23 23 22 22 22 22 22 23 24 24 24 23 23 24 25 25 24 24 23 22 22 21 22 22 22 23 21 21 21 22 25 24 22 22 21 21 21 21 21 21 20
26 25 24 23 22 22 22 22 22 23 24 24 24 23 23 24 25 25 24 24 23 23 22 21 22 22 21 22 23 21 21 21 21 24 25 23 22 22 21 21 21 21 21
26 25 24 23 22 22 22 22 22 23 24 24 23 23 23 23 23 24 24 24 24 23 23 22 22 22 22 22 22 22 23 23 23 23 24 23 24 23 22 22 21 21 21

GFSSE_925_temp_027.txt.gz
Temp
20 20 20 20 21 21 21 22 21 21 21 21 21 22 21 21 22 21 21 21 21 21 21 21 21 21 21 20 20 20 20 20 20 20 20 20 20 21 21 21 22 23 21
21 20 20 20 21 21 21 21 22 21 21 21 21 21 22 22 22 21 21 21 21 21 21 21 21 21 21 21 20 20 20 20 20 20 21 21 20 21 20 21 22 21 20
21 20 21 21 21 21 21 21 21 21 21 21 21 22 22 22 21 21 21 21 21 21 21 21 21 21 21 21 21 20 20 20 21 21 21 24 22 20 20 21 21 20 20
20 22 23 21 21 21 21 22 21 21 21 21 21 22 22 22 22 21 21 21 21 21 21 21 21 21 21 21 21 21 20 21 22 23 21 22 24 20 20 20 20 20 20
22 24 23 22 22 21 21 21 21 21 21 21 22 21 21 21 22 21 21 21 21 21 21 21 21 21 21 21 21 21 21 22 23 23 22 24 24 21 20 21 21 20 21
24 26 22 22 21 21 21 21 21 21 21 21 22 21 21 21 21 21 21 21 21 21 21 21 21 21 21 21 21 22 22 23 23 25 24 23 22 21 21 20 20 21 21
24 25 23 21 22 21 21 21 21 21 21 21 22 21 21 21 21 21 21 21 21 21 21 21 21 21 21 21 21 22 22 23 24 25 24 24 21 20 20 20 21 20 20
25 25 23 22 22 22 21 21 21 21 21 21 21 21 21 21 21 21 21 21 21 22 22 22 22 22 23 23 23 22 22 22 24 25 23 22 21 20 20 20 20 20 20
26 26 24 23 22 21 21 21 21 21 21 21 21 21 21 21 21 22 21 21 22 22 22 22 22 23 23 23 23 23 23 23 24 24 24 23 21 20 20 20 20 20 20
27 27 25 24 24 23 22 21 21 21 21 21 21 22 23 23 23 23 23 23 22 23 23 23 23 24 24 25 25 24 24 24 24 24 24 21 22 20 20 20 20 20 20
28 27 27 26 25 25 24 22 21 21 21 21 23 24 24 23 24 23 23 24 23 23 24 24 24 24 24 24 26 25 25 24 23 24 24 22 22 20 20 20 20 21 20
27 28 28 27 26 26 26 23 23 24 24 25 25 25 22 25 25 24 24 24 24 24 24 24 25 24 23 23 25 26 25 27 25 24 22 22 21 20 20 20 20 20 21
28 29 28 28 26 27 27 25 25 26 27 26 26 25 25 26 25 25 24 24 24 23 24 23 24 25 26 25 27 28 27 27 28 25 22 23 21 21 20 20 20 20 20
30 30 29 28 26 27 27 26 27 27 28 27 26 24 25 25 26 26 26 26 26 25 24 23 25 25 24 25 25 27 28 28 28 25 22 23 22 21 21 20 20 20 19
30 30 29 27 26 26 26 27 28 28 27 28 27 25 26 26 25 26 26 26 26 26 23 25 25 25 25 24 25 26 27 27 27 25 23 23 22 21 20 20 20 20 20
30 29 29 27 26 25 26 26 27 27 28 28 28 27 25 26 26 25 26 26 26 25 25 25 25 24 25 25 26 26 27 27 26 26 24 22 23 22 21 20 20 20 20
29 29 28 27 26 25 25 25 26 27 27 28 28 26 25 25 25 25 26 27 25 25 24 25 25 24 25 27 26 26 26 26 26 26 26 24 23 23 22 20 20 20 20
30 29 28 28 26 25 25 25 26 27 27 28 28 27 25 25 25 25 26 26 25 25 26 25 25 27 27 27 27 27 27 27 26 26 26 25 24 23 22 22 21 20 20
30 29 28 27 27 26 25 25 25 26 27 27 28 27 25 25 25 25 26 26 25 24 26 26 26 26 27 27 27 27 27 27 27 26 26 26 25 24 23 23 22 21 20
29 28 28 27 27 26 26 25 26 27 26 27 27 28 25 25 24 24 26 25 25 24 25 25 24 26 26 27 28 27 27 27 27 27 26 27 26 25 24 23 22 22 21
30 29 28 27 27 26 26 26 27 27 27 27 27 27 26 25 25 25 26 25 25 26 25 24 25 25 27 26 27 27 26 26 27 27 27 27 26 26 26 25 23 22 21
30 29 28 27 26 25 26 26 27 27 28 27 27 27 26 25 25 25 24 26 26 25 24 24 24 25 27 26 27 28 27 27 27 28 27 26 26 26 25 25 24 23 22
30 29 28 26 26 25 26 26 26 27 27 27 27 27 26 25 26 26 25 25 26 25 24 24 24 25 26 26 26 27 28 25 28 27 26 26 25 26 25 24 24 23 23
31 29 28 26 25 25 25 27 27 27 28 28 28 28 27 26 26 26 25 25 25 26 24 24 25 25 26 27 26 26 25 25 26 26 27 26 25 26 25 26 24 24 23
32 30 28 26 25 26 25 26 27 27 28 28 29 28 27 26 26 26 26 25 25 24 26 24 25 24 26 26 27 27 26 27 26 27 26 26 26 26 26 25 26 25 24
32 31 29 27 25 25 25 25 26 27 28 29 28 29 28 28 26 26 26 25 25 25 26 25 24 24 24 26 27 27 27 27 27 27 28 27 28 26 26 26 25 25 25

GFSSE_925_temp_033.txt.gz
Temp
20 20 21 21 21 21 21 21 22 22 21 22 22 21 21 22 22 21 21 21 21 21 21 21 21 20 20 21 21 21 21 21 21 21 22 22 22 22 21 21 21 20 20
20 21 21 21 21 21 22 22 22 21 22 21 22 22 21 21 21 21 21 21 21 21 21 21 21 21 21 21 20 20 20 20 20 20 21 20 21 22 22 21 21 20 20
21 21 21 21 21 21 22 22 21 22 21 22 21 21 21 21 21 21 21 21 21 21 21 21 21 21 21 21 21 21 22 21 21 21 21 22 21 21 21 21 20 20 20
21 21 21 21 22 21 22 22 21 21 21 21 21 21 21 21 21 21 21 21 21 21 21 21 21 21 21 22 22 22 22 22 22 22 22 21 21 21 20 20 21 20 20
22 21 21 22 22 21 22 22 21 21 21 21 21 21 21 21 21 21 21 21 21 21 21 21 21 21 21 22 22 22 22 22 22 22 22 21 21 20 21 21 20 20 20
22 22 21 22 21 21 22 21 22 22 21 22 21 21 21 21 21 21 21 21 21 21 21 22 22 21 22 23 23 22 22 22 22 22 22 21 21 20 20 20 20 20 20
22 23 22 22 22 22 22 21 21 21 21 21 21 22 21 21 21 21 21 21 21 21 22 22 22 21 22 23 23 23 22 22 22 22 22 22 21 20 20 20 20 20 20
23 23 22 22 22 22 21 21 21 21 21 21 22 21 21 21 22 21 21 21 22 22 22 22 22 22 22 22 23 23 22 22 22 22 22 22 21 20 20 20 20 20 20
23 22 22 22 21 22 21 21 21 22 21 22 21 21 21 22 22 22 22 22 22 22 22 23 23 23 22 23 23 23 23 23 23 23 22 22 21 20 20 20 20 20 20
23 23 22 21 22 22 21 21 21 22 21 21 22 22 21 21 22 23 23 23 23 23 23 24 24 24 24 23 23 23 24 23 23 23 23 22 21 20 20 20 20 19 20
23 23 22 22 22 22 21 21 22 23 22 23 23 23 23 22 22 23 23 24 24 24 24 24 25 24 24 24 23 23 23 23 22 22 23 22 21 20 20 20 20 20 20
23 23 23 23 22 22 22 22 23 24 24 23 23 24 24 23 23 23 24 24 24 24 24 24 25 24 24 24 24 24 23 23 22 23 23 21 21 20 20 20 21 20 20
24 24 24 23 23 23 23 24 24 24 24 23 24 25 24 23 23 23 24 24 24 25 24 24 24 24 25 25 25 24 24 23 23 23 23 21 21 22 20 20 21 21 20
25 25 25 24 24 24 24 25 25 25 24 23 24 25 24 24 24 24 23 24 24 24 25 24 24 24 25 25 26 26 24 23 23 23 22 21 21 21 20 20 20 20 20
26 26 25 25 25 25 25 26 26 25 25 25 25 25 25 25 24 24 23 24 24 24 25 24 24 25 25 26 26 25 24 24 24 24 22 22 21 21 20 20 20 19 20
27 27 26 26 25 26 26 26 26 26 26 26 25 26 25 25 24 24 24 24 24 25 24 25 24 25 26 26 26 26 25 25 25 24 23 22 22 21 21 20 20 19 20
27 27 26 27 26 26 26 26 26 27 27 27 26 25 25 25 25 25 25 24 24 24 24 25 26 25 25 25 25 26 26 25 24 24 24 24 23 22 21 20 20 20 20
28 26 26 26 27 27 27 26 26 27 27 27 27 26 26 25 25 25 25 25 25 25 24 24 25 25 25 26 26 26 26 26 25 25 24 24 24 23 22 21 21 21 21
28 26 26 26 26 26 26 26 26 27 27 27 26 27 26 26 25 25 25 25 25 25 25 25 25 26 26 26 26 27 26 26 26 25 24 24 24 23 23 22 22 21 21
28 27 26 26 27 26 26 26 25 26 26 26 26 27 27 26 25 25 24 25 25 25 25 25 25 26 26 26 26 26 26 26 26 25 24 24 24 24 23 23 22 22 21
28 27 27 26 26 26 25 25 25 25 26 26 27 26 27 26 26 25 25 24 25 25 25 25 25 25 26 26 26 26 26 27 26 26 25 25 24 23 23 23 22 22 21
28 28 28 27 26 25 25 25 25 25 26 26 27 26 27 26 25 25 25 25 25 24 24 25 25 25 26 26 25 25 22 25 26 26 25 24 24 23 23 23 22 22 22
27 27 28 28 26 26 25 25 25 25 26 26 27 27 26 26 25 25 24 25 25 25 24 24 24 25 26 26 26 25 20 21 24 26 26 26 24 24 23 23 22 22 22
27 27 27 27 27 26 25 25 25 25 25 26 27 27 26 26 26 25 25 25 24 24 25 25 24 25 25 26 25 25 26 25 20 21 25 26 25 25 24 24 23 22 22
28 26 26 27 26 25 25 25 25 25 26 26 27 27 27 26 26 25 25 25 25 24 24 25 24 24 25 25 26 26 26 26 25 22 20 24 25 25 24 24 24 23 22
28 27 26 26 26 26 26 25 26 25 26 26 27 27 27 27 26 26 25 25 25 25 25 25 25 24 25 25 25 26 26 26 25 25 22 23 24 25 25 25 24 24 23

GFSSE_925_temp_036.txt.gz
Temp
20 20 21 21 21 21 21 21 21 22 22 22 22 22 21 21 21 21 21 21 21 20 21 21 20 20 20 20 20 20 20 20 20 20 20 20 21 21 20 20 21 21 21
20 20 21 21 21 21 21 21 21 21 21 21 21 21 21 21 21 21 21 21 21 21 20 20 20 20 20 20 20 20 20 20 20 20 20 21 22 21 21 20 21 21 20
20 21 21 21 21 22 22 21 21 21 21 21 21 21 21 21 21 21 21 21 21 21 21 20 20 20 20 20 20 21 22 21 20 20 21 21 21 21 21 20 20 20 20
21 21 21 21 21 22 22 21 21 21 21 21 21 21 21 21 21 21 21 21 21 21 21 21 21 21 20 20 20 21 22 22 21 21 21 21 20 20 20 20 20 20 20
21 21 21 21 22 22 22 21 21 21 21 21 21 21 21 21 21 21 21 21 21 21 21 21 21 21 21 21 21 22 22 21 21 22 21 21 21 20 20 20 20 20 20
21 21 21 21 21 21 22 21 21 21 21 21 21 21 21 21 21 21 21 21 21 21 21 21 21 21 21 22 22 22 22 21 22 22 21 21 20 20 20 20 20 20 20
21 21 21 21 21 21 21 21 21 21 21 21 21 21 21 21 21 21 21 21 21 21 21 21 21 21 21 22 22 22 22 22 22 22 21 21 20 20 20 20 20 20 20
21 22 21 21 21 22 21 21 21 21 21 21 21 21 21 21 21 21 21 21 21 22 22 22 22 22 23 22 22 22 22 22 22 22 21 21 20 20 20 20 20 20 20
22 22 21 21 21 21 21 21 21 21 21 22 21 21 21 21 21 22 22 21 22 22 22 23 23 23 23 22 22 22 22 22 22 22 21 21 21 20 20 20 20 20 20
22 22 22 21 21 21 21 21 21 21 22 22 22 22 22 22 22 23 23 22 23 23 23 23 23 23 23 23 23 22 22 22 22 22 21 21 20 20 20 20 20 20 20
21 22 22 21 22 22 21 21 21 23 22 22 22 23 23 23 23 22 23 23 24 24 24 23 23 23 24 24 23 23 22 23 22 22 21 21 21 20 20 20 20 20 20
21 21 22 22 22 22 22 22 23 23 23 23 23 23 23 23 23 23 23 23 23 24 24 24 24 23 24 24 24 24 23 23 23 22 21 21 20 20 20 20 20 20 20
22 21 22 22 22 23 23 24 24 24 24 23 23 24 23 23 23 23 23 23 24 24 24 24 24 24 24 24 24 23 23 23 23 22 21 21 20 20 20 21 20 20 20
21 22 23 23 23 23 24 25 25 24 24 24 23 24 24 24 24 23 24 24 24 24 24 24 24 24 24 25 25 24 23 23 23 23 22 21 20 20 20 20 20 19 19
22 23 23 23 23 23 25 26 25 24 24 24 23 24 24 24 24 23 24 24 24 24 24 24 25 24 24 25 25 25 24 24 23 23 22 21 21 20 20 19 19 19 19
23 23 24 24 24 24 25 26 26 25 24 24 24 24 25 25 24 24 24 24 24 24 24 24 24 25 25 25 25 25 25 24 23 23 22 22 21 21 20 20 19 19 19
24 24 24 24 24 25 25 26 26 25 25 25 25 25 25 25 25 24 24 24 24 24 24 24 25 25 25 26 24 24 24 24 24 24 23 23 22 21 20 20 20 20 19
25 25 25 24 24 25 25 25 26 25 26 26 25 25 25 25 25 24 24 24 24 24 24 24 24 25 26 25 25 24 25 25 24 24 24 23 22 21 21 21 20 20 20
26 25 25 24 25 25 25 25 26 26 25 26 26 25 25 25 25 25 24 24 24 24 25 25 25 25 25 25 25 25 25 24 24 24 23 23 23 23 22 22 21 21 21
26 26 25 25 25 26 25 26 26 26 26 26 26 26 25 26 25 25 25 25 24 25 25 25 25 26 26 26 26 26 25 25 25 24 24 23 23 23 23 22 22 21 21
26 26 25 25 25 25 26 26 26 26 26 26 26 25 25 26 26 24 24 24 24 25 25 25 25 25 24 25 25 25 25 24 25 25 24 24 23 23 23 23 22 22 21
26 25 25 25 25 26 26 26 26 26 26 26 26 26 26 26 26 25 24 24 24 24 25 24 25 25 25 25 25 24 20 24 24 24 24 24 23 23 23 22 22 22 22
25 25 24 25 25 25 26 26 25 26 26 26 25 26 26 25 26 25 25 25 24 24 24 24 25 25 25 25 25 25 20 20 22 23 23 24 23 23 23 23 22 22 22
26 25 25 25 25 25 25 25 25 24 24 25 25 26 26 25 25 25 25 25 24 24 24 24 24 25 25 25 25 25 25 25 19 21 23 23 23 23 23 22 23 22 22
26 25 24 24 25 25 25 25 25 24 24 25 25 26 26 25 25 25 25 25 24 24 24 24 24 24 24 25 25 25 25 24 24 21 20 23 23 23 24 23 23 23 23
27 26 25 24 24 24 25 25 25 24 24 25 25 25 26 25 25 25 25 25 24 24 24 24 24 24 24 24 25 25 26 25 24 23 20 21 23 24 24 24 23 23 23

GFSSE_925_temp_039.txt.gz
Temp
20 21 21 21 21 21 21 21 21 21 21 21 21 21 21 21 21 21 21 20 20 20 20 20 20 20 20 20 20 20 20 20 20 20 20 21 21 21 21 20 21 20 20
21 21 21 21 21 21 21 21 21 21 21 21 21 21 21 21 21 21 20 21 20 20 20 20 20 20 20 20 20 20 20 20 20 21 20 21 20 21 20 20 20 20 20
21 21 21 21 21 21 21 21 21 21 21 21 21 21 21 21 21 21 20 20 20 20 20 20 20 20 20 20 20 20 20 20 20 20 21 21 21 21 20 20 20 20 20
21 21 21 21 21 21 21 21 21 21 21 20 21 21 21 21 21 21 21 21 21 21 22 21 21 20 20 20 21 21 20 20 20 20 21 21 21 20 20 20 20 20 20
21 21 21 21 21 21 21 21 21 21 21 21 21 21 21 21 21 21 21 21 20 21 20 21 20 20 20 21 21 21 21 21 20 21 21 21 21 20 20 20 20 20 20
21 21 21 21 21 21 21 21 21 21 21 21 21 21 21 21 21 21 21 21 21 21 20 20 20 20 21 21 21 21 21 22 21 21 21 20 20 20 20 20 20 20 20
20 21 21 21 21 21 21 21 21 21 21 22 21 21 21 21 21 21 21 21 21 21 21 20 20 21 21 22 22 22 22 22 21 21 20 20 20 20 20 20 20 20 20
21 21 21 21 21 21 21 21 21 21 21 21 21 21 21 21 21 21 21 21 21 21 21 21 21 22 22 22 22 22 22 22 21 21 20 20 20 20 20 20 20 20 20
21 21 21 21 21 21 21 21 21 21 21 21 21 21 21 21 21 21 21 21 21 21 21 22 23 22 22 22 22 22 22 22 22 21 20 20 21 20 20 20 20 20 20
21 21 21 21 21 21 21 21 21 21 21 21 21 21 21 21 21 22 22 21 22 22 23 23 23 23 22 22 22 22 22 22 21 21 20 20 21 20 20 20 20 20 20
20 21 21 21 21 21 21 21 21 21 21 21 21 21 22 21 22 22 23 22 22 23 23 23 23 23 23 23 22 23 22 22 21 21 21 20 20 20 20 20 20 19 20
20 20 21 21 22 21 22 21 21 21 22 23 22 22 23 22 22 23 23 23 22 23 23 23 23 23 23 23 23 23 23 22 22 21 21 20 20 20 20 20 20 20 20
20 20 21 22 22 22 23 22 22 22 23 23 23 23 23 23 23 23 23 23 24 24 24 24 24 24 24 24 23 23 23 23 22 22 21 20 20 20 19 20 20 19 20
20 21 21 22 22 22 23 23 24 24 23 23 23 23 23 23 23 24 24 23 23 24 24 24 24 24 24 24 24 24 23 23 22 22 21 21 20 20 19 19 20 20 19
20 21 21 22 22 23 23 24 24 24 24 23 23 24 24 24 24 24 24 24 23 24 24 24 24 24 25 25 25 24 23 23 22 22 21 21 21 20 20 19 19 19 19
21 22 22 23 23 24 24 24 25 24 24 24 24 23 23 24 24 24 24 24 24 24 24 24 24 24 25 25 25 25 23 23 23 23 22 21 20 21 20 20 19 19 19
22 23 23 23 24 24 25 25 25 25 24 24 24 24 24 24 24 25 24 24 24 24 24 24 24 24 24 24 24 24 24 24 23 23 22 21 21 20 20 20 20 20 19
23 23 23 23 24 24 25 25 25 25 24 24 25 25 24 24 24 25 24 24 24 24 24 24 24 24 24 24 24 24 24 23 23 23 22 22 21 21 21 20 20 20 20
23 23 23 23 24 25 25 25 25 25 25 25 25 25 25 24 24 24 24 24 24 24 24 24 24 25 26 25 25 24 23 24 24 23 23 22 22 21 21 21 21 20 20
24 24 24 24 24 24 25 25 24 25 25 25 26 25 25 24 24 24 24 24 24 24 25 24 25 25 25 25 24 24 24 24 23 23 23 23 22 22 22 21 21 21 21
24 24 24 24 24 24 24 24 24 24 25 25 25 25 25 24 24 24 25 24 24 24 24 24 24 25 25 25 24 24 23 24 24 23 23 23 23 22 22 22 22 21 21
24 25 24 25 24 24 24 24 24 25 25 26 25 25 25 24 24 24 25 25 24 24 24 24 24 24 24 25 25 23 19 22 23 23 23 23 23 23 22 22 22 22 21
25 24 24 25 24 25 24 24 24 25 26 25 25 25 25 25 25 24 25 25 24 24 24 24 24 25 25 24 25 24 19 20 21 23 23 23 23 23 23 22 22 22 22
25 24 25 25 24 24 24 24 24 25 25 26 26 25 25 25 25 25 25 24 24 24 24 24 24 24 25 25 25 25 25 24 19 20 23 23 23 23 23 22 22 22 22
26 24 24 25 24 24 24 24 24 24 25 25 25 25 25 26 25 25 25 24 24 24 24 24 24 24 24 25 25 24 24 23 23 21 19 22 23 23 23 23 23 23 23
26 25 24 24 24 24 24 24 24 24 24 25 25 25 25 25 25 25 25 24 24 24 24 24 24 24 24 24 25 25 25 24 23 22 19 20 22 23 24 24 23 23 23

GFSSE_925_temp_042.txt.gz
Temp
20 21 20 20 21 21 21 21 21 21 21 20 20 20 20 21 21 21 21 20 20 20 20 20 20 20 20 20 20 20 20 20 20 21 21 21 20 21 20 20 20 20 20
21 21 21 21 21 21 21 21 21 21 22 21 20 21 21 21 21 21 20 20 20 20 21 20 20 20 20 20 20 20 20 20 20 20 21 20 20 20 20 20 21 20 20
21 21 21 21 21 21 21 21 21 21 21 21 21 21 21 21 21 20 20 20 20 20 20 21 20 20 20 20 20 20 20 20 20 20 21 21 20 20 20 20 20 20 20
21 21 21 21 21 21 21 21 21 21 21 21 21 21 21 21 21 20 20 20 21 21 20 20 20 20 20 20 20 20 20 20 20 21 21 21 21 20 20 20 20 20 20
21 21 21 21 21 20 21 21 21 20 21 21 21 20 21 21 21 21 20 20 20 20 20 20 20 20 21 21 21 21 20 20 21 21 21 21 20 20 20 20 20 20 20
21 21 21 21 21 21 21 21 21 21 21 21 21 20 21 21 21 21 21 21 20 20 20 20 20 20 21 21 21 21 22 20 21 21 20 20 20 20 20 20 20 20 20
20 21 21 21 21 21 21 21 21 21 21 21 21 20 21 21 21 21 21 21 21 20 20 20 20 21 21 21 22 22 22 22 21 21 20 20 20 20 20 20 20 20 20
21 21 21 21 21 21 21 21 21 21 21 21 21 21 21 21 21 21 21 21 21 21 20 21 22 22 22 22 22 22 21 21 21 21 20 20 20 20 20 20 20 20 20
21 21 21 21 21 21 21 21 21 21 21 21 21 21 21 21 21 21 21 21 21 21 21 22 22 22 22 22 22 22 21 21 21 20 20 20 20 20 20 20 20 19 20
21 21 21 21 21 21 21 21 21 21 21 21 21 21 21 21 22 21 21 21 21 21 22 22 22 22 22 22 22 22 22 21 21 20 20 21 20 20 20 20 19 20 20
21 21 21 21 21 21 21 21 21 21 21 21 21 21 21 21 21 22 22 21 21 22 22 23 23 23 23 22 22 22 22 22 21 20 20 20 20 20 20 20 20 20 20
20 20 21 21 21 21 21 21 21 21 21 21 22 22 22 22 22 22 22 22 22 22 23 23 23 23 23 23 22 22 22 22 21 21 21 20 20 20 20 20 20 20 19
20 20 21 21 21 21 21 21 21 21 21 22 22 22 22 23 23 22 23 23 23 23 23 23 23 23 23 23 22 23 22 22 21 21 21 20 20 20 20 20 20 19 19
19 20 20 21 21 22 22 22 22 22 22 22 22 23 23 23 23 23 23 23 23 23 23 23 24 24 24 23 23 23 22 22 22 21 21 20 20 20 19 20 20 20 19
19 19 21 21 22 22 22 22 22 22 23 23 23 23 23 23 23 23 23 23 23 23 23 23 24 24 24 25 24 23 22 22 22 21 21 20 20 20 20 19 19 19 19
20 20 21 21 22 22 23 23 23 23 23 23 23 23 23 23 24 24 23 24 23 23 24 23 24 24 24 25 24 23 23 22 22 22 21 20 20 20 20 20 19 19 19
21 21 21 22 22 23 24 24 23 24 23 24 24 23 23 23 24 24 24 24 24 23 23 23 24 24 25 24 24 23 23 22 22 22 22 21 20 20 20 20 20 20 19
21 21 22 22 23 23 24 24 24 24 24 24 24 24 23 24 24 24 24 24 24 24 24 24 24 24 24 24 24 24 23 23 22 23 22 21 21 20 20 20 20 20 20
22 22 22 22 23 24 24 24 24 24 24 24 24 24 24 24 23 24 24 24 24 24 24 24 24 23 24 24 24 24 23 23 23 23 22 22 21 21 21 20 20 20 20
22 23 23 23 24 24 23 24 24 24 24 24 25 25 25 24 24 23 24 24 24 24 24 24 24 24 24 24 24 24 23 23 22 22 22 22 22 22 21 21 20 20 20
22 22 23 23 24 23 23 22 23 23 24 24 25 25 25 24 24 23 24 24 24 24 24 24 24 24 24 24 24 23 23 23 22 22 22 22 22 22 22 21 21 21 21
22 23 22 23 24 24 24 23 23 24 24 25 25 25 25 24 24 23 23 24 25 24 24 24 24 24 23 23 24 22 20 22 23 22 22 22 22 22 22 22 21 21 21
22 23 23 24 24 24 24 24 23 23 23 24 24 25 25 24 24 24 23 24 24 24 24 24 24 24 24 23 24 24 20 21 20 23 23 23 22 23 22 22 21 22 22
24 23 24 24 24 25 25 24 23 23 23 24 25 25 25 25 25 24 24 23 24 24 24 24 24 24 24 24 23 24 24 24 21 22 23 23 23 23 23 23 22 22 22
24 23 23 24 24 24 25 25 24 23 24 24 25 25 25 25 25 25 24 24 24 24 24 24 24 24 24 24 24 24 23 23 23 21 21 22 23 24 23 23 23 22 22
25 24 23 23 24 24 24 24 24 24 24 24 24 25 25 25 25 25 25 24 24 23 24 24 23 23 24 24 24 24 24 24 23 22 20 21 21 24 24 23 24 23 23

GFSSE_925_temp_045.txt.gz
Temp
20 20 21 21 21 21 21 20 21 21 21 21 21 21 22 21 21 21 21 21 21 21 21 21 20 20 20 20 20 20 20 21 21 21 21 21 22 21 21 21 22 21 20
21 20 21 21 21 21 21 21 21 21 20 21 21 21 21 21 21 22 21 21 21 21 21 21 20 20 20 20 20 20 20 20 21 21 21 20 20 20 20 20 21 21 20
21 21 21 21 21 21 21 21 21 22 22 21 21 21 21 21 21 21 21 21 21 21 20 21 20 20 20 20 20 20 20 20 20 20 21 22 22 20 20 20 20 20 20
21 21 22 21 21 21 21 21 21 21 21 21 21 21 21 20 21 22 21 20 20 20 20 20 20 20 20 21 20 20 20 20 20 20 22 22 22 20 20 20 20 20 20
21 21 21 21 21 21 21 21 21 21 21 21 21 21 21 21 20 20 20 20 20 20 20 20 20 21 21 21 21 20 20 21 21 21 21 21 22 20 20 20 20 20 20
21 22 21 21 21 21 21 21 21 21 21 21 21 21 21 21 21 21 21 21 20 20 20 20 20 20 21 21 21 21 20 21 21 21 21 21 21 20 20 20 20 20 20
22 22 21 21 21 21 21 21 21 21 21 20 21 21 21 21 21 21 21 21 21 20 20 20 21 21 21 21 22 21 20 21 20 20 21 21 21 20 20 20 20 20 20
22 22 21 21 21 21 21 21 21 21 21 21 21 21 22 21 21 21 21 21 21 20 21 21 22 22 22 22 22 21 21 20 21 21 20 21 20 20 20 20 20 20 20
22 22 22 22 21 21 21 21 21 21 21 21 22 22 21 21 21 21 21 21 21 21 21 22 22 22 22 22 22 22 22 21 21 21 21 22 20 20 20 20 20 20 19
22 22 22 22 22 21 21 21 21 21 21 21 21 21 21 21 21 21 21 21 21 21 22 22 22 22 22 22 22 22 22 21 21 21 22 21 20 20 20 20 20 20 20
22 22 22 22 21 21 21 21 21 21 21 21 21 21 21 21 21 22 22 21 21 21 22 22 22 22 22 22 22 22 21 21 21 22 22 20 20 20 20 20 20 20 20
22 22 22 21 21 21 22 21 21 22 22 22 21 21 21 22 21 22 22 21 22 22 23 22 23 23 23 23 22 22 22 21 21 21 21 20 20 20 20 20 20 20 20
22 22 21 21 21 21 21 21 21 21 21 21 22 22 22 22 22 22 22 22 22 22 22 22 22 23 22 23 22 22 22 21 21 22 21 20 20 20 20 20 19 20 19
21 21 21 21 20 21 21 21 21 21 21 21 21 22 22 22 23 22 22 22 22 22 23 23 22 23 23 23 22 22 22 22 22 22 21 20 20 20 20 20 20 19 19
21 21 21 21 20 20 20 21 21 21 21 21 22 22 23 23 23 23 23 22 22 23 23 23 23 23 23 23 22 22 22 21 21 22 22 20 20 20 20 20 20 20 19
22 22 21 21 20 20 21 21 21 21 21 21 22 23 23 23 23 23 23 23 23 23 23 23 24 23 23 23 22 22 22 22 21 21 22 21 20 20 19 20 20 19 19
22 22 21 21 20 20 21 22 21 21 22 22 22 23 23 23 23 23 23 23 23 23 23 24 24 24 23 23 22 22 22 22 21 21 21 21 21 20 20 20 20 20 20
22 21 21 22 21 21 21 23 22 22 22 22 22 23 23 23 23 24 24 23 23 23 23 23 23 24 24 24 23 23 22 22 21 21 21 21 21 21 21 20 20 20 20
22 21 21 21 21 21 22 22 23 23 23 22 23 23 24 23 23 24 24 24 24 23 22 23 24 23 24 24 24 23 22 22 22 22 21 21 21 21 21 20 20 20 20
22 21 21 21 21 21 21 22 22 22 23 23 23 24 24 24 24 24 24 24 24 23 23 23 24 24 23 23 24 24 23 22 22 22 22 22 21 21 21 20 21 21 20
22 22 21 21 21 21 21 22 22 23 22 23 24 25 25 24 24 24 24 24 24 23 24 23 23 22 22 22 24 24 23 23 22 22 22 22 22 22 21 21 21 21 21
23 22 21 21 21 22 21 22 22 23 23 23 24 25 25 25 24 24 23 24 24 23 24 24 24 23 22 22 24 25 26 24 23 23 22 22 22 22 22 21 21 20 20
23 22 22 21 21 22 22 21 22 22 23 23 23 24 25 25 24 24 23 24 24 24 24 24 23 24 24 22 24 25 26 26 25 23 22 23 22 22 22 22 21 21 20
24 23 22 22 21 22 22 22 22 24 24 24 24 24 25 25 25 24 24 24 23 23 24 23 24 24 24 24 23 23 24 23 27 27 24 23 23 23 23 22 22 22 21
24 23 23 22 22 22 22 22 23 23 24 23 23 24 25 25 25 24 24 24 24 23 23 24 24 23 24 24 24 23 23 23 23 26 27 26 24 24 23 23 23 23 22
25 24 23 22 22 22 22 22 23 23 23 23 23 24 24 24 24 24 24 24 24 23 23 23 24 23 23 23 23 23 24 25 26 25 26 25 25 25 24 23 23 23 23

GFSSE_925_temp_048.txt.gz
Temp
20 20 20 20 20 21 21 21 21 21 22 21 21 21 21 21 21 21 21 21 21 21 21 20 20 20 20 20 21 21 21 22 21 21 21 21 21 22 22 22 23 22 20
21 21 21 21 21 21 21 21 21 21 21 21 22 22 22 21 21 21 21 21 21 21 21 20 20 20 20 20 20 20 21 21 21 21 21 21 21 21 21 21 22 21 20
23 23 22 21 22 21 21 21 21 21 21 21 21 21 21 21 21 22 22 21 21 21 21 21 20 20 20 20 20 20 21 21 21 22 22 22 22 20 20 20 21 21 20
25 25 23 21 21 21 21 21 21 21 21 21 21 21 21 21 21 21 21 21 20 21 21 21 20 20 20 20 20 20 20 21 22 23 23 23 23 20 20 20 20 20 20
25 25 22 21 21 21 21 21 21 21 21 21 21 21 21 21 21 21 20 21 20 21 20 20 20 20 21 21 20 20 20 21 22 23 23 22 23 20 21 21 20 21 21
25 26 21 21 21 21 21 21 21 21 21 21 21 21 21 21 21 21 21 21 20 21 21 20 21 21 21 21 21 20 21 21 22 23 24 22 22 20 20 21 22 20 20
26 25 22 21 21 21 21 21 21 21 21 21 21 21 21 21 21 21 21 21 21 21 21 21 21 21 22 22 21 20 21 21 23 23 23 22 21 20 20 20 20 20 20
27 25 23 21 21 21 21 21 21 21 21 21 22 21 21 22 21 21 21 21 21 21 21 22 22 22 22 22 21 21 21 22 24 23 22 23 21 21 20 20 20 20 20
27 26 24 23 21 21 21 21 21 21 21 22 21 22 22 21 21 21 21 21 21 21 21 22 22 22 22 22 22 22 22 22 24 24 25 23 21 20 20 20 20 20 20
27 26 25 25 24 23 22 21 21 21 21 21 21 22 22 21 22 22 22 21 21 21 21 22 22 22 22 22 22 22 22 23 24 25 24 22 20 20 20 20 20 20 19
26 26 25 25 24 23 23 22 21 21 21 21 22 22 22 24 24 24 22 21 22 22 22 22 22 22 23 22 22 23 23 25 26 26 24 21 20 20 20 20 20 20 19
26 26 26 25 24 23 25 23 23 23 24 25 24 23 24 24 24 24 23 22 23 23 23 23 23 23 23 24 23 24 25 24 25 25 23 20 20 20 20 20 20 20 20
26 27 26 25 24 24 24 24 24 25 24 24 23 23 23 24 24 25 24 24 24 24 25 25 24 25 25 26 26 26 25 25 25 25 21 20 20 20 20 20 20 19 20
26 26 25 24 24 25 24 25 25 25 25 24 24 22 23 25 24 25 25 24 24 25 25 25 25 24 25 25 26 25 25 26 26 25 21 20 20 20 20 20 19 20 20
26 26 25 24 23 24 24 25 25 25 25 25 23 23 24 25 24 25 24 25 25 25 25 25 25 25 24 25 25 25 25 25 25 25 23 21 20 20 20 20 20 20 20
26 26 25 24 23 23 24 24 24 25 25 25 25 24 23 24 23 24 24 24 24 25 25 25 25 26 26 25 25 25 25 25 24 24 25 22 21 20 20 20 20 20 20
26 25 25 24 23 23 23 23 24 24 25 25 25 23 23 23 23 23 24 23 24 24 24 24 25 25 26 26 25 25 25 25 24 24 25 25 22 22 21 20 20 20 20
26 25 25 25 24 23 23 23 24 25 25 25 25 24 23 23 23 23 23 24 24 25 25 26 27 25 25 26 26 26 25 25 24 24 24 25 24 24 22 21 20 20 20
26 25 25 25 25 24 23 23 24 24 24 25 25 25 23 23 23 24 25 24 23 24 25 26 26 25 26 27 26 26 26 26 25 25 24 24 23 24 24 22 21 21 20
26 25 24 24 24 24 23 23 24 25 24 25 25 25 24 24 23 24 25 23 24 24 24 26 25 25 27 27 26 26 26 26 25 25 25 25 24 24 25 23 23 22 22
26 25 24 24 24 23 24 24 25 25 25 25 25 24 24 24 24 23 24 24 23 25 25 24 25 24 26 26 26 27 26 26 25 26 26 26 25 25 24 24 24 24 22
26 25 24 24 24 23 24 25 26 26 26 26 26 25 24 24 24 24 24 24 24 24 24 24 24 26 26 26 28 28 28 27 27 27 26 26 25 26 25 24 24 23 23
27 25 25 24 23 23 24 24 24 25 25 25 25 25 25 24 24 24 24 24 23 24 25 24 24 25 27 26 25 27 28 27 28 27 26 26 25 26 25 24 24 24 23
27 26 25 24 23 23 23 25 24 26 26 27 27 27 26 24 24 24 24 24 23 24 24 24 24 25 25 27 26 26 25 26 29 28 27 27 26 26 26 25 25 25 24
27 26 25 24 23 24 23 25 24 25 27 27 27 26 26 24 24 25 24 24 24 24 24 24 24 24 26 27 27 27 26 27 26 28 29 28 27 27 27 26 26 26 25
28 27 26 24 23 23 23 23 24 25 27 27 26 26 26 26 25 24 24 24 24 24 24 24 24 24 25 25 26 26 27 28 29 28 29 28 28 28 27 27 26 26 26

GFSSE_925_temp_051.txt.gz
Temp
20 22 21 21 21 21 21 22 22 22 21 21 21 21 21 21 21 21 21 21 21 21 21 21 21 20 21 21 21 21 21 22 22 21 21 21 21 21 22 22 24 22 20
21 22 20 21 21 21 21 22 22 22 22 21 21 21 21 21 21 21 21 21 21 21 21 21 21 21 21 21 21 21 21 21 22 21 21 21 21 21 21 22 23 21 20
23 22 22 21 21 21 21 22 22 21 21 21 21 21 21 21 21 21 21 21 21 21 21 21 21 21 21 20 20 21 21 21 22 22 22 23 22 21 21 22 20 20 20
25 25 23 21 21 21 22 21 21 21 21 21 22 21 21 21 21 21 21 21 21 21 21 21 21 20 21 21 20 20 22 22 22 22 23 24 23 20 21 20 21 21 20
27 27 22 22 21 21 21 21 21 21 21 22 21 21 21 21 21 21 21 21 21 21 21 21 21 21 21 20 20 21 22 22 22 23 23 23 23 21 20 21 21 20 21
28 26 22 21 21 21 21 21 21 21 21 21 21 21 21 21 22 21 21 21 21 21 21 21 21 21 21 20 20 21 22 22 23 23 23 22 22 21 20 21 21 20 20
29 25 23 21 21 21 21 21 21 21 21 21 21 21 21 21 21 21 21 21 21 21 21 21 21 21 21 21 20 22 23 23 23 24 23 22 21 20 20 20 20 20 20
28 26 23 21 21 21 21 21 21 21 21 21 21 21 21 21 21 21 21 21 21 21 21 21 21 21 21 21 22 23 23 23 24 24 23 23 20 20 20 20 20 20 20
29 27 24 23 22 21 21 21 21 21 21 21 21 21 22 21 21 21 21 21 21 21 21 21 21 21 22 22 23 23 23 24 25 25 25 23 20 20 20 20 20 20 20
29 27 26 25 24 24 22 21 21 21 21 21 21 22 22 22 22 22 23 21 21 21 21 21 21 22 22 22 23 24 25 26 26 25 24 21 20 20 20 20 20 20 20
29 28 28 27 25 24 24 21 21 21 21 22 23 23 24 25 24 23 23 21 22 22 23 23 23 22 23 24 24 24 24 27 26 26 23 20 20 20 20 20 20 19 19
29 29 29 28 26 24 26 23 24 23 24 25 25 24 24 26 25 25 23 24 24 24 24 24 23 22 22 24 24 24 25 27 26 25 22 20 20 20 20 20 20 20 19
30 30 29 27 26 25 26 25 26 25 26 25 25 24 25 25 25 25 25 25 25 23 24 25 24 24 21 25 26 26 27 27 27 25 21 20 20 20 20 19 20 20 20
30 29 29 27 25 25 26 25 26 26 27 27 26 25 25 25 26 25 25 26 25 25 26 25 26 26 25 25 26 26 27 26 27 25 21 21 20 20 20 20 19 19 20
30 29 29 27 25 25 26 27 28 28 28 27 25 25 25 25 25 25 26 24 25 26 26 26 27 26 26 27 25 25 27 26 25 24 22 22 21 20 20 20 20 20 20
29 29 28 27 26 25 26 27 27 27 27 27 27 25 25 24 25 25 25 25 25 24 25 25 26 27 27 27 27 25 26 26 26 24 24 22 22 22 21 20 20 19 20
29 29 27 26 26 25 25 26 25 26 28 27 27 24 25 24 24 25 25 26 24 25 25 26 26 26 27 26 25 26 26 26 26 26 25 24 22 22 22 21 21 20 20
29 28 27 27 26 25 25 25 26 27 27 26 26 25 25 24 24 24 26 26 26 26 24 27 26 27 27 27 25 26 27 26 26 26 26 25 24 23 22 22 22 21 20
28 27 27 27 26 25 25 25 26 27 26 26 26 26 25 25 25 23 25 25 25 26 26 27 26 27 27 27 26 27 27 27 26 26 26 26 25 24 23 23 23 22 22
28 27 27 27 26 25 25 25 26 26 27 27 27 26 25 26 25 25 25 24 25 26 25 25 27 25 27 27 29 28 28 27 27 27 27 27 25 26 24 24 23 22 23
28 27 26 26 26 25 25 25 27 27 27 27 27 26 25 26 25 25 25 24 25 26 25 26 26 26 28 27 27 28 28 27 27 28 28 28 27 27 26 25 24 23 22
28 27 26 26 25 25 25 26 27 28 28 28 28 26 26 26 25 26 25 25 24 25 25 25 26 27 28 27 26 29 26 28 29 28 28 28 27 28 27 25 25 24 24
29 27 26 25 25 24 26 26 26 27 28 27 28 27 26 26 25 26 25 25 25 25 25 25 25 26 27 28 26 26 24 24 28 28 27 28 27 27 27 26 26 25 24
29 28 26 25 25 24 25 26 26 27 28 28 28 28 27 26 26 26 25 25 24 26 25 26 25 27 26 28 27 28 27 26 25 28 29 28 27 27 27 27 27 26 25
30 28 27 25 25 25 24 26 26 26 28 28 29 28 28 26 26 26 25 25 25 25 25 25 25 25 27 27 28 28 27 28 28 28 28 29 28 28 28 27 28 28 26
30 29 28 26 24 24 24 24 26 26 28 29 28 28 28 27 26 26 26 25 25 25 25 25 25 25 25 27 27 28 28 27 28 30 30 29 30 29 29 28 28 28 27

GFSSE_925_temp_054.txt.gz
Temp
22 21 21 21 21 21 21 22 22 22 21 21 22 22 21 21 21 21 21 21 21 20 21 21 21 21 21 21 21 22 22 22 22 22 21 21 21 21 21 22 22 21 20
22 21 21 21 22 22 22 22 22 22 21 21 21 21 21 21 21 21 21 21 21 21 21 21 21 21 21 21 21 21 22 21 21 21 21 21 21 22 22 22 21 20 20
23 22 21 21 21 22 22 22 22 21 21 21 21 21 21 21 21 21 21 21 21 21 21 21 21 21 20 20 20 21 21 22 22 22 22 22 21 21 21 20 20 20 20
24 23 22 21 21 21 21 22 21 21 21 21 21 21 21 21 21 21 21 21 21 21 21 21 21 21 20 20 21 21 22 22 22 22 23 23 22 21 20 20 21 20 20
25 24 22 22 21 21 21 21 21 21 21 21 21 21 21 21 21 21 21 21 21 21 21 21 21 21 21 20 21 22 22 22 22 23 23 23 22 20 21 21 20 20 20
26 23 22 21 21 21 21 21 21 21 21 21 21 21 21 21 21 21 21 21 21 21 21 21 21 21 20 21 22 22 22 22 23 23 22 22 21 20 20 20 20 20 20
25 23 22 22 22 21 21 21 21 21 21 21 21 21 21 21 21 21 21 21 21 21 21 21 21 21 21 22 23 22 22 23 23 22 22 21 21 20 20 20 20 20 20
25 24 22 21 21 21 21 21 21 21 21 21 21 21 21 21 21 21 21 21 21 21 21 21 21 21 21 23 23 23 23 24 24 22 22 21 20 20 20 20 20 20 20
27 24 22 22 21 21 21 21 21 21 21 21 21 21 21 21 21 21 21 21 21 21 21 21 21 22 23 23 24 24 24 23 24 23 22 20 20 20 20 20 20 20 20
27 25 24 23 23 22 21 21 21 21 21 22 22 22 23 22 22 22 22 21 21 21 21 21 21 23 24 24 24 24 24 24 24 23 21 21 20 20 20 20 20 20 20
27 27 26 25 24 23 22 21 21 21 22 22 22 24 23 23 23 22 23 23 23 22 22 22 22 22 22 24 24 25 24 24 24 22 22 21 20 20 20 20 20 20 20
29 28 28 26 24 24 24 22 22 22 22 24 23 24 23 24 25 24 24 24 24 22 23 23 24 24 22 23 23 25 25 24 23 22 21 21 20 20 20 20 20 20 20
30 30 28 25 26 25 24 23 23 23 24 25 24 25 24 25 25 25 24 23 24 23 23 22 23 22 21 23 24 24 27 25 23 22 22 21 20 20 20 20 20 20 20
30 29 27 26 26 25 25 25 24 25 25 26 25 25 25 25 25 25 25 23 25 25 24 24 22 24 22 25 25 25 26 25 23 23 22 21 20 20 20 20 20 20 19
30 29 27 25 26 25 25 26 25 26 27 26 25 25 25 24 25 25 25 26 25 24 26 26 26 25 23 25 26 26 26 25 24 23 23 23 22 21 21 20 20 20 19
30 28 27 26 25 24 26 25 26 27 27 27 26 25 24 24 25 26 25 25 25 26 26 26 26 26 25 26 26 26 26 25 25 23 23 23 23 23 22 21 20 20 20
30 29 27 26 26 25 26 26 27 27 27 27 26 26 24 25 25 25 25 24 25 25 25 26 27 27 27 26 26 26 26 26 25 24 23 23 23 22 22 22 22 21 20
30 28 27 28 26 25 26 26 26 26 26 27 25 25 25 25 24 25 25 25 25 26 26 26 26 27 26 27 26 26 26 26 26 25 25 24 23 22 22 22 22 21 21
29 27 27 28 26 26 25 26 25 26 26 26 26 26 25 25 24 24 25 25 26 25 24 25 26 27 26 27 27 26 27 26 25 26 26 25 24 24 23 23 23 23 22
29 28 27 27 26 26 25 26 26 27 26 25 26 26 25 25 24 24 24 24 25 25 26 25 26 27 26 27 27 27 27 27 26 27 26 26 25 25 24 24 23 23 23
29 28 27 27 26 25 25 25 26 26 26 26 26 26 25 25 25 24 24 25 25 24 26 26 27 27 27 27 28 28 27 27 27 27 27 27 27 25 24 25 24 23 23
28 27 27 27 25 25 25 25 26 27 27 27 26 26 26 26 25 25 25 25 25 25 25 26 25 26 27 27 27 26 24 27 28 28 28 28 27 27 26 25 25 24 24
28 27 26 26 25 25 25 26 26 27 28 27 26 26 26 26 26 25 25 25 25 24 25 25 25 26 26 27 27 26 24 24 26 28 28 27 27 27 27 26 25 25 24
29 27 26 26 25 25 25 26 26 27 27 28 27 27 27 26 26 25 25 25 25 25 25 25 26 26 27 27 27 27 27 27 24 25 28 27 27 27 27 27 26 25 25
29 27 26 26 25 25 25 26 26 26 27 28 28 27 26 26 26 26 25 25 25 25 25 25 25 26 26 27 28 28 28 27 28 27 25 27 28 28 27 28 27 27 26
30 28 27 25 25 25 25 25 26 26 27 28 28 27 26 26 26 26 25 25 25 25 25 25 25 25 26 26 27 27 28 27 27 28 26 28 28 29 28 28 28 27 27

GFSSE_925_temp_057.txt.gz
Temp
21 22 22 21 21 21 22 22 22 22 22 22 23 22 21 22 22 21 21 20 20 21 20 20 20 21 21 22 22 22 22 22 22 22 21 21 21 21 21 21 20 20 20
21 22 22 21 21 21 21 22 21 21 21 22 21 21 21 21 21 21 21 20 20 21 20 20 21 20 20 21 21 21 21 22 22 21 21 21 21 21 21 20 20 20 20
22 22 21 21 21 21 21 21 21 21 21 21 21 21 21 21 21 21 21 21 20 20 21 21 21 20 20 20 20 21 21 22 22 21 22 21 21 21 20 20 20 20 20
22 22 21 21 22 21 21 21 21 21 21 21 21 21 21 21 21 20 21 21 21 20 21 21 21 20 20 20 21 22 22 22 22 22 22 21 21 20 20 20 20 20 20
23 22 22 22 22 22 21 22 21 21 22 21 21 21 21 21 21 21 21 21 20 21 21 21 21 20 20 21 22 22 22 22 22 22 22 21 20 20 20 20 20 20 20
23 22 22 21 22 21 21 21 21 21 21 21 21 21 21 21 21 21 21 21 21 21 21 21 21 21 21 22 22 22 22 22 22 22 22 21 20 20 20 20 20 20 20
23 23 21 22 21 21 21 21 21 21 21 21 21 21 21 21 21 21 21 21 21 21 21 21 21 21 22 22 22 22 22 22 22 22 21 21 20 20 20 20 20 20 20
23 22 21 22 21 21 21 22 21 21 21 21 21 21 21 21 21 21 21 21 21 21 21 21 21 23 23 23 23 22 22 22 22 22 21 21 21 20 20 20 20 20 20
22 22 22 21 21 21 21 22 21 21 21 21 21 22 21 21 21 21 21 21 21 21 21 22 22 23 24 23 23 23 22 22 22 22 22 21 20 20 20 20 19 19 19
22 22 22 21 21 21 21 21 21 21 21 21 22 21 22 21 21 21 22 21 21 21 22 23 23 22 23 23 22 22 22 22 22 22 21 21 21 20 20 20 20 20 20
23 22 22 22 22 22 21 21 21 21 21 21 22 23 22 22 22 22 22 22 21 21 21 23 24 24 23 23 23 22 23 22 22 22 21 21 20 20 20 20 20 20 20
24 24 23 23 22 23 22 22 22 22 23 23 23 22 22 23 23 23 23 22 22 22 22 23 24 24 24 23 23 22 22 22 23 22 21 21 20 20 20 20 20 20 20
25 24 24 24 24 23 24 23 23 23 23 23 23 23 23 23 24 24 24 23 23 23 24 23 24 25 25 25 24 23 23 23 23 22 21 21 20 20 20 20 20 20 20
26 26 25 25 24 24 24 24 23 23 23 24 24 24 24 24 24 24 24 24 23 23 24 24 24 26 24 24 25 24 23 23 23 22 22 22 21 20 20 20 19 19 19
26 25 25 25 25 25 24 24 24 24 24 25 25 25 24 25 25 24 24 24 24 23 24 23 24 25 25 24 24 24 24 24 24 23 23 22 21 21 20 20 20 20 19
25 25 26 26 26 25 24 25 25 25 24 25 25 26 25 25 24 24 24 24 25 25 24 24 24 23 25 25 25 25 25 24 24 24 23 22 22 21 21 21 21 20 20
25 26 26 26 27 25 24 26 25 25 25 26 25 25 25 24 24 24 25 25 25 25 25 26 24 24 25 25 25 25 25 25 25 24 24 23 22 22 22 21 21 21 21
25 26 26 26 26 25 25 25 25 26 25 25 25 25 24 24 24 24 25 25 25 25 25 26 26 26 25 26 26 26 25 25 25 25 24 24 23 23 22 22 22 21 21
26 26 26 26 25 25 25 26 26 26 26 25 26 25 25 25 25 25 24 24 25 26 26 26 26 26 26 26 26 26 26 25 25 25 24 24 24 23 23 23 22 22 22
27 27 26 26 26 25 25 26 26 26 26 26 25 25 25 25 25 24 25 24 25 25 25 25 26 26 26 27 26 26 26 26 26 25 25 24 24 24 24 23 23 23 22
27 27 27 26 26 26 25 25 25 25 26 26 25 25 25 25 25 25 25 24 25 25 25 26 26 26 26 26 26 26 27 26 26 26 26 25 25 25 24 24 24 23 23
26 27 27 27 26 25 25 25 25 26 26 26 26 26 25 25 25 25 25 24 25 25 25 25 25 26 26 27 26 25 23 26 27 27 27 26 26 25 25 24 24 24 23
26 27 27 26 26 25 25 26 25 26 26 26 25 25 25 25 25 25 25 25 25 25 25 25 26 26 26 27 27 26 22 23 24 27 27 27 27 26 25 25 25 25 24
26 26 27 26 25 25 26 25 25 26 26 26 26 25 25 26 26 25 25 25 25 25 25 25 25 26 26 26 27 27 27 27 23 22 26 27 27 27 26 25 26 25 25
26 26 26 26 25 25 25 26 25 26 27 27 26 25 26 26 26 25 25 24 25 25 25 25 25 25 25 25 26 26 27 27 26 25 22 26 27 27 27 27 27 26 26
26 26 25 25 25 25 25 25 26 26 27 27 27 26 26 26 26 25 25 25 25 24 25 25 25 25 26 26 26 27 27 27 27 26 23 24 26 28 27 28 27 27 27

GFSSE_925_temp_060.txt.gz
Temp
21 21 21 21 21 21 21 21 22 22 23 22 22 22 22 22 21 21 21 21 20 20 20 20 21 21 21 21 21 21 21 21 21 21 21 21 20 20 20 20 20 20 20
21 22 21 21 21 21 21 21 22 22 22 21 22 22 22 22 21 21 21 20 20 20 20 20 20 20 21 21 21 21 21 21 21 21 21 21 20 20 20 20 20 20 20
22 22 21 21 21 22 22 21 21 21 21 21 21 21 21 21 21 21 20 20 21 21 20 20 20 20 20 21 22 21 21 22 21 21 21 21 21 20 20 20 20 20 20
22 21 21 22 21 21 21 21 21 21 21 21 21 21 21 21 21 21 21 20 20 20 21 21 21 21 20 21 21 21 22 21 21 21 21 21 21 20 20 20 20 20 20
22 22 22 21 21 21 21 21 21 21 21 21 21 21 21 21 20 21 21 21 20 20 20 21 20 20 20 21 21 22 22 22 21 21 21 21 20 20 20 20 20 20 20
22 22 21 21 21 21 21 21 21 21 21 21 21 21 21 21 21 20 21 21 21 21 20 20 20 20 21 21 22 22 22 22 22 21 21 21 20 20 20 20 20 20 20
22 22 21 21 21 21 21 21 21 21 21 21 21 21 21 20 21 20 21 21 20 21 21 21 20 21 21 22 22 22 22 22 22 22 21 20 21 21 20 20 20 20 19
22 22 21 21 21 21 21 21 21 21 21 21 21 21 21 21 21 21 21 21 21 21 21 20 21 21 22 21 21 21 22 22 22 22 21 21 21 20 20 20 20 20 19
23 22 21 21 21 21 21 21 21 21 21 21 21 21 21 21 21 21 21 21 21 21 21 21 21 21 22 22 21 21 22 22 22 21 21 20 21 20 20 20 20 20 19
21 22 22 21 21 21 21 21 21 21 21 21 21 21 21 21 21 21 21 21 21 21 21 21 22 22 22 22 22 22 21 21 22 21 21 20 21 20 20 20 20 20 20
21 21 22 21 22 21 21 21 21 21 21 21 21 21 21 21 22 21 21 21 21 22 21 22 22 22 22 22 23 21 21 21 22 21 21 20 20 20 20 20 20 19 20
21 21 22 22 22 21 21 21 21 22 22 23 22 22 22 22 22 22 22 21 22 23 23 23 23 23 23 23 22 22 21 21 22 21 21 20 20 20 19 19 20 20 20
22 22 22 22 22 22 22 22 23 23 23 23 23 22 22 22 23 23 23 23 23 24 24 24 24 24 23 23 23 23 22 22 22 21 21 20 20 20 20 20 20 20 20
22 22 22 23 23 23 23 23 23 23 23 23 23 23 23 23 23 23 24 24 24 23 24 24 24 24 24 23 23 24 23 23 22 21 21 21 21 20 19 19 20 20 19
23 23 23 23 23 23 24 24 23 23 23 23 23 23 23 23 23 24 23 23 24 24 24 24 24 24 24 24 23 24 23 23 23 22 21 21 21 20 20 19 19 20 20
24 24 24 23 24 24 24 24 23 23 23 23 23 24 24 24 24 24 24 24 24 24 24 24 25 24 24 24 24 24 24 23 23 23 23 22 22 21 20 20 20 20 20
24 25 24 24 24 24 24 23 24 24 24 24 24 24 25 24 24 24 24 24 24 24 24 24 25 25 24 24 24 24 24 23 23 23 23 22 22 22 21 21 21 21 21
24 25 24 24 24 24 24 24 24 24 24 24 24 25 25 24 24 24 24 24 25 24 24 24 24 25 25 25 24 24 24 24 24 24 23 23 23 23 22 22 22 21 21
25 25 24 25 24 25 25 24 25 25 25 25 25 25 24 24 24 24 25 25 25 25 25 25 25 25 25 25 25 25 24 25 24 24 24 24 23 23 23 22 22 22 22
25 26 26 25 25 25 25 25 25 25 25 25 25 24 24 24 24 24 25 25 25 25 26 26 26 25 25 25 25 25 25 25 24 25 25 24 24 23 23 23 22 22 22
25 25 26 25 25 25 25 24 25 25 25 25 24 25 25 24 24 24 25 24 25 25 25 25 25 25 25 25 26 25 25 25 25 25 25 24 24 24 23 23 23 23 23
24 25 25 26 25 25 25 25 25 26 25 25 25 25 25 25 25 24 25 25 25 25 25 25 25 25 26 26 26 25 21 25 25 25 25 25 25 25 24 24 23 23 23
24 25 25 25 25 25 26 25 25 25 25 25 25 25 25 25 25 24 25 25 24 25 25 25 25 26 26 26 26 26 21 21 23 25 25 25 25 25 25 24 24 24 24
25 25 25 26 26 26 26 26 25 25 24 25 25 25 25 25 25 25 24 24 25 24 25 25 25 25 26 26 26 26 25 25 21 22 25 25 25 26 25 25 25 25 25
25 24 25 26 26 26 26 26 25 24 25 26 25 25 25 25 25 25 25 25 25 24 25 25 25 25 25 25 26 26 26 26 26 23 21 25 26 26 26 26 26 25 25
25 25 25 25 25 26 26 26 26 25 25 25 26 25 25 25 25 25 25 25 25 24 24 25 25 25 25 25 26 25 26 26 25 24 21 23 24 27 26 26 26 26 26

GFSSE_925_temp_063.txt.gz
Temp
21 21 21 21 21 21 21 20 20 20 21 20 20 20 20 20 20 20 20 20 20 20 21 21 21 21 21 21 21 21 21 21 21 20 21 20 20 20 20 20 20 20 20
21 21 21 21 21 21 21 21 20 20 20 21 20 20 20 21 20 20 20 20 20 20 20 20 20 21 21 21 21 21 21 21 21 21 21 21 20 20 20 20 20 20 20
21 21 21 21 21 21 21 21 21 21 21 21 21 21 20 20 21 20 20 20 20 20 21 20 20 21 21 21 21 21 21 21 20 20 21 21 21 20 20 20 20 20 19
21 21 21 21 21 21 21 21 21 21 21 21 21 21 21 21 20 20 20 20 20 20 20 20 21 20 21 21 21 21 21 20 20 21 21 21 20 20 20 20 20 19 19
21 21 21 21 21 21 21 21 21 21 21 21 21 21 21 21 20 20 20 20 20 20 20 20 21 20 20 21 21 21 21 21 21 21 21 20 20 20 20 20 20 20 19
21 21 21 21 21 21 21 21 21 21 21 21 21 21 21 21 20 21 20 20 21 20 20 20 20 20 21 21 21 22 22 21 21 21 21 20 20 20 20 20 20 19 19
21 21 21 21 21 21 21 21 21 21 21 21 21 21 20 21 21 21 21 20 21 21 20 20 20 21 21 21 22 22 22 21 21 21 21 21 21 20 20 20 20 19 19
21 21 21 21 21 21 21 21 21 21 21 21 21 20 21 21 21 21 21 21 21 21 20 20 20 21 21 21 21 21 21 21 21 21 21 21 21 20 20 20 19 19 19
22 21 21 21 21 21 21 21 21 21 20 21 21 21 20 20 21 21 21 21 21 21 20 20 21 21 21 21 21 21 21 21 21 21 21 20 20 20 20 20 20 19 20
21 21 21 21 21 21 21 21 21 21 21 21 21 21 20 21 21 21 21 21 21 21 20 21 22 22 21 21 21 21 21 21 21 21 20 20 20 20 20 19 19 19 20
20 21 21 21 21 21 21 21 21 21 21 21 21 21 21 21 21 21 21 21 21 21 21 22 22 22 22 22 22 21 22 21 21 21 20 20 20 20 20 20 20 20 20
20 20 21 21 21 21 21 21 21 21 21 21 21 21 21 22 22 22 21 21 21 21 22 22 22 23 23 22 22 21 21 21 21 21 20 20 20 20 20 20 20 20 20
21 20 21 21 22 21 21 21 21 22 22 22 22 21 21 22 22 22 22 22 22 22 22 22 23 23 23 23 22 22 22 21 21 21 20 20 20 20 20 20 20 20 20
20 21 21 22 22 22 22 22 22 23 23 23 22 22 22 22 22 23 23 23 23 23 23 23 23 23 23 23 23 23 23 22 21 21 20 20 20 20 20 20 20 20 20
21 21 22 22 22 22 22 22 23 23 23 23 23 23 23 23 23 23 23 23 23 24 23 23 23 23 23 23 23 23 23 23 22 21 21 21 21 20 20 20 20 20 20
22 22 22 22 22 23 22 23 23 23 23 22 23 23 23 23 23 23 23 23 24 24 24 23 24 24 23 23 23 23 23 23 22 22 21 21 21 21 20 20 20 20 19
23 23 23 22 23 23 23 23 23 23 23 23 23 23 23 24 24 23 24 23 24 24 25 24 24 24 23 23 23 23 23 23 23 22 22 22 21 21 20 20 20 20 20
23 23 23 23 23 24 24 23 23 23 23 23 23 23 23 24 24 24 24 24 24 24 24 24 24 24 24 24 24 24 23 23 23 23 22 22 22 21 21 21 21 21 21
24 24 23 23 23 23 24 24 24 24 24 24 24 24 24 24 24 24 24 24 24 24 24 25 25 25 24 24 23 23 23 23 23 23 23 23 23 22 22 22 21 21 21
24 25 24 24 23 23 24 24 24 24 24 24 24 24 24 24 24 24 24 24 24 24 24 24 25 25 25 24 24 24 24 23 23 23 23 23 23 23 23 22 22 22 22
23 23 24 24 24 24 24 24 24 25 25 24 24 24 24 24 24 24 24 24 24 24 24 25 25 24 25 24 24 24 24 24 24 24 24 24 24 24 23 23 23 22 22
23 23 23 24 24 24 25 25 25 25 24 24 24 24 24 24 24 24 25 25 24 24 24 25 25 25 25 25 25 24 21 24 24 24 24 24 24 24 24 24 23 23 23
23 23 24 24 25 25 25 25 25 24 24 23 24 24 24 24 24 24 24 24 24 25 25 25 25 25 26 25 25 24 20 20 21 24 25 25 25 24 24 24 24 24 24
23 23 24 24 25 25 25 25 25 25 24 24 25 25 24 24 24 24 24 24 24 24 24 25 25 25 26 26 25 24 25 24 21 21 25 25 25 25 25 25 25 25 24
23 24 23 24 24 25 25 25 25 25 25 25 25 25 24 24 24 24 24 24 24 24 24 24 25 25 25 26 25 25 25 25 24 22 21 24 25 26 26 26 25 25 25
24 23 23 24 25 25 25 25 25 25 25 25 24 25 25 24 24 24 24 24 25 24 24 24 25 25 25 25 25 26 26 25 24 23 20 22 23 26 27 27 26 26 26

GFSSE_925_temp_066.txt.gz
Temp
21 21 20 21 21 20 21 21 22 22 23 22 21 20 20 20 20 20 20 20 20 21 21 21 21 21 21 21 21 21 21 21 20 20 20 20 20 20 20 20 20 20 20
21 21 21 21 21 20 20 21 21 21 20 21 21 21 21 20 20 21 20 20 20 20 21 21 21 21 21 21 21 21 21 21 21 21 21 20 20 20 20 20 20 20 20
21 21 21 22 21 21 20 20 21 21 20 21 21 21 21 21 20 20 20 20 20 20 20 21 21 21 21 21 21 21 21 20 21 21 21 20 20 20 20 20 20 19 19
22 21 21 21 21 21 20 20 21 21 20 21 21 21 21 20 21 20 20 20 20 20 20 20 21 21 21 21 21 21 20 20 20 21 20 20 20 20 20 20 20 19 19
21 21 22 22 21 21 21 20 21 21 20 21 21 20 21 21 20 20 20 20 20 20 20 21 20 20 20 21 22 22 20 20 21 21 21 21 20 20 20 20 20 19 19
21 21 22 22 21 21 21 21 21 21 21 21 21 21 21 20 20 20 21 20 20 20 21 21 21 20 21 22 22 22 21 21 21 21 21 21 20 20 20 20 19 19 19
21 21 21 21 21 21 21 21 21 21 21 21 21 21 20 20 20 20 20 21 20 20 20 20 20 20 22 22 22 22 22 21 21 21 21 20 20 20 20 20 19 19 19
21 21 21 21 21 21 21 21 21 21 21 20 21 20 21 21 21 21 21 21 20 20 20 20 20 21 21 21 21 22 21 21 21 21 21 20 20 20 20 19 19 19 19
21 21 21 21 21 21 21 21 21 21 20 21 21 21 21 21 21 20 21 21 21 21 20 20 20 20 21 21 21 21 21 21 21 21 20 20 20 20 20 20 20 19 19
20 21 21 21 21 21 21 21 21 20 21 21 21 20 21 21 21 21 21 21 21 20 20 21 21 21 22 21 21 21 21 21 20 20 20 20 20 20 20 20 20 19 20
20 21 21 21 21 21 21 21 21 21 20 20 21 20 21 21 21 21 21 21 21 20 21 21 22 22 22 22 21 21 21 21 20 20 20 20 20 20 20 20 20 20 19
20 20 21 21 21 21 21 21 21 21 21 21 21 21 21 21 21 21 21 21 21 20 21 22 22 22 22 22 22 21 21 21 20 20 20 20 20 20 19 20 20 20 20
20 20 20 21 21 21 21 21 21 21 21 21 21 21 22 22 22 22 21 21 21 22 22 23 23 23 22 22 22 21 21 21 21 20 20 20 20 20 20 20 20 20 20
20 20 21 21 21 21 21 21 22 22 22 22 22 22 22 23 22 22 22 22 22 22 23 23 22 22 23 22 22 22 21 21 21 20 20 20 20 20 20 20 19 20 20
20 20 21 21 21 21 21 22 22 22 22 22 22 22 23 23 23 23 22 22 22 22 23 23 22 22 22 23 23 22 22 22 21 21 21 21 20 20 19 19 19 20 20
20 21 21 21 21 21 22 22 23 23 22 22 23 23 23 23 23 23 23 23 23 23 22 23 23 23 23 23 23 22 22 22 22 21 21 21 20 20 20 20 19 20 19
21 21 21 22 21 22 23 22 23 22 23 23 23 23 23 23 23 23 23 23 23 23 23 23 23 23 23 23 23 22 22 22 22 22 22 21 21 21 20 20 20 20 20
22 22 22 21 21 22 23 23 23 23 23 23 23 23 23 23 23 23 24 24 24 24 24 24 24 24 23 23 23 23 23 22 22 23 22 22 22 21 21 20 20 20 20
23 22 22 22 22 22 23 23 23 23 23 23 23 23 23 23 23 24 24 24 24 24 24 24 24 24 24 23 23 23 23 23 23 23 23 23 22 22 22 22 21 21 21
23 23 23 23 23 22 23 23 23 23 24 23 23 23 24 23 23 24 24 24 24 24 25 25 25 24 24 24 24 24 24 23 23 23 23 23 23 23 23 22 22 22 22
23 23 22 23 23 23 23 22 23 23 24 24 24 24 23 23 23 24 24 24 24 24 24 24 24 24 24 24 24 24 24 24 24 24 24 24 23 23 23 23 23 23 23
23 24 23 23 23 23 23 23 23 24 24 24 24 24 24 23 24 24 23 23 24 24 24 24 24 24 24 24 24 23 21 24 25 25 24 24 24 24 24 24 23 23 23
22 23 24 24 24 23 23 23 23 24 24 24 24 24 24 24 24 23 23 23 24 24 24 24 25 25 25 24 24 24 21 22 21 25 25 25 25 25 24 24 24 24 24
23 23 24 24 24 23 23 23 24 25 24 24 24 24 24 24 24 24 23 24 24 24 24 25 24 25 25 25 24 24 24 23 22 23 25 26 25 25 25 25 25 25 24
22 23 23 24 24 24 23 24 24 24 24 25 24 24 24 24 24 24 24 24 24 24 24 24 24 24 25 25 25 25 24 24 23 22 22 24 26 26 26 26 26 26 25
23 22 22 23 24 24 23 23 24 25 25 24 24 24 24 24 24 24 24 24 24 24 24 24 24 24 25 25 25 25 25 24 24 23 21 21 22 26 27 27 27 27 26

GFSSE_925_temp_069.txt.gz
Temp
20 20 21 21 20 20 20 21 21 20 20 20 20 20 21 21 21 21 21 21 21 22 22 21 21 22 22 21 22 22 21 21 20 20 20 20 20 20 20 20 21 21 20
21 20 21 21 21 20 20 21 21 20 20 21 21 20 20 20 21 20 20 20 21 21 21 21 21 21 21 21 21 21 20 21 20 21 21 21 20 20 20 20 20 20 20
21 21 21 21 21 20 21 21 21 20 21 22 22 21 20 20 20 20 20 20 20 21 21 21 21 21 21 21 21 21 21 20 20 20 21 22 21 20 20 20 19 19 19
22 22 22 22 21 21 22 21 21 21 21 21 22 21 21 21 20 20 20 20 20 20 21 21 20 20 21 21 21 21 21 20 21 20 22 22 22 20 20 20 20 19 19
22 22 21 22 21 21 21 21 21 21 21 21 21 21 21 20 20 21 20 20 20 20 21 20 20 21 21 21 21 20 20 20 21 21 21 21 22 20 20 20 20 19 20
22 22 21 21 21 21 21 21 21 21 21 21 21 20 20 20 20 21 20 20 20 20 21 20 20 21 21 21 21 20 21 21 21 21 21 20 21 20 20 20 20 20 19
22 22 22 21 21 21 21 21 21 21 21 21 21 20 20 20 20 20 20 21 20 20 20 20 20 21 21 21 21 21 21 20 21 21 21 21 21 20 20 20 19 19 19
22 22 22 21 21 21 21 21 21 21 21 21 20 21 20 21 20 20 20 21 21 20 20 20 21 22 22 22 21 20 20 20 21 21 21 21 20 20 20 19 19 19 19
22 22 22 22 21 21 21 21 21 21 20 21 21 20 20 21 21 21 21 21 21 20 20 21 21 22 22 21 20 21 21 20 21 21 21 21 20 20 20 20 20 19 19
22 22 21 21 21 21 21 21 21 20 21 21 20 21 20 20 20 21 21 21 20 20 20 21 22 22 22 22 22 21 21 20 21 21 21 21 20 20 20 19 19 20 19
21 22 22 22 21 21 21 21 21 21 20 21 21 21 21 21 21 22 21 21 21 21 21 22 22 22 22 21 21 21 21 21 22 21 22 20 20 20 20 20 20 20 20
22 21 22 21 21 21 22 21 21 21 21 21 21 20 20 20 21 21 21 21 21 21 21 22 22 22 22 22 21 21 21 21 21 21 21 20 20 20 20 20 20 20 20
22 21 21 21 21 21 21 21 21 21 21 21 21 21 21 20 21 21 21 21 21 22 22 22 22 21 21 21 21 21 21 21 21 21 21 20 20 19 20 20 20 20 20
21 20 21 21 20 21 21 21 21 21 21 21 21 22 22 21 21 21 21 21 22 21 22 23 22 21 22 22 21 21 21 21 22 21 21 20 20 20 20 20 20 20 20
20 20 21 20 20 20 20 20 21 21 21 21 21 22 22 21 21 21 22 22 22 22 22 22 22 22 22 22 21 21 21 21 21 21 21 20 20 20 19 20 19 19 19
21 21 21 20 20 20 21 21 21 21 21 21 22 23 23 23 23 22 22 22 22 22 22 22 22 22 22 22 22 21 21 21 21 21 21 21 21 20 20 20 19 20 20
22 21 21 20 20 20 20 21 21 21 22 22 22 23 23 23 23 23 22 22 23 23 23 23 23 23 23 23 22 22 22 21 22 21 21 21 21 21 20 20 20 20 20
22 21 21 21 21 20 20 21 21 22 22 22 22 23 23 23 23 23 23 23 23 23 23 23 22 23 23 23 23 23 22 22 22 21 21 21 21 22 21 21 20 21 20
22 21 21 21 21 21 21 21 22 22 22 22 23 23 23 23 23 24 23 23 23 23 23 23 23 23 24 24 24 23 23 23 22 23 22 22 22 21 22 22 22 22 22
22 21 21 21 21 21 21 21 21 21 23 23 23 23 23 23 23 23 23 23 23 23 23 23 24 24 24 24 25 24 24 23 23 23 23 23 22 22 22 22 21 22 22
22 22 21 21 21 21 21 22 22 22 22 23 23 23 23 23 23 23 23 24 24 24 24 24 24 23 24 24 24 25 24 24 24 24 24 24 23 23 22 22 22 22 22
23 22 21 21 22 21 21 21 22 22 22 23 24 24 23 23 23 23 23 24 24 24 24 24 25 24 23 23 25 25 27 26 25 25 24 24 24 24 23 23 22 23 23
24 22 22 22 22 22 21 21 22 22 23 23 23 24 23 23 23 23 23 24 24 23 23 24 24 24 25 23 24 25 27 27 26 25 24 24 25 24 24 24 24 24 24
24 23 22 22 22 22 23 22 22 24 24 24 24 23 23 23 23 23 23 23 24 23 23 24 23 24 25 25 23 23 24 24 27 28 26 25 25 25 25 25 25 25 25
25 24 23 22 22 22 23 22 22 23 24 24 23 24 23 24 24 23 23 23 23 23 24 24 24 25 24 24 25 24 23 24 23 26 28 27 26 26 25 26 26 26 26
25 24 23 22 23 22 23 23 22 23 23 24 24 23 23 23 24 24 24 24 24 23 24 23 24 24 24 24 24 24 25 25 26 26 27 26 26 27 26 26 26 26 27

GFSSE_925_temp_072.txt.gz
Temp
23 22 20 20 20 21 22 22 21 21 21 21 21 21 21 21 21 21 21 21 21 21 22 22 22 22 21 22 21 21 21 21 21 20 20 20 20 20 20 21 23 22 20
24 23 21 21 21 21 21 20 20 21 21 21 20 21 21 21 21 21 21 21 21 21 21 21 21 21 21 21 21 21 21 21 21 21 21 21 20 20 20 21 21 20 20
24 23 22 21 21 20 21 21 21 22 22 22 21 21 20 21 20 20 20 20 20 21 21 21 21 21 21 21 21 21 21 21 22 23 24 24 22 20 20 20 20 20 20
25 25 23 21 21 20 21 20 21 21 22 22 21 21 20 20 20 20 20 21 21 21 21 21 21 21 21 21 21 21 21 21 22 23 25 25 23 20 20 20 20 20 20
26 26 23 21 21 20 21 21 21 21 21 21 21 20 20 20 20 21 21 21 21 21 21 21 21 21 21 21 21 20 20 21 22 24 24 24 23 20 20 20 21 21 21
26 26 22 21 21 21 21 21 21 21 21 21 20 21 20 20 20 21 21 21 20 21 21 21 21 22 22 21 20 20 20 22 24 24 23 22 22 20 20 20 20 20 20
27 25 23 21 21 21 21 22 21 21 20 20 21 20 20 20 21 20 20 21 20 20 20 21 21 22 21 21 20 20 20 22 24 23 23 23 21 20 20 20 20 20 19
27 26 23 21 21 21 21 21 21 21 21 20 20 21 20 20 20 21 21 21 21 20 20 21 21 21 21 21 20 20 21 23 24 24 23 22 20 20 20 20 19 20 20
27 26 24 23 22 21 21 21 21 21 20 20 20 20 20 20 20 21 21 21 21 21 22 22 22 22 21 20 21 21 22 23 24 24 24 22 20 20 20 20 20 19 19
26 26 25 25 24 24 22 21 21 21 20 20 20 21 22 21 22 21 21 21 21 22 22 22 22 22 22 21 22 22 23 23 24 24 24 21 20 20 20 19 19 19 20
26 26 25 25 24 22 22 21 21 21 21 22 22 22 23 25 24 23 22 21 21 21 21 22 22 22 22 21 22 22 24 25 25 25 23 20 20 20 20 19 20 20 19
26 26 26 26 25 24 24 23 24 23 25 24 23 23 24 24 23 23 22 21 21 21 22 22 23 23 24 24 24 24 25 24 25 25 22 20 20 20 20 19 19 19 19
26 27 26 25 24 25 23 25 25 24 24 23 23 23 23 24 24 24 24 24 23 23 25 24 24 25 24 25 25 25 24 25 25 25 21 20 20 19 20 19 20 20 19
26 26 26 25 24 24 25 25 25 25 25 24 23 23 23 24 24 24 24 24 24 25 24 25 24 23 23 24 25 25 25 26 25 25 22 20 20 20 19 20 20 20 20
26 25 25 24 23 23 24 25 25 24 25 24 24 23 24 24 24 24 23 24 24 25 24 24 24 24 24 25 25 25 25 24 24 25 24 21 21 20 20 19 19 20 20
25 24 25 24 23 23 24 23 24 25 24 25 25 23 23 24 23 24 24 24 24 25 25 25 24 25 26 25 24 24 25 24 24 24 25 22 22 21 21 20 20 20 20
25 25 25 24 23 23 23 23 24 24 25 25 25 23 23 24 23 23 24 24 25 24 23 24 24 25 26 26 25 25 25 24 24 24 25 25 23 22 22 21 21 21 21
26 25 24 25 24 23 23 23 24 25 25 25 25 24 23 23 23 23 24 24 24 24 25 25 26 26 26 26 26 26 25 25 24 24 25 25 24 25 23 23 22 21 21
26 24 24 24 24 23 23 24 24 24 25 25 25 25 23 23 23 23 24 24 24 25 25 26 26 26 26 27 27 26 26 26 26 26 25 25 25 25 25 23 23 22 22
26 25 24 24 24 23 23 23 24 25 25 25 25 25 23 24 23 23 24 23 25 26 26 26 25 26 27 27 28 27 27 27 27 27 27 27 26 25 25 24 24 24 23
26 25 24 24 23 23 23 24 25 25 25 25 25 24 23 24 23 23 24 24 25 26 25 25 25 25 27 26 28 28 28 27 27 27 27 27 27 26 26 26 25 25 25
26 25 24 24 23 23 24 25 25 26 26 26 25 24 24 23 23 23 24 24 25 25 24 25 25 27 27 26 28 28 30 29 29 28 28 27 27 27 27 26 25 25 25
27 25 24 24 23 23 25 24 23 24 24 24 25 25 24 23 23 23 23 25 24 25 26 25 25 26 28 26 25 28 30 30 30 29 28 28 27 28 27 27 26 26 25
28 26 25 24 23 23 23 24 24 26 27 27 26 26 25 23 23 23 23 23 23 25 25 25 25 26 26 28 27 27 26 26 30 30 29 28 28 29 27 28 28 27 26
28 27 26 24 24 24 23 24 24 25 27 26 27 25 25 23 24 24 23 23 23 25 24 25 24 24 26 28 28 28 27 27 26 30 31 30 29 29 29 28 28 28 27
28 28 27 25 23 23 23 23 24 25 26 27 26 24 24 24 24 24 23 23 23 24 24 24 24 24 26 26 27 27 28 28 29 30 31 30 30 29 29 29 29 28 28

GFSSE_925_temp_075.txt.gz
Temp
24 22 21 21 21 21 21 21 21 22 22 22 21 21 21 21 21 21 21 21 21 21 22 21 21 21 21 21 21 21 21 21 21 21 20 20 20 20 21 21 23 22 20
24 23 21 21 21 21 22 22 22 22 22 21 21 21 21 20 20 20 21 21 21 21 21 21 21 21 21 21 21 21 21 22 21 22 22 21 20 20 21 22 21 20 20
26 23 22 21 21 21 22 22 21 21 21 21 21 21 21 21 21 21 21 21 21 21 21 21 21 21 21 21 21 21 22 22 22 23 24 24 21 20 20 20 20 20 20
26 25 23 21 21 21 21 21 21 21 21 21 21 21 21 21 21 21 21 21 21 21 21 21 21 21 21 21 21 21 22 23 24 24 26 25 23 20 20 20 20 20 21
28 27 22 21 21 22 21 21 21 21 21 21 21 21 21 20 21 21 21 21 21 21 21 21 21 21 21 21 21 22 23 24 25 26 25 24 23 20 20 20 21 21 21
28 26 22 21 21 21 21 21 21 21 21 21 21 20 21 21 21 21 21 21 21 21 21 21 21 21 21 21 21 22 23 24 24 25 24 22 22 20 20 20 20 20 20
27 25 23 21 21 21 21 21 21 21 21 21 21 21 21 21 21 21 21 21 21 21 21 21 21 21 21 20 22 23 23 24 24 24 24 23 21 20 20 20 20 20 20
28 27 23 21 21 21 21 21 21 21 21 20 21 21 21 21 21 21 21 21 21 21 21 21 21 22 21 21 22 23 23 24 24 23 23 22 20 20 20 20 20 20 19
28 27 25 24 22 21 21 21 21 21 21 21 21 21 21 21 21 21 21 21 21 21 21 21 22 21 20 21 22 23 24 24 24 23 24 22 20 20 20 20 20 20 20
28 27 27 26 25 24 22 21 21 21 21 21 21 22 23 22 22 21 22 21 21 21 21 21 22 22 22 23 23 24 25 25 25 24 23 21 20 20 20 20 19 19 19
28 29 28 28 26 23 23 22 22 21 22 23 22 23 22 25 24 22 22 22 21 21 21 22 23 23 24 24 24 24 24 27 27 25 22 20 20 20 20 20 19 19 19
28 29 29 27 26 25 25 23 24 23 24 25 25 24 23 24 25 24 22 22 23 23 23 24 24 23 24 25 25 25 26 27 27 24 21 20 20 20 20 19 20 20 20
30 30 28 27 26 24 26 27 27 26 26 25 24 25 25 25 25 25 23 24 23 23 25 24 24 24 25 28 28 27 27 27 27 24 21 20 20 20 20 20 20 20 19
30 29 29 27 25 26 27 27 27 27 26 25 24 25 25 27 26 26 25 26 25 26 26 25 26 25 26 27 27 27 28 28 28 25 21 20 20 20 20 20 20 20 19
29 29 28 27 24 25 26 27 26 27 26 26 24 25 26 25 26 26 26 26 26 26 27 27 25 26 26 27 27 27 27 27 27 26 23 22 22 21 20 20 20 20 20
29 29 28 26 24 24 26 26 26 24 27 26 26 25 25 26 26 26 26 26 26 26 26 26 24 26 26 27 26 26 26 26 26 26 24 23 23 23 22 21 21 21 20
28 27 27 27 25 25 24 25 25 26 26 26 25 25 25 24 25 26 26 26 26 25 25 26 26 27 27 27 26 26 26 26 26 26 27 24 23 24 23 22 22 22 21
28 27 27 28 26 25 25 25 26 25 25 25 26 25 25 24 24 24 26 27 26 26 26 26 26 27 27 26 26 27 27 27 26 26 27 27 26 25 23 23 23 23 22
28 27 27 27 27 26 25 26 26 26 24 25 26 25 25 25 24 25 26 26 25 26 27 27 27 27 27 27 28 27 28 28 27 28 27 27 26 27 26 24 24 24 24
28 27 26 27 26 25 25 25 26 26 25 25 25 25 25 24 24 24 26 25 25 27 26 26 26 26 27 28 28 28 28 29 29 29 28 28 27 26 27 26 25 25 25
28 27 26 26 25 25 25 26 27 26 26 26 25 25 24 24 24 24 26 25 25 27 26 26 26 27 28 28 27 29 29 28 29 29 29 30 28 28 27 27 27 27 26
28 27 26 26 25 25 26 27 28 27 27 26 26 26 25 25 24 25 25 26 26 26 26 26 26 27 28 28 28 28 30 30 30 30 29 29 29 29 28 27 27 26 26
28 27 26 25 25 24 26 26 26 27 26 26 26 27 26 24 25 25 25 26 26 26 26 26 26 27 27 28 27 28 28 29 31 30 29 29 28 29 29 28 28 27 26
29 27 26 25 25 24 25 26 26 26 27 27 27 27 26 25 25 25 25 25 25 26 27 26 27 26 27 29 29 29 27 27 27 31 30 29 29 29 29 30 29 28 27
29 28 26 25 25 25 25 25 26 26 27 27 26 25 26 25 25 25 25 25 25 25 26 26 26 26 28 28 29 29 28 30 29 30 31 31 31 30 30 30 30 30 29
30 29 27 25 25 25 25 24 25 26 26 27 25 26 26 26 26 25 25 24 24 24 25 26 25 25 26 27 27 29 28 27 29 32 31 32 31 31 31 30 30 30 30

GFSSE_925_temp_078.txt.gz
Temp
23 21 21 21 21 21 21 22 22 22 22 22 22 21 21 21 21 21 21 22 22 22 22 21 21 21 21 21 21 21 21 22 22 21 20 20 21 20 21 21 21 20 20
23 21 21 21 21 21 22 22 22 21 21 21 21 21 20 21 21 21 21 21 21 22 21 21 21 21 21 21 21 22 21 22 22 23 21 21 20 21 22 21 20 20 20
24 22 21 21 21 22 22 21 21 21 21 21 21 21 21 21 21 21 21 21 21 21 21 21 21 21 21 21 21 22 22 22 22 23 23 21 21 20 20 20 20 20 20
24 24 22 22 21 22 21 21 21 21 21 21 21 21 21 21 21 21 21 21 21 21 21 21 21 21 21 21 23 23 23 23 22 23 23 22 21 20 20 20 20 20 20
26 24 21 22 21 22 21 21 21 21 21 21 21 21 21 21 21 21 21 21 21 21 21 21 21 21 21 22 23 23 23 24 23 23 23 22 21 20 20 20 20 20 20
26 23 22 22 21 21 21 21 21 21 21 21 21 21 21 21 21 21 21 21 21 21 21 21 21 21 21 23 23 23 24 24 24 23 22 22 20 20 20 20 20 20 20
25 23 21 21 21 21 21 21 21 21 21 21 21 21 21 21 21 21 21 21 21 21 21 21 21 21 22 23 23 22 23 24 23 23 22 20 20 20 20 20 20 19 19
26 24 22 21 21 21 21 21 21 21 21 21 21 21 21 21 21 21 21 21 21 21 21 21 21 21 23 24 23 23 23 24 23 22 21 20 20 20 20 20 19 20 19
27 24 23 22 21 21 21 21 21 21 21 21 21 22 21 21 21 21 21 21 21 21 21 21 21 22 24 24 24 23 24 24 23 23 21 20 20 20 20 20 20 20 19
27 26 25 24 23 22 21 21 21 21 22 22 21 22 21 21 21 22 21 21 21 21 21 22 23 24 25 24 25 24 22 23 23 22 21 20 21 20 20 20 20 20 20
27 27 27 25 24 22 22 21 22 22 23 23 22 22 22 23 22 22 22 21 21 22 23 23 23 24 24 25 25 25 24 23 23 22 21 20 20 20 20 20 20 20 20
28 28 27 25 24 24 24 23 23 22 22 24 23 21 23 24 23 22 22 23 23 23 23 23 24 24 24 25 26 26 26 24 23 22 21 20 20 20 20 20 20 20 20
29 27 26 26 25 25 26 24 24 23 25 25 24 24 25 25 24 23 24 23 24 23 23 23 23 23 24 25 26 27 27 25 24 22 21 21 20 20 20 20 20 20 19
28 27 25 25 26 26 26 26 26 25 25 25 25 25 25 25 25 23 24 24 25 23 24 24 24 26 27 27 27 28 28 25 24 24 23 23 22 20 20 20 20 20 20
29 27 25 26 25 26 26 27 26 26 25 25 25 25 25 26 25 24 25 25 25 24 25 24 26 26 27 26 27 27 27 26 25 25 25 24 23 22 21 20 21 21 20
30 27 26 26 26 26 26 27 25 26 26 25 25 25 25 26 26 26 25 25 25 24 25 25 26 26 26 27 26 26 26 26 26 25 25 24 24 23 23 22 22 22 21
30 28 26 25 25 25 26 25 25 25 25 25 25 24 25 25 24 25 26 26 26 26 25 25 25 26 26 26 26 26 26 26 27 25 25 24 24 23 23 23 23 22 22
29 28 28 27 25 25 26 26 25 25 24 25 25 25 25 24 25 26 24 26 26 26 25 25 25 26 26 27 26 26 26 26 26 27 25 25 24 23 24 24 24 23 23
28 28 28 27 27 26 25 26 25 25 25 24 24 25 25 24 24 25 26 26 26 25 25 26 27 27 26 26 27 27 27 27 27 27 27 27 26 25 24 25 24 24 24
28 27 27 27 26 26 25 25 26 25 24 25 25 24 24 25 24 24 25 26 26 25 26 26 26 27 26 26 27 28 28 28 28 27 28 27 27 26 26 26 25 25 25
28 27 27 27 26 25 25 26 26 25 25 25 25 24 24 25 24 25 25 26 25 25 26 26 27 27 27 27 27 28 29 29 29 29 28 28 28 27 27 27 26 25 26
28 27 26 26 25 25 25 26 26 26 25 25 25 25 25 24 24 24 25 26 25 25 26 26 26 26 27 28 27 27 25 28 29 29 29 29 29 29 28 27 27 26 26
28 27 26 26 25 25 26 26 26 25 25 25 24 25 25 25 25 24 25 25 26 25 26 26 26 25 27 28 28 28 25 25 28 29 29 29 29 29 29 28 28 27 27
26 27 26 25 24 25 25 26 27 26 25 26 26 26 25 25 25 25 25 25 25 25 26 26 26 27 27 27 29 29 28 28 26 27 29 29 29 29 29 28 28 28 28
27 27 26 25 24 25 25 25 26 26 26 27 26 25 25 25 26 25 26 25 25 24 26 26 26 26 26 27 28 29 29 28 29 28 26 29 29 29 30 29 30 29 29
27 28 26 25 25 25 25 25 25 26 25 24 24 26 25 25 25 25 25 25 24 25 25 27 26 26 26 26 27 27 28 28 28 27 28 30 30 30 30 30 30 30 30

GFSSE_925_temp_081.txt.gz
Temp
21 22 21 21 21 22 22 22 22 22 22 22 22 21 22 21 22 22 21 21 21 21 21 21 21 21 21 21 21 21 21 21 21 20 20 20 21 20 20 20 20 20 20
22 22 21 21 21 22 21 21 21 21 22 21 21 21 21 21 21 22 21 21 21 21 21 21 21 21 21 21 21 21 21 21 22 21 20 20 21 20 20 20 20 20 20
22 21 22 22 21 21 21 21 21 21 21 21 21 21 21 21 21 21 21 21 21 21 21 21 21 21 21 21 22 22 22 21 22 21 22 21 20 20 20 20 20 20 20
21 21 22 21 21 22 22 21 21 21 21 21 21 21 21 21 21 21 21 21 21 21 21 21 21 21 21 21 22 22 22 22 22 22 21 21 20 20 20 20 20 20 19
22 22 21 22 21 21 22 21 21 21 21 21 21 21 21 21 21 21 21 21 21 21 21 21 21 22 21 22 22 23 22 22 22 21 21 21 20 20 20 20 20 20 20
23 22 22 21 21 22 21 21 21 21 21 21 21 21 21 21 21 21 21 21 21 21 21 21 22 23 22 22 23 23 23 22 23 22 22 20 20 20 20 20 20 19 19
23 22 21 22 22 21 21 21 21 21 21 21 21 21 21 21 21 21 21 21 21 21 21 21 23 22 22 23 23 23 23 23 23 23 22 20 20 20 20 20 20 19 19
23 22 21 21 21 21 21 21 21 21 21 21 20 20 21 21 21 21 21 21 21 21 21 22 23 23 23 23 23 23 23 23 23 22 21 21 20 20 20 20 20 19 19
23 22 21 21 21 21 21 21 21 21 21 20 20 20 21 21 21 21 21 21 21 21 21 23 24 24 23 23 23 23 23 23 22 22 21 20 20 20 20 20 20 19 19
23 23 22 22 22 22 22 22 22 21 21 21 21 21 21 21 21 21 21 21 21 21 21 23 24 24 24 23 23 23 23 22 22 22 21 20 20 20 20 19 19 19 19
23 23 23 22 23 23 23 22 21 22 23 22 22 21 22 22 22 22 22 22 21 21 23 23 24 24 24 24 23 23 23 23 23 22 21 20 20 20 19 19 19 20 19
24 24 23 23 23 24 23 24 23 22 22 23 23 22 22 22 23 23 23 22 22 23 23 24 25 24 24 24 24 24 23 22 22 22 21 21 20 20 19 20 20 20 20
25 24 24 25 24 24 24 24 24 23 23 23 24 23 23 22 23 24 23 23 23 23 23 23 25 25 25 25 25 23 23 23 23 23 22 21 21 20 20 20 20 20 20
25 24 25 25 25 24 25 24 24 24 24 24 24 24 23 23 24 24 23 23 24 24 24 24 25 24 24 25 26 25 24 24 24 24 23 23 22 21 21 21 20 20 20
25 25 25 26 25 25 25 24 24 24 24 25 24 24 23 24 24 24 24 24 24 25 25 25 25 25 26 26 27 25 25 25 25 25 24 23 23 23 22 22 21 21 20
25 25 26 26 25 26 26 25 25 25 25 25 25 25 24 24 25 25 24 24 25 25 25 25 26 26 26 27 27 26 25 26 25 25 25 24 24 23 22 22 22 21 21
25 26 26 25 25 26 25 26 26 25 25 25 25 25 25 24 24 25 25 24 25 25 25 25 25 25 26 26 26 26 27 26 26 25 25 25 24 24 23 23 23 23 23
25 26 26 25 25 25 25 26 25 25 25 24 24 25 25 25 25 25 25 25 25 25 25 26 26 26 26 26 26 26 26 26 26 25 25 25 24 24 24 24 24 24 24
26 26 25 26 26 25 25 25 25 25 25 24 24 24 24 25 25 25 25 25 25 26 26 25 25 25 25 26 26 26 26 26 27 26 25 26 25 25 25 25 25 25 25
27 28 26 26 25 26 25 25 25 25 25 24 25 24 24 24 24 25 25 25 25 26 26 26 26 26 26 26 27 27 27 27 27 26 27 26 26 25 26 26 25 25 25
27 28 26 25 25 26 26 25 25 25 25 24 24 23 25 25 24 25 25 25 25 25 26 26 26 26 26 27 27 27 27 27 28 27 27 27 26 26 26 26 26 26 26
27 27 26 26 26 26 26 25 25 25 25 24 24 24 24 25 24 24 25 25 26 25 25 26 26 26 26 27 27 26 23 27 29 28 28 28 27 27 27 27 27 27 26
27 27 26 26 25 25 26 25 25 25 25 24 24 24 24 25 24 25 25 25 25 25 26 26 26 27 26 28 28 27 24 24 26 28 28 28 29 28 28 28 27 27 27
26 27 26 25 25 26 25 25 25 25 24 24 25 25 24 25 25 25 25 25 25 25 25 26 26 26 26 26 28 27 28 28 23 24 28 29 29 28 28 28 28 28 28
26 26 26 25 25 26 25 25 25 25 25 24 25 24 25 25 25 25 25 24 25 26 26 26 26 26 26 26 26 27 28 28 27 26 23 28 29 29 29 29 28 28 28
26 26 26 25 25 25 25 25 25 25 25 25 24 25 25 25 26 26 25 25 25 25 26 26 25 26 26 26 26 26 26 26 27 26 24 26 28 29 30 30 29 29 28

GFSSE_925_temp_084.txt.gz
Temp
21 21 21 21 21 21 21 21 21 21 20 20 20 21 21 21 21 21 22 21 21 21 21 21 21 21 21 20 21 21 20 20 20 20 20 20 20 20 20 20 20 20 20
22 21 21 21 21 21 21 21 20 21 21 21 20 21 21 21 21 21 21 21 21 21 21 21 21 21 21 21 21 20 20 20 21 20 20 20 20 20 20 20 20 20 20
22 21 21 21 21 22 21 21 20 21 20 20 21 20 20 21 21 21 21 21 21 21 21 21 21 21 21 21 21 21 21 21 21 20 20 20 20 20 20 20 20 20 20
22 21 21 22 22 22 21 21 21 20 20 21 21 21 21 21 21 21 21 21 21 21 21 21 21 21 21 21 21 21 21 21 20 20 20 20 20 20 20 20 20 20 20
21 21 22 21 21 21 21 21 21 21 21 21 21 21 21 21 21 21 21 21 21 21 21 21 21 21 22 22 22 21 22 21 21 21 20 20 20 20 20 20 20 20 20
21 21 21 21 21 21 21 21 20 21 20 21 20 21 21 21 21 21 21 21 21 21 21 21 21 22 22 22 22 21 22 22 21 21 21 20 20 20 20 20 20 19 19
21 21 21 21 21 21 21 21 21 21 20 20 20 21 21 21 21 21 21 21 21 21 21 21 21 22 22 22 22 22 22 22 22 22 21 20 20 20 20 20 19 19 19
22 21 21 21 22 21 21 21 21 21 20 20 20 20 21 21 21 21 21 21 21 21 21 22 23 22 22 22 21 22 22 22 22 22 21 20 20 20 20 19 19 19 19
22 22 21 21 21 21 21 20 21 21 20 20 20 20 21 21 21 21 21 21 21 21 22 22 23 23 23 22 22 22 23 22 22 21 21 20 20 20 20 19 20 19 19
22 22 22 22 22 21 21 21 21 20 20 20 20 20 21 21 21 21 21 21 21 21 21 22 23 23 23 23 22 22 22 22 22 21 21 20 20 20 20 20 19 19 19
22 22 22 22 22 22 21 21 21 21 21 21 21 21 21 21 21 21 21 21 21 21 22 23 23 23 23 23 22 22 22 22 22 22 21 20 21 20 19 20 20 20 19
21 22 23 23 23 22 22 23 22 22 22 22 22 22 22 22 22 22 21 21 23 23 24 24 24 23 23 23 22 22 22 22 22 21 21 21 21 20 20 20 20 20 20
23 22 22 23 24 24 23 23 23 23 23 22 22 22 22 23 22 23 23 23 23 24 24 24 24 24 24 24 23 23 22 23 22 21 22 21 20 21 20 20 20 20 20
23 23 23 23 24 24 24 23 23 23 23 23 23 23 23 23 23 23 23 23 23 24 25 24 24 25 25 24 24 23 23 23 23 22 22 22 22 21 21 21 21 21 20
23 24 23 24 24 24 24 23 23 23 23 23 23 23 24 24 24 24 24 24 23 24 24 23 24 25 26 26 26 25 24 24 24 24 23 23 22 21 21 21 21 21 20
24 24 24 24 24 24 24 24 24 24 23 24 24 24 24 24 24 24 24 24 24 24 24 24 25 25 25 25 25 25 25 25 25 25 24 23 23 22 22 22 21 21 21
24 24 24 24 25 25 25 25 24 24 24 24 24 24 24 24 24 24 24 24 25 25 25 25 25 26 26 25 25 25 25 25 25 25 24 24 24 23 23 22 22 22 23
25 24 25 25 25 25 25 24 24 25 25 25 25 24 24 24 24 25 24 24 25 25 25 25 26 25 26 26 26 25 25 25 25 25 24 24 24 25 24 24 23 23 24
25 25 25 25 25 25 25 25 25 25 25 25 25 24 25 24 25 24 24 24 25 25 25 25 26 25 25 26 26 26 26 25 25 25 25 25 25 25 25 24 25 25 25
26 25 25 25 25 25 25 25 25 24 24 25 24 24 24 24 24 25 25 25 25 25 25 25 26 25 26 26 26 26 26 26 26 26 26 25 25 25 25 25 25 25 25
25 25 25 25 25 25 24 24 24 25 25 24 24 24 24 24 24 24 24 25 25 25 25 25 25 25 26 26 26 26 27 26 26 26 26 26 26 26 26 26 26 26 26
25 26 26 26 25 25 25 24 24 24 24 24 24 24 24 24 24 24 24 25 25 25 25 25 25 26 26 26 26 25 22 26 27 27 27 26 26 26 26 26 26 27 27
25 26 26 25 25 26 25 25 24 24 24 24 24 24 24 24 24 24 25 25 24 25 25 25 26 26 26 26 26 25 22 22 24 27 28 27 27 27 27 27 27 27 27
26 26 26 25 25 25 25 25 25 25 24 24 24 24 24 24 24 24 24 25 25 25 25 25 25 26 26 26 27 26 26 26 22 23 27 27 27 27 28 27 28 28 27
26 26 26 25 25 25 24 25 25 25 24 24 24 24 24 24 24 24 24 25 25 25 25 25 25 26 26 26 25 26 26 26 26 24 22 27 28 28 28 28 28 28 28
26 25 26 25 25 25 25 25 24 25 25 25 25 24 24 24 25 25 24 25 25 25 25 25 25 25 26 26 26 26 26 26 25 25 22 25 25 29 28 28 28 29 28

GFSSE_925_temp_087.txt.gz
Temp
21 21 21 21 21 21 21 21 21 21 21 21 21 21 21 21 21 21 21 21 21 21 21 21 21 20 21 21 21 20 20 20 20 20 20 20 20 20 20 20 20 20 20
21 21 21 21 21 21 20 20 21 21 20 20 21 21 21 21 21 21 21 21 21 21 21 21 21 21 21 20 20 20 20 20 20 21 21 20 20 20 20 20 20 20 20
21 21 21 21 21 21 21 21 20 21 20 20 21 21 21 21 21 21 21 21 21 21 21 21 21 21 21 21 21 20 20 20 20 20 21 20 20 20 20 20 20 20 20
22 21 21 22 21 21 21 21 21 21 21 21 20 20 21 21 21 21 21 21 21 21 21 21 21 21 21 21 21 20 20 20 20 20 20 20 20 20 20 20 20 20 20
22 22 22 21 21 21 21 21 21 21 20 21 20 20 21 21 21 21 21 21 21 21 21 21 21 21 21 21 21 21 20 20 20 20 20 20 20 20 20 20 20 20 20
21 22 21 21 21 21 21 20 21 21 20 20 20 21 20 21 21 21 21 21 21 21 21 21 21 21 21 21 21 21 20 20 21 21 20 20 20 20 19 20 20 19 19
21 21 21 21 21 21 21 21 20 20 20 21 21 21 21 21 21 21 21 21 21 21 21 21 21 21 22 22 21 20 21 21 21 21 20 20 20 20 19 19 19 19 19
21 21 21 21 21 21 21 21 20 21 20 20 20 21 21 21 21 21 21 21 21 21 21 21 22 22 22 22 21 22 21 21 21 21 20 20 20 20 20 19 19 19 19
21 21 21 21 21 21 21 20 20 20 20 20 21 20 21 21 21 21 21 22 21 21 22 22 22 22 22 22 21 20 20 21 21 21 20 20 20 20 19 19 19 19 19
21 21 21 21 21 21 21 20 20 20 20 20 20 20 21 21 21 21 22 21 21 21 21 22 22 22 22 22 22 22 22 21 21 21 20 20 21 20 20 19 19 19 19
21 21 21 21 21 21 20 21 21 21 20 20 21 21 21 21 22 21 21 21 21 21 22 22 22 22 22 22 22 21 22 22 21 21 21 20 21 20 20 20 20 20 19
21 21 21 21 21 21 21 22 21 21 21 21 21 21 21 21 21 21 21 21 21 21 22 22 23 23 22 22 22 22 21 22 21 21 21 21 21 20 20 20 21 20 20
22 21 21 21 21 22 22 22 22 22 22 22 21 21 21 22 22 22 22 23 23 22 23 23 23 23 23 23 22 22 22 22 22 21 21 21 21 20 20 20 20 20 20
22 22 22 21 22 22 22 22 22 23 22 22 22 22 22 22 23 23 23 24 23 23 23 23 23 24 23 23 23 24 23 23 23 22 22 21 21 21 21 21 20 20 20
23 22 23 22 23 23 23 23 22 23 23 23 23 23 23 23 23 23 23 24 24 24 24 24 24 24 25 25 25 24 24 24 24 23 23 22 21 21 21 21 21 20 20
23 23 23 23 23 23 23 23 23 23 23 23 24 24 24 23 24 24 24 23 24 24 24 24 25 25 25 26 26 25 24 24 24 24 23 23 22 22 21 21 21 21 21
24 24 23 24 24 23 24 23 23 23 23 23 24 24 24 23 23 24 24 24 24 24 25 24 24 24 25 25 25 24 24 24 24 24 24 23 23 23 23 22 22 22 22
24 24 24 23 24 24 24 24 23 24 23 24 24 24 24 24 24 24 24 24 24 24 24 25 25 25 25 24 24 24 24 24 24 24 24 24 23 24 23 23 23 23 23
25 24 24 23 24 24 25 24 24 24 24 24 24 24 24 24 24 24 24 24 25 24 25 25 25 25 25 25 25 25 25 25 25 24 25 24 24 24 24 24 24 24 24
25 24 24 24 24 24 25 24 24 24 24 24 24 24 24 24 24 24 24 24 24 25 25 24 25 25 25 26 26 26 26 26 25 25 25 25 25 25 25 25 25 25 25
24 24 24 24 24 24 24 24 24 24 24 24 24 24 24 24 24 24 24 24 25 25 25 25 25 25 25 25 26 26 26 26 26 26 26 26 26 26 25 25 25 26 25
24 24 24 24 24 24 25 25 24 24 24 24 24 24 24 24 24 24 24 25 25 25 25 25 25 25 25 25 25 24 20 25 26 26 26 26 26 26 26 26 26 26 26
24 24 24 25 25 24 24 24 24 23 24 24 24 24 24 24 24 24 24 25 25 25 25 25 25 25 26 26 25 25 21 21 22 27 27 27 26 26 27 27 27 27 27
24 24 24 25 25 25 24 24 25 25 24 24 24 24 24 24 23 24 24 24 24 24 25 25 25 25 25 25 25 25 25 24 21 23 27 27 27 27 28 28 28 28 27
24 24 25 25 25 25 25 25 25 24 24 24 24 24 24 24 23 24 24 24 24 24 25 25 25 25 25 25 25 25 25 25 24 23 22 26 27 28 28 28 28 28 28
23 23 25 25 25 25 25 25 25 25 24 24 24 24 24 24 23 24 24 25 25 25 25 25 25 25 25 25 25 25 25 25 24 24 21 23 24 28 28 28 28 28 29

GFSSE_925_temp_093.txt.gz
Temp
21 21 21 21 21 21 21 21 21 21 21 22 22 21 21 21 21 21 21 20 21 21 21 21 21 21 21 21 21 20 20 20 20 20 20 20 20 20 20 20 22 21 20
21 21 21 21 21 21 21 21 21 21 21 21 21 21 21 21 21 21 21 21 21 21 21 21 21 21 20 20 20 20 20 20 20 20 20 20 20 20 20 20 21 20 20
22 21 21 21 21 21 21 21 20 21 21 21 21 21 21 21 21 21 21 21 21 21 21 21 21 20 20 20 20 20 20 20 20 20 21 22 21 20 20 20 20 20 20
22 22 22 21 21 21 21 21 21 20 21 21 21 21 21 21 21 21 21 21 21 21 21 21 21 21 20 20 20 20 20 21 21 20 22 22 22 20 20 20 20 20 20
21 22 21 21 21 21 21 21 21 21 20 21 21 21 20 21 21 21 21 21 21 21 21 21 21 21 20 20 20 20 20 20 20 21 21 21 22 20 20 20 20 20 20
21 22 21 21 21 21 21 20 20 20 20 20 21 21 21 21 21 21 21 21 21 21 22 22 22 21 20 20 20 20 20 20 20 21 21 20 21 20 20 20 20 20 20
22 22 22 21 21 21 21 21 21 21 21 21 21 21 21 21 21 21 21 21 21 21 21 21 22 21 20 20 20 20 20 20 20 20 21 21 20 20 20 20 20 19 20
22 22 22 21 21 20 21 21 20 20 21 20 21 21 20 21 21 21 21 21 21 21 21 21 21 21 20 20 20 20 21 20 20 20 20 21 20 20 20 19 19 19 19
22 22 21 21 21 21 21 21 20 20 20 20 20 21 21 21 21 21 21 21 21 21 21 22 22 21 21 21 20 20 21 20 20 20 21 21 20 20 19 19 19 19 19
21 22 21 21 20 21 21 20 20 21 20 20 20 21 21 21 21 21 21 21 21 21 22 21 22 22 21 21 21 21 21 21 21 21 21 20 20 20 19 19 19 19 19
21 21 21 21 20 20 21 21 20 20 20 20 21 21 21 21 21 22 21 21 21 22 22 22 22 22 22 21 21 21 21 21 21 21 21 20 20 20 19 19 19 19 19
21 21 21 21 21 21 21 20 20 20 20 20 21 21 21 21 21 22 21 21 22 22 22 22 23 22 22 22 21 21 22 21 21 21 21 20 19 19 19 20 20 20 20
21 21 21 20 20 21 20 21 20 21 20 20 21 21 21 21 21 21 21 21 22 23 22 22 22 22 22 22 21 22 21 21 21 21 21 20 20 20 20 20 20 20 20
21 21 21 20 20 20 20 21 20 21 21 21 21 22 21 21 21 21 21 22 23 23 23 23 23 23 23 23 22 22 21 22 22 21 21 21 20 20 20 20 20 20 20
22 21 21 21 21 21 21 21 21 21 21 21 22 23 22 22 22 23 23 22 23 24 24 24 24 23 24 24 23 22 22 22 22 22 21 21 21 21 20 20 20 20 21
22 22 21 21 22 22 22 22 21 21 22 22 22 23 23 23 23 23 23 23 23 24 24 24 24 24 24 24 24 23 22 22 22 22 22 22 22 22 22 22 21 22 22
23 22 22 21 21 22 22 22 22 22 22 23 23 23 23 23 23 23 23 23 24 24 24 24 24 24 24 24 24 24 23 23 23 23 22 22 22 23 23 23 23 23 23
23 22 22 22 21 22 23 23 22 23 22 23 23 23 23 23 23 23 23 23 24 24 24 24 24 24 24 24 24 24 24 24 23 23 23 23 23 23 23 23 24 24 24
23 22 22 22 21 21 23 22 23 23 23 23 23 23 23 23 24 24 23 24 24 24 24 24 24 24 24 24 25 24 24 24 24 24 23 24 24 24 23 24 24 24 24
23 22 22 22 22 22 22 22 22 22 23 23 23 23 23 24 24 24 24 24 24 23 24 24 25 25 24 24 26 26 25 24 25 24 24 24 25 25 24 25 25 24 25
23 22 22 22 23 23 22 21 22 22 22 23 23 23 23 23 24 24 24 24 24 23 24 24 24 24 25 25 25 27 26 25 25 25 25 25 25 25 24 25 25 25 25
24 23 22 22 23 23 22 22 22 22 22 22 23 23 23 24 24 24 24 24 24 24 24 25 25 25 25 25 25 25 28 28 27 26 26 26 26 25 26 26 27 27 27
24 23 22 23 24 23 22 22 23 23 22 22 23 23 23 23 23 24 24 24 24 24 24 24 25 25 26 24 24 25 28 28 27 27 26 26 27 26 26 27 27 27 27
24 23 23 24 24 23 23 22 23 23 24 23 23 22 23 23 23 23 23 24 24 24 24 24 24 24 25 25 24 24 24 24 28 29 27 27 27 27 27 27 27 27 28
24 24 23 23 23 23 23 23 23 24 23 23 23 23 23 23 23 23 23 24 24 24 24 25 25 25 24 24 25 24 24 24 23 26 29 29 28 27 27 28 28 27 28
24 23 23 22 23 23 23 23 23 23 24 23 23 23 22 23 22 23 23 24 24 24 24 24 25 25 24 24 24 24 25 26 26 26 27 27 27 28 27 27 27 28 28

GFSSE_925_temp_096.txt.gz
Temp
24 23 21 21 21 22 22 21 21 21 22 21 21 21 21 21 21 21 21 21 21 21 21 21 21 21 21 21 20 20 20 21 20 20 20 20 20 21 21 21 22 22 20
24 23 21 21 20 21 22 22 21 22 21 21 21 21 21 21 21 21 21 21 21 21 21 21 20 21 20 21 20 20 20 20 20 21 22 21 20 20 21 22 21 21 20
25 24 22 21 21 21 21 21 21 21 21 21 21 21 21 21 21 21 21 21 21 21 21 21 21 20 20 20 20 20 20 20 22 23 23 23 22 20 20 20 20 20 20
25 25 24 22 21 21 21 21 20 21 21 21 21 21 21 21 21 21 21 21 21 21 21 21 21 21 21 20 20 20 20 20 21 23 25 25 22 21 20 20 20 20 20
25 25 22 21 21 20 21 21 21 20 21 21 21 21 21 21 21 21 21 21 21 21 21 21 21 21 20 20 20 20 20 21 22 24 24 24 24 20 20 20 21 20 20
25 26 22 21 21 21 21 20 20 20 20 21 21 21 21 21 21 21 21 21 21 21 21 21 21 21 21 20 20 20 20 21 23 24 24 22 22 20 20 20 20 20 20
26 25 23 21 21 21 21 20 20 20 21 21 21 21 21 21 21 21 21 21 21 21 21 21 21 21 21 20 20 20 21 21 23 24 24 23 21 20 20 20 20 20 20
27 26 23 21 21 20 20 20 20 20 20 21 21 21 22 22 21 21 21 21 21 21 21 21 21 20 20 20 20 20 21 22 23 23 23 21 20 20 20 20 19 19 19
26 26 25 24 21 20 21 20 20 20 20 20 21 21 21 21 21 21 21 21 21 21 21 22 21 21 21 21 20 21 21 22 24 24 23 23 20 20 20 19 19 19 19
26 25 25 24 24 24 22 20 20 20 21 21 21 21 21 21 22 21 22 21 21 21 21 22 22 22 21 21 21 21 22 23 24 24 24 21 20 19 19 19 19 19 19
26 26 26 25 23 22 22 21 21 20 21 22 22 22 23 24 23 22 22 21 21 22 22 22 22 22 22 22 21 22 23 24 25 25 23 20 20 19 19 19 19 19 19
26 26 25 25 25 24 24 23 23 23 24 23 23 23 24 23 23 24 22 22 23 23 23 23 22 23 23 24 24 24 25 24 25 25 22 20 20 20 20 20 20 20 20
26 26 25 24 23 24 23 24 24 24 23 23 23 24 24 24 24 24 23 24 24 24 25 24 24 25 23 25 25 25 24 25 25 25 22 21 21 20 19 19 20 20 20
26 25 25 24 22 24 24 25 24 24 24 24 23 23 23 24 24 25 25 24 25 25 24 25 25 24 24 24 25 25 25 25 25 25 22 22 21 21 20 20 20 20 20
26 25 25 23 23 23 24 24 24 24 25 24 24 23 24 24 24 24 24 25 25 25 25 25 25 25 25 25 26 25 25 25 25 26 25 23 22 22 22 21 21 21 21
26 25 24 23 23 23 23 23 24 25 24 25 25 23 23 24 24 24 24 25 25 26 25 25 25 26 27 27 26 26 26 26 25 26 26 24 23 23 23 23 23 23 23
26 25 24 24 23 23 23 23 25 25 25 25 24 23 23 24 23 24 25 25 25 24 25 25 26 26 27 27 26 26 26 26 26 25 26 26 24 24 24 24 24 24 24
26 25 24 25 24 24 24 24 25 25 25 25 25 24 23 23 23 24 25 25 25 25 26 26 27 27 27 28 27 27 27 27 26 26 26 26 26 26 25 24 24 24 24
26 25 25 25 24 24 23 24 24 24 25 25 25 25 23 23 23 25 25 25 24 25 26 27 27 27 27 28 28 28 28 27 27 27 26 26 26 26 26 26 25 25 25
26 25 25 25 24 23 23 23 25 25 25 25 25 25 23 24 23 25 25 24 25 26 26 26 26 27 27 27 29 29 28 28 28 28 28 28 27 26 27 26 26 27 26
26 25 25 24 23 23 23 25 25 26 25 25 25 23 23 24 23 24 25 24 25 26 25 25 27 26 28 27 29 29 29 29 29 29 28 29 28 28 28 27 27 27 27
26 26 25 24 23 23 24 25 25 26 25 25 25 24 24 24 23 24 24 25 25 26 25 25 25 28 28 27 29 30 31 30 30 30 29 29 28 29 29 28 27 27 27
27 26 25 24 24 23 24 24 23 24 24 24 24 24 24 24 24 24 24 25 24 25 26 25 26 26 29 27 26 29 31 31 31 30 29 29 28 29 29 29 28 28 27
28 26 25 24 24 23 23 24 23 23 24 24 26 26 25 24 24 24 24 24 24 26 25 25 26 26 26 28 28 27 27 27 31 32 30 30 29 30 29 30 30 29 28
28 27 26 25 24 24 23 24 24 24 24 25 26 24 25 24 24 24 23 24 24 25 24 25 25 25 27 28 28 28 27 28 28 31 32 31 30 30 30 30 30 30 29
29 28 27 25 24 23 23 23 23 24 24 23 24 25 26 26 24 24 24 24 24 24 24 25 24 25 26 26 27 28 29 30 30 30 31 31 31 30 30 30 30 30 29

GFSSE_925_temp_099.txt.gz
Temp
27 23 22 21 21 21 21 21 22 22 22 22 21 21 21 21 21 21 21 21 21 21 21 21 21 21 20 20 20 21 20 20 21 21 21 20 21 21 21 22 23 22 20
27 24 21 21 21 21 20 21 21 21 21 21 22 21 21 21 21 21 21 21 21 21 21 21 21 20 20 20 20 21 22 22 21 22 23 22 21 21 21 21 22 21 20
27 24 22 21 21 21 20 21 21 21 21 21 21 21 21 21 21 21 21 21 21 21 21 21 21 21 21 21 20 21 22 22 22 22 24 24 21 20 20 20 20 20 20
27 26 24 21 21 21 21 21 21 21 21 21 21 21 21 21 21 21 21 21 21 21 21 21 21 21 21 20 20 21 22 24 24 24 24 24 22 20 21 21 20 21 20
26 27 22 21 21 21 21 21 21 21 21 21 21 21 21 21 21 21 21 21 22 21 21 21 20 21 21 20 20 22 22 23 24 25 24 23 21 20 20 20 21 21 21
26 25 22 21 21 20 21 21 21 21 21 21 21 21 21 21 21 21 21 21 21 21 21 21 21 21 21 20 20 22 22 23 25 25 24 22 22 21 20 20 20 20 20
27 26 23 21 21 21 20 20 21 21 21 21 21 21 21 21 21 21 21 21 21 21 21 21 21 21 20 20 20 22 23 24 25 24 24 23 21 20 20 20 20 20 20
26 26 23 21 21 20 20 20 21 21 21 21 21 21 21 22 21 21 21 21 21 21 21 21 21 21 20 20 21 22 23 24 25 25 23 22 20 20 20 20 20 20 20
27 26 26 24 22 21 20 21 21 21 21 21 21 21 21 21 21 21 21 21 21 21 21 21 21 21 21 22 23 23 24 25 24 24 24 22 20 20 20 19 19 19 19
28 28 27 24 23 24 23 21 20 21 21 21 21 21 22 21 22 22 22 21 21 21 21 21 22 22 23 23 23 24 24 25 26 25 23 21 20 19 19 19 19 19 19
27 29 27 26 25 25 24 22 21 22 22 23 22 22 23 25 24 23 23 21 22 22 22 23 23 23 24 24 25 25 25 27 27 25 23 20 20 20 19 19 20 20 19
30 30 28 27 25 25 25 23 24 23 24 25 24 23 24 24 25 25 23 23 23 24 24 24 24 24 24 24 25 25 26 26 27 25 22 20 20 20 20 20 20 20 20
30 28 27 25 26 27 25 26 25 25 26 24 23 24 25 25 25 25 24 24 24 24 24 25 24 25 26 27 28 27 27 27 27 25 22 22 21 20 21 20 21 21 21
29 28 27 24 26 26 26 28 26 27 26 25 25 25 25 26 26 26 26 26 26 26 26 27 26 26 26 27 28 28 28 28 28 26 22 23 22 22 21 21 22 22 22
28 28 27 24 24 26 27 27 27 27 27 25 26 26 27 26 26 26 27 27 27 27 27 27 27 27 27 27 28 28 27 27 28 27 25 24 23 23 23 23 22 22 22
28 28 26 26 24 24 26 26 26 27 27 27 26 26 26 26 25 26 26 27 27 27 27 27 27 28 28 28 27 27 28 27 27 28 26 25 24 24 24 24 23 23 23
28 27 26 26 25 24 25 25 27 27 27 26 26 25 25 25 25 26 26 27 27 26 26 27 27 28 29 28 27 28 28 28 27 27 28 26 25 25 25 24 24 24 24
28 27 27 27 26 25 25 26 26 27 27 26 27 25 25 24 25 26 27 27 27 27 28 28 29 29 29 29 29 29 28 28 27 27 28 28 28 26 26 25 25 25 25
27 27 27 27 27 26 25 25 26 26 27 27 26 26 25 25 25 25 27 26 25 28 28 29 29 29 29 30 30 29 29 29 28 29 27 28 27 28 28 26 26 26 26
27 27 27 27 26 25 26 26 25 25 26 26 26 25 25 25 25 25 27 26 26 28 28 27 27 28 29 29 31 30 30 30 29 29 28 29 28 28 29 27 27 27 27
28 27 27 26 25 24 24 27 26 26 26 26 26 25 25 25 25 25 26 26 27 27 26 27 27 27 29 29 29 31 30 30 30 30 30 31 29 30 29 28 29 29 27
28 28 27 26 24 24 25 26 26 26 27 27 26 26 25 25 25 26 26 26 26 27 26 26 27 28 30 29 30 31 32 31 32 31 31 31 30 31 30 29 29 28 29
29 28 27 27 24 25 25 25 25 26 25 26 25 26 25 25 25 25 25 24 26 26 27 26 27 27 29 29 28 29 31 31 32 31 30 31 30 31 31 30 30 29 29
29 28 27 26 25 25 25 26 24 24 24 25 25 25 25 25 26 25 25 25 25 26 26 26 28 27 28 30 30 29 28 28 30 31 32 31 30 31 30 31 31 30 30
30 29 28 26 26 26 25 25 25 26 26 26 25 26 25 25 26 26 25 25 25 26 26 26 26 26 28 28 30 30 29 31 30 31 31 32 32 32 31 31 31 31 30
31 29 28 26 26 25 25 25 25 25 26 25 24 25 27 26 26 25 25 25 25 26 25 26 26 26 25 27 28 29 30 27 29 32 32 31 32 32 32 32 31 31 31

GFSSE_925_temp_102.txt.gz
Temp
23 21 21 21 21 20 21 21 21 22 22 22 22 21 21 21 21 21 21 21 21 21 21 21 21 21 21 21 21 21 21 22 22 21 21 21 21 21 21 22 22 20 20
24 22 21 21 20 21 21 21 21 21 21 22 21 21 21 21 21 21 21 21 21 21 20 20 20 21 20 21 21 21 22 22 21 22 22 21 21 21 21 21 21 20 20
24 22 21 21 21 20 21 21 21 21 21 21 21 21 21 21 21 21 21 21 21 20 21 21 21 21 21 22 22 22 22 22 21 23 23 21 21 21 20 20 20 20 20
26 24 22 21 21 21 21 21 21 21 21 21 21 21 21 21 21 21 21 21 21 21 21 21 21 21 21 22 23 23 23 22 21 22 23 22 21 20 20 20 20 20 20
25 23 21 21 21 21 21 20 20 21 21 21 21 21 21 21 21 21 21 21 21 21 21 21 21 21 21 22 23 23 24 23 23 22 22 21 21 20 20 21 20 20 20
25 22 21 21 21 21 21 21 21 21 21 21 21 21 21 21 21 21 21 21 21 21 21 21 21 21 21 22 23 24 24 24 24 23 22 21 20 20 20 20 20 20 20
25 23 21 21 21 21 21 21 21 21 21 21 21 21 21 21 21 21 21 21 21 21 21 21 21 20 22 23 23 24 23 24 24 23 22 20 20 20 20 20 20 20 20
26 24 22 21 21 21 21 21 21 21 21 21 21 21 21 21 21 21 21 21 21 21 21 21 21 21 23 24 24 24 24 24 24 23 21 20 20 20 20 20 20 19 19
27 25 23 22 21 21 21 21 21 21 21 21 21 22 22 21 21 21 21 21 21 21 21 21 22 23 24 24 24 24 24 24 24 23 22 20 20 20 19 19 19 19 19
27 26 24 23 22 22 21 21 21 21 21 21 22 22 22 21 23 22 22 21 21 21 21 22 23 24 25 25 25 25 25 24 24 23 21 21 20 19 19 19 20 20 20
26 25 24 25 24 23 22 21 21 21 22 22 22 23 23 23 23 22 23 22 22 23 24 24 24 23 24 25 26 26 26 25 25 23 22 21 20 20 20 20 20 20 20
27 26 26 26 25 25 24 23 22 23 23 23 23 23 23 24 24 24 24 23 23 23 24 24 24 23 22 24 25 27 27 26 25 23 22 21 20 20 20 20 21 20 21
28 26 26 26 25 25 24 24 24 24 23 23 24 24 25 25 25 24 25 23 23 25 23 24 25 24 24 26 25 27 27 27 25 24 23 22 21 21 21 21 21 21 21
28 26 26 26 27 26 25 25 25 25 24 24 24 25 25 25 26 25 24 22 23 23 24 24 26 26 27 28 28 28 28 28 26 25 24 23 23 22 22 22 22 22 22
29 26 26 26 26 26 27 27 27 26 24 25 25 26 26 26 26 24 24 24 23 26 26 26 26 26 27 28 28 27 27 28 27 26 25 25 24 24 23 23 23 23 23
29 25 25 25 25 26 26 27 27 27 26 26 26 26 25 26 25 26 23 25 26 26 27 27 25 27 27 27 27 28 27 27 27 27 26 26 25 25 24 24 24 24 24
29 26 26 25 25 25 26 26 27 27 26 26 26 25 25 25 24 27 25 27 27 28 27 27 28 28 28 28 27 28 28 27 27 27 27 27 26 26 25 25 25 25 24
28 27 26 26 25 25 26 25 26 26 27 26 26 25 25 25 24 24 25 26 27 27 27 27 28 29 29 28 28 28 28 27 27 28 27 27 27 26 26 26 26 26 25
28 27 27 27 26 25 25 26 26 26 26 26 26 25 25 25 26 26 26 27 27 26 27 27 28 28 29 29 29 29 29 28 28 28 27 28 27 27 27 27 26 26 26
27 27 27 27 26 26 25 25 26 26 26 26 26 25 25 25 25 25 26 26 26 26 27 28 28 28 28 28 29 30 30 29 29 29 28 28 28 28 28 27 27 27 27
28 27 27 26 26 26 25 25 26 26 26 25 25 25 25 25 25 25 26 27 23 26 27 28 27 27 29 29 29 30 30 30 29 30 29 29 29 28 29 28 28 27 27
28 27 27 25 25 25 25 25 25 25 25 25 25 25 25 25 25 25 26 25 27 26 27 27 27 27 29 29 28 28 27 29 30 31 31 30 30 30 29 29 29 28 28
28 27 26 25 24 25 24 25 24 25 24 25 25 26 25 26 25 25 25 25 25 25 26 26 27 27 28 29 29 28 26 26 30 31 30 30 31 31 30 30 29 29 29
29 28 26 25 24 24 25 25 25 24 24 25 24 23 25 26 26 26 25 25 24 23 25 26 27 27 27 28 30 29 29 29 27 28 31 30 30 30 31 30 30 30 30
29 28 27 26 25 26 25 25 25 25 25 24 24 23 24 25 26 26 26 25 25 24 24 27 26 27 26 26 27 30 30 29 30 28 27 30 30 31 31 31 31 30 30
29 28 27 26 25 25 25 25 24 25 25 24 23 24 23 24 25 26 25 25 25 24 25 25 26 26 26 26 27 26 25 23 23 23 24 28 30 32 32 32 31 30 29

GFSSE_925_temp_105.txt.gz
Temp
21 21 21 20 21 21 21 21 22 21 21 21 21 21 21 21 21 21 21 21 21 21 21 21 21 21 21 21 21 21 20 21 22 21 21 21 21 21 21 21 20 20 20
22 21 21 21 20 20 21 21 21 21 21 21 21 21 21 21 21 21 21 20 21 20 21 21 20 21 21 21 22 22 21 21 21 21 21 21 20 21 20 20 20 20 20
22 21 21 21 21 21 21 21 21 21 21 21 21 21 21 21 21 20 21 21 21 21 21 21 21 21 21 21 22 21 21 21 21 21 21 21 21 20 20 20 20 20 20
22 21 21 21 21 21 21 21 21 21 21 21 21 21 21 21 21 21 21 21 21 21 21 21 21 22 22 22 22 21 22 22 22 22 21 21 21 20 20 20 20 20 20
22 22 21 21 21 21 21 21 21 21 21 21 21 21 21 21 21 21 21 20 21 21 21 21 21 22 23 23 22 21 22 22 22 21 21 21 20 20 20 20 20 20 20
22 22 21 21 21 21 20 21 21 21 21 21 21 21 21 21 21 21 21 21 21 21 21 21 21 23 23 23 23 23 23 22 22 22 21 20 20 20 20 20 20 20 20
21 21 21 21 21 21 21 21 21 21 21 21 21 21 21 21 21 21 21 21 21 21 21 21 22 23 23 23 23 23 23 22 22 22 21 20 20 20 20 20 20 20 20
21 22 21 21 21 21 21 21 21 21 21 21 21 21 21 21 21 21 21 21 21 21 21 22 23 24 24 24 23 23 23 23 23 22 21 20 20 20 20 20 20 19 19
23 22 22 21 21 21 21 21 21 21 21 21 21 21 21 21 21 21 21 21 21 21 21 23 24 24 24 24 24 24 23 23 23 22 21 20 20 19 19 19 19 19 19
23 22 22 22 22 21 21 21 21 21 21 21 21 21 22 22 22 22 22 21 22 22 22 23 24 24 24 24 24 24 23 22 22 23 22 21 20 19 19 19 19 20 20
23 23 22 22 22 22 22 21 21 21 22 22 22 23 23 23 23 23 23 23 22 22 23 24 24 25 25 25 25 24 24 23 23 24 23 21 21 20 20 20 21 20 20
24 24 23 23 23 23 22 23 23 23 23 23 23 23 23 23 24 23 23 22 22 22 22 23 25 25 25 26 26 26 25 24 24 24 23 22 21 21 21 21 21 21 21
25 24 24 24 24 24 24 23 23 23 23 23 24 24 23 24 23 23 22 22 23 23 23 23 23 25 25 26 26 26 24 25 25 25 23 22 22 22 22 22 22 22 21
26 26 25 25 25 25 24 23 23 23 24 24 25 24 24 24 24 23 24 24 26 26 25 24 24 25 25 26 26 25 25 26 25 25 24 24 23 23 23 23 23 22 22
26 26 26 25 25 25 25 24 23 24 25 25 24 24 25 24 24 23 25 26 25 25 24 25 26 25 26 27 27 28 26 26 27 26 26 25 25 24 24 24 24 23 23
26 26 26 25 26 25 25 25 25 26 26 24 25 24 24 24 24 24 24 25 24 24 24 26 27 26 27 27 27 28 27 26 27 27 26 26 25 25 25 25 24 24 24
26 25 26 25 26 26 26 25 26 25 25 25 25 25 25 26 25 25 24 24 25 25 24 27 27 27 27 27 27 27 27 27 26 27 27 26 26 26 25 25 25 25 25
26 26 26 26 26 26 26 26 26 26 26 26 26 25 24 25 25 25 25 26 25 26 25 26 26 27 27 27 27 27 27 27 27 26 26 26 27 26 26 26 25 25 25
26 26 26 26 25 25 26 25 25 26 26 26 25 25 25 25 25 25 25 25 26 26 26 27 27 28 28 28 28 28 28 28 27 27 27 26 27 27 27 27 26 26 26
27 26 26 26 26 25 25 25 26 26 26 25 25 25 25 25 25 25 25 25 26 26 27 27 27 28 28 29 28 29 28 28 28 28 28 27 27 27 27 27 27 27 26
27 27 26 26 26 25 25 25 25 25 25 25 25 25 25 25 25 25 25 26 26 26 26 26 27 27 28 28 29 28 29 29 29 28 28 28 28 28 27 28 28 27 27
27 26 25 26 25 25 25 25 25 25 25 25 25 25 25 25 25 25 25 25 24 25 26 27 27 26 27 29 28 27 24 28 29 29 28 29 29 29 28 28 28 28 28
26 26 25 25 26 25 25 25 25 25 25 25 25 25 25 26 25 25 25 25 25 26 26 26 26 26 26 27 28 28 23 24 26 30 30 29 29 29 29 29 29 28 28
27 27 26 25 25 25 25 24 25 25 25 25 25 25 25 26 26 25 25 25 25 25 26 25 25 26 26 26 27 28 28 27 24 25 29 30 30 30 29 28 28 24 25
26 27 26 26 25 25 25 24 24 25 25 24 24 25 25 25 25 26 25 25 25 25 26 25 25 26 26 26 26 27 27 25 24 21 22 25 28 25 24 25 24 25 25
26 26 26 25 25 25 24 24 24 24 24 24 24 23 24 24 25 25 26 25 24 24 25 25 25 25 26 26 26 26 27 25 23 23 20 21 22 24 23 25 25 24 25

GFSSE_925_temp_108.txt.gz
Temp
22 22 22 22 21 21 22 22 22 21 21 21 21 21 20 20 20 21 21 21 21 21 21 21 21 21 21 21 20 21 21 21 21 21 20 20 20 20 20 20 20 20 20
22 21 21 21 21 21 22 21 21 21 21 21 21 21 21 21 21 21 20 21 21 21 21 21 21 20 21 21 21 20 21 21 21 21 21 21 20 20 20 20 20 20 20
22 21 21 21 20 21 21 21 21 21 21 21 21 21 21 20 20 21 21 21 20 21 21 21 21 21 21 21 21 21 21 21 21 21 21 21 21 20 20 20 20 20 20
22 21 21 21 20 21 21 21 21 21 21 21 21 20 21 20 21 21 21 21 21 21 21 21 21 21 21 21 22 22 21 21 21 21 21 20 20 20 20 20 20 20 20
22 22 21 21 21 21 21 21 21 21 21 21 21 21 21 21 21 21 21 21 21 21 21 21 21 21 21 21 22 22 22 21 21 21 21 21 20 20 20 20 20 20 20
22 21 21 20 20 20 20 20 21 21 21 21 21 21 21 21 21 21 21 21 21 21 21 21 22 22 22 22 22 22 22 22 22 21 21 20 20 20 20 20 20 20 20
21 21 21 21 21 20 21 21 21 21 21 21 21 21 21 21 21 21 21 21 21 21 22 22 22 23 23 23 23 22 22 22 22 21 20 20 20 20 20 20 20 20 20
21 21 21 21 20 20 21 21 21 21 21 21 21 21 21 21 21 21 21 21 21 21 23 23 23 23 23 23 22 22 22 22 22 21 21 21 20 20 20 20 19 19 20
21 21 21 21 21 21 21 21 21 21 21 21 21 21 21 21 21 21 21 21 21 21 22 23 23 23 23 22 22 22 22 22 23 22 22 21 20 19 19 19 19 19 19
21 21 21 21 21 21 21 21 21 21 21 21 21 22 22 21 21 21 21 21 21 22 22 23 24 24 23 23 22 22 22 22 22 23 22 21 19 19 19 19 19 20 20
21 21 21 21 21 21 21 21 21 21 21 21 22 22 23 22 22 22 21 21 22 23 24 24 24 24 24 24 23 23 22 22 22 23 22 21 20 19 19 20 20 21 20
21 21 21 22 22 21 21 22 22 22 22 22 23 23 23 23 23 22 22 22 22 23 23 23 24 24 24 24 24 23 22 22 23 23 23 22 21 20 21 21 21 21 21
22 22 22 22 23 23 23 23 22 22 23 23 23 23 23 23 23 23 23 23 23 23 24 24 24 24 25 25 24 24 24 23 23 23 23 22 22 22 22 22 21 21 21
23 23 23 23 23 23 23 23 23 23 23 23 23 23 23 23 23 23 24 24 24 24 24 24 24 24 25 25 25 25 24 23 24 24 24 23 23 23 23 22 22 22 22
24 23 24 24 23 23 23 23 23 23 23 24 23 23 23 24 24 24 25 25 25 24 24 24 24 24 25 26 26 26 25 24 25 25 25 25 24 24 24 23 23 23 23
24 24 24 25 24 24 24 24 24 24 24 24 24 24 24 24 24 25 25 25 25 24 24 24 25 25 25 26 26 26 26 26 26 26 26 25 25 25 24 24 24 24 23
25 25 25 25 25 25 24 25 24 24 24 25 25 24 24 25 25 25 24 24 23 24 25 26 25 25 26 26 27 26 26 26 26 26 26 26 26 25 25 25 24 24 24
25 25 26 26 25 25 25 25 25 24 25 25 25 24 24 25 25 24 24 24 24 26 24 25 25 26 27 27 26 27 26 27 26 26 26 26 26 26 26 26 25 25 25
26 25 26 26 26 25 25 25 25 25 25 25 25 25 25 25 25 24 25 25 24 25 25 26 26 27 27 27 27 27 27 27 27 26 26 26 26 27 26 26 26 26 26
26 26 26 25 25 25 25 25 25 25 25 25 25 25 24 25 25 25 25 25 25 26 26 26 27 27 27 27 27 27 27 27 27 27 26 27 27 27 27 27 26 26 26
26 25 25 25 25 25 25 25 25 25 25 25 25 25 25 25 25 25 25 26 26 26 25 26 26 27 28 27 27 27 27 27 27 27 26 27 27 27 28 27 27 27 26
25 26 26 25 25 25 25 25 25 25 25 25 25 25 25 25 25 25 25 26 26 26 25 25 26 26 26 26 27 26 22 26 27 27 27 27 28 27 28 27 26 26 26
25 25 25 26 25 25 25 25 25 24 25 25 24 25 25 25 25 25 25 25 25 25 25 25 25 25 26 27 27 25 21 22 24 27 26 26 26 26 26 27 26 27 27
25 26 26 25 25 25 25 25 25 24 25 24 25 25 25 25 24 25 25 25 25 25 25 26 26 25 26 26 26 25 25 25 22 24 24 25 26 25 25 26 26 27 28
26 25 25 25 25 25 25 25 25 24 24 24 24 24 24 25 25 25 25 25 25 25 25 25 26 25 25 26 25 25 25 25 25 22 22 23 25 24 25 25 26 26 28
24 24 25 25 25 25 24 24 24 24 24 24 24 24 24 25 25 24 25 25 25 25 25 25 25 25 25 26 25 26 25 24 24 23 20 20 22 25 25 26 26 27 27

GFSSE_925_temp_111.txt.gz
Temp
22 21 20 21 21 21 21 21 21 21 21 21 20 20 20 21 21 21 21 21 21 21 21 21 21 21 21 21 21 21 21 21 20 20 20 20 21 20 20 20 20 20 20
22 21 21 21 22 21 21 21 21 21 20 21 21 20 21 21 20 21 21 21 21 21 21 21 21 21 21 21 21 21 21 21 21 21 21 21 21 20 20 20 20 20 20
22 21 20 21 21 21 21 21 21 21 21 21 21 21 21 21 21 21 21 21 21 21 21 21 21 21 21 20 20 21 21 21 21 20 21 21 21 20 20 20 20 20 20
22 21 21 21 21 21 21 21 21 21 20 21 21 21 21 21 21 21 21 21 20 21 21 21 21 21 21 21 21 21 21 20 20 21 21 20 20 20 20 20 20 20 20
21 21 21 21 21 21 21 21 21 21 21 21 21 21 21 21 21 21 21 21 21 21 21 21 21 21 21 21 21 21 20 20 21 21 21 21 21 20 20 20 20 20 20
21 21 20 21 21 20 21 21 20 21 21 21 20 21 21 21 21 21 21 21 21 21 21 21 21 21 21 21 21 20 20 21 21 21 21 20 20 20 20 20 20 20 20
21 20 20 21 21 21 21 21 20 21 21 21 21 21 21 21 21 21 21 21 21 21 21 21 22 21 22 22 21 21 21 21 21 21 20 20 20 20 20 20 20 20 20
21 20 21 21 21 21 21 21 21 21 21 21 21 21 21 21 21 21 21 21 21 21 21 22 22 22 22 21 21 21 21 22 21 21 20 20 20 20 20 19 20 20 20
21 20 21 21 21 21 21 21 21 21 21 21 21 21 21 21 21 21 21 21 21 21 22 22 22 22 22 22 22 21 22 22 21 21 21 20 20 19 19 19 19 20 20
21 21 21 20 21 21 21 21 21 21 21 21 21 21 21 21 21 21 21 21 21 22 22 23 23 23 22 22 22 21 22 22 22 22 21 21 20 19 19 19 19 19 19
21 20 20 21 21 21 21 21 21 21 21 21 21 22 22 21 22 22 22 21 21 21 23 23 23 23 23 22 22 21 21 21 21 22 22 21 20 19 19 20 20 20 20
20 20 21 21 21 21 21 21 22 21 21 21 22 22 22 22 22 23 23 23 23 23 23 23 23 23 23 24 23 23 22 22 22 22 22 22 21 21 21 21 21 21 21
21 21 21 21 21 21 22 22 22 22 22 22 22 22 22 23 23 23 23 23 23 24 24 23 24 24 23 23 23 24 23 23 22 22 22 22 22 21 21 22 21 21 21
21 21 21 21 21 22 22 23 22 22 22 22 22 22 22 23 23 23 23 23 23 23 24 24 24 24 24 24 25 24 24 24 23 22 22 23 23 22 22 22 22 22 21
21 21 22 22 22 22 22 22 22 23 23 22 23 23 23 23 23 23 23 23 23 23 23 24 24 25 25 25 26 25 24 24 24 24 24 24 24 24 23 23 22 22 22
22 22 23 23 23 23 23 23 23 23 23 23 23 23 23 23 23 23 23 23 24 24 24 25 25 25 25 25 26 26 26 25 25 25 25 25 24 24 24 24 23 23 23
23 23 23 24 24 24 24 24 24 24 23 24 24 24 24 24 23 24 24 25 25 25 25 26 26 26 25 25 26 26 26 25 26 26 26 25 25 25 25 24 24 24 24
24 24 23 24 24 24 24 24 24 24 24 24 24 24 24 24 24 24 25 25 26 25 26 26 26 27 26 26 26 26 26 25 26 26 26 26 26 26 26 25 25 25 25
24 24 24 25 25 24 24 25 24 24 24 24 24 24 24 24 24 24 25 25 25 25 25 26 25 26 27 27 27 26 26 26 26 26 26 26 26 26 26 26 26 26 25
24 25 25 25 24 24 25 25 24 24 24 24 24 24 24 24 24 24 25 25 25 25 25 25 26 26 26 27 27 26 26 26 26 26 26 26 26 26 26 26 26 25 25
24 25 25 24 25 24 24 25 24 24 24 24 24 24 24 24 24 24 25 25 24 25 25 26 26 26 27 26 26 26 26 27 27 26 27 26 26 25 26 26 26 26 26
24 25 25 25 25 25 25 25 24 24 24 24 24 24 24 24 24 25 25 25 25 25 26 26 26 26 26 26 26 25 21 25 26 26 26 26 26 26 26 26 26 27 27
24 25 25 25 25 25 25 25 24 24 24 24 24 24 24 24 25 25 25 25 25 25 25 25 25 26 25 25 26 25 21 22 22 24 25 26 26 26 27 27 27 27 27
24 24 25 24 25 25 25 25 25 24 24 24 24 24 24 24 24 25 25 25 25 25 25 25 25 26 25 25 25 26 26 24 22 21 23 24 25 26 26 26 27 28 27
24 24 25 24 24 24 25 25 25 24 24 25 24 24 24 24 24 24 24 25 24 25 25 25 25 25 25 26 25 25 25 25 24 22 21 23 24 25 25 26 26 27 26
23 24 25 24 25 24 24 25 25 24 24 24 24 24 24 24 24 24 24 24 24 25 25 25 25 25 25 25 25 25 25 25 24 23 20 20 21 25 25 26 26 26 26

GFSSE_925_temp_114.txt.gz
Temp
21 21 21 21 21 21 21 21 21 21 21 21 21 21 20 20 20 20 21 21 21 21 21 21 21 21 21 21 21 21 21 21 21 21 21 20 20 20 20 20 20 20 20
22 21 20 21 21 21 21 21 21 21 20 20 21 20 20 21 21 21 21 21 21 21 21 21 21 20 21 21 20 20 21 21 21 20 20 20 20 20 20 20 20 20 20
22 21 21 20 21 21 21 21 21 21 21 21 20 20 20 20 20 21 20 20 21 21 20 20 21 21 20 21 20 21 21 21 21 20 21 21 20 20 20 20 20 20 20
22 21 22 21 22 21 21 21 21 20 21 21 20 21 21 21 21 20 20 21 21 20 20 21 21 21 21 21 20 21 21 20 21 21 21 21 20 20 20 20 20 20 20
22 21 21 21 21 21 21 21 21 20 20 20 21 21 21 21 21 21 21 20 21 21 21 21 21 22 22 21 21 20 20 20 21 21 21 20 20 20 20 20 20 20 20
21 21 21 21 21 21 21 21 20 21 21 20 20 21 21 21 21 20 21 21 21 20 21 20 21 22 22 21 20 20 20 21 21 21 21 21 20 20 20 20 20 20 20
21 21 21 21 21 21 20 20 21 21 21 21 21 21 21 21 21 21 21 20 21 20 21 21 21 22 22 21 20 20 21 21 21 21 21 21 20 20 20 20 20 20 20
21 20 21 21 21 21 20 21 21 20 21 21 20 20 20 21 21 21 21 21 21 21 21 21 22 22 22 21 21 21 21 21 21 21 20 20 20 20 20 20 20 20 20
21 21 21 21 21 21 21 21 20 20 20 21 21 21 21 21 22 21 20 21 21 21 21 22 22 22 22 21 21 21 22 21 21 20 20 20 20 20 20 20 20 20 20
21 21 21 21 21 21 21 21 21 21 21 21 21 21 22 21 21 21 21 21 21 21 22 22 22 22 22 21 20 21 21 21 22 21 21 21 20 19 20 20 20 20 20
20 20 20 20 21 21 21 21 21 21 21 21 21 21 21 21 21 21 20 21 21 21 22 23 22 22 22 22 22 21 21 22 22 21 21 21 20 20 20 21 21 20 20
20 20 20 20 21 21 21 22 21 21 21 21 22 22 22 22 21 21 21 22 22 22 23 23 23 23 23 23 23 22 22 22 22 22 21 21 21 20 21 21 21 21 21
20 20 20 20 21 21 21 21 21 21 22 22 22 22 22 22 22 22 23 23 23 23 23 23 23 23 23 23 23 23 23 23 22 22 22 22 21 21 21 21 21 21 21
21 20 20 21 21 21 21 21 22 21 22 22 22 22 22 22 23 23 23 23 23 24 24 24 24 24 24 24 25 24 24 23 23 23 23 22 22 21 22 22 22 22 21
21 20 21 21 21 22 22 22 22 22 23 22 22 23 23 23 23 23 23 24 24 24 24 24 24 25 25 25 25 25 24 24 24 24 23 23 22 23 22 22 22 22 22
21 21 21 22 22 22 22 22 22 22 22 23 23 23 23 23 23 23 23 24 24 24 25 25 25 25 25 26 26 26 25 24 25 25 24 24 24 24 24 23 23 23 23
22 22 22 22 22 23 23 23 23 23 23 23 23 23 23 23 23 23 23 24 24 24 25 25 26 26 26 26 26 26 25 25 25 25 25 25 25 25 24 24 24 23 23
23 22 22 22 23 23 23 23 23 23 23 23 23 23 24 23 23 23 24 24 25 25 26 26 26 26 26 26 26 26 25 25 25 25 25 25 25 25 25 24 24 24 24
23 23 23 23 23 23 23 23 24 23 23 23 23 23 24 24 24 24 24 25 25 25 26 26 26 26 27 26 26 26 26 25 26 26 25 25 25 25 25 25 25 25 25
23 23 23 23 24 23 24 23 24 23 23 23 23 23 24 24 24 24 25 25 25 25 26 26 26 26 26 27 27 26 26 26 26 26 25 26 25 25 25 25 25 26 25
23 23 23 23 24 23 23 23 24 24 24 24 23 23 24 23 24 24 25 25 25 25 25 26 26 25 26 27 26 26 26 26 26 26 26 26 26 26 26 27 27 27 27
23 23 23 24 24 24 24 24 24 24 24 24 24 24 24 24 24 24 24 25 25 25 25 25 26 25 25 26 25 24 22 24 26 26 27 26 26 27 26 27 27 27 27
23 23 23 24 24 25 25 24 24 24 24 23 23 24 24 24 24 24 24 24 24 25 25 26 26 26 25 25 25 25 22 23 22 25 25 26 26 27 27 27 27 26 26
23 23 23 24 24 24 24 25 25 24 24 24 24 24 24 24 24 24 24 24 24 25 25 25 25 26 26 25 25 25 25 24 23 24 25 25 25 26 27 27 26 25 25
23 23 23 24 24 24 24 25 25 24 24 25 24 24 24 24 24 24 24 24 24 25 24 24 25 25 26 25 25 25 25 24 24 22 23 23 26 26 26 27 26 25 26
23 23 24 24 24 24 24 24 25 24 24 24 24 24 24 24 24 24 24 24 24 24 24 24 24 25 25 25 25 25 25 24 23 23 21 21 21 26 27 26 26 25 26

GFSSE_925_temp_117.txt.gz
Temp
21 21 21 21 21 21 21 21 21 21 21 21 21 20 20 20 20 21 20 20 21 21 21 21 21 21 21 21 21 21 21 21 21 21 20 20 20 20 20 20 21 22 20
22 22 21 21 21 21 21 21 21 20 20 20 21 21 20 21 20 20 21 20 21 21 21 21 21 21 21 21 21 21 21 21 21 20 20 20 20 20 20 20 21 20 20
22 22 22 22 22 21 21 21 21 20 20 20 20 20 20 20 21 21 21 21 21 20 21 21 21 21 21 21 21 20 21 20 20 20 21 22 21 20 20 20 20 20 20
22 22 22 22 21 22 21 21 21 21 21 21 21 21 20 20 20 20 21 21 20 21 21 21 21 21 21 21 21 20 20 21 21 21 22 23 22 20 20 20 20 20 20
21 22 21 21 21 21 21 21 20 20 20 21 21 21 21 21 21 21 21 21 21 21 21 21 21 22 21 21 20 20 20 21 21 21 22 22 22 20 20 20 20 20 20
21 22 21 21 20 21 21 21 21 21 21 21 21 21 21 20 20 20 21 21 21 21 21 21 21 21 21 21 20 20 21 21 20 21 22 21 22 20 20 20 20 20 20
21 21 21 20 21 21 21 21 21 21 21 21 21 21 21 20 20 20 21 21 21 21 22 21 21 21 21 20 20 20 21 21 21 21 21 22 21 20 20 20 20 20 20
22 21 21 21 21 20 21 21 21 21 21 21 21 21 21 21 21 20 20 21 21 21 21 22 22 21 21 21 21 21 21 21 21 21 21 21 20 20 20 20 20 20 20
21 21 21 21 21 20 21 21 21 21 21 21 21 21 21 20 21 21 21 21 21 21 21 22 22 21 21 21 21 21 22 21 21 21 21 21 20 20 20 20 20 21 21
21 21 21 21 21 21 21 21 21 21 21 21 21 21 20 21 20 20 21 21 21 22 22 22 22 22 22 21 21 21 22 22 21 21 21 21 20 19 20 20 20 20 20
21 21 21 21 21 21 21 21 21 21 21 21 21 21 21 21 21 21 21 21 21 21 23 23 22 22 22 22 22 21 21 22 22 21 21 21 20 19 20 21 21 21 21
21 21 21 21 21 21 21 21 21 21 21 21 21 21 21 20 21 21 21 22 22 23 23 23 23 23 23 22 22 22 22 21 22 21 21 21 21 20 21 21 21 21 21
21 21 21 20 20 20 21 21 21 21 21 21 22 22 21 21 21 22 22 22 23 23 23 23 23 23 23 23 23 23 22 21 22 22 22 22 21 21 21 21 21 21 21
21 21 20 20 20 21 21 21 21 21 21 21 22 22 22 21 22 23 23 23 23 24 24 24 24 24 24 24 24 23 23 23 23 22 22 22 22 21 21 22 22 22 22
22 21 21 20 20 20 21 21 21 21 22 22 22 22 23 22 23 23 23 23 23 24 24 24 24 24 24 24 24 23 23 23 22 23 22 23 23 23 23 22 22 22 22
22 21 21 20 20 20 21 22 22 22 22 22 22 22 23 23 23 23 23 23 24 25 25 25 25 25 24 25 25 25 23 23 24 24 23 23 24 23 23 23 23 23 23
22 22 21 21 20 21 22 22 22 22 23 23 23 23 23 23 23 23 23 24 24 25 25 25 26 26 25 26 26 25 24 25 25 25 24 23 23 24 24 24 24 24 24
23 21 21 22 21 21 22 22 22 22 23 22 23 23 23 23 23 23 24 24 24 25 25 25 25 25 25 26 25 25 25 25 25 25 25 24 24 24 25 25 25 25 25
23 22 21 21 22 21 22 22 22 23 23 22 23 23 23 24 23 24 24 24 24 24 24 24 26 26 26 26 26 25 26 25 25 25 25 25 25 25 25 25 25 25 25
23 22 22 22 22 22 21 22 23 22 23 23 23 23 24 23 23 24 24 24 25 24 24 25 26 26 25 25 27 26 25 25 25 25 25 25 26 26 26 26 26 25 26
23 22 22 22 22 22 21 22 22 23 22 23 23 23 24 24 24 24 24 25 25 25 25 25 25 24 25 25 26 26 25 25 25 25 25 25 26 26 26 26 26 25 25
23 23 22 22 22 23 22 22 23 23 22 23 23 23 24 24 24 24 24 24 25 25 25 26 26 25 25 24 26 26 28 27 26 25 26 26 26 26 26 26 25 25 26
24 23 22 22 23 23 23 23 23 23 23 23 23 23 24 24 24 24 24 24 25 25 24 25 25 26 26 24 25 26 28 29 27 26 25 25 27 25 25 26 26 25 26
24 23 23 22 22 23 23 23 24 24 24 23 24 23 23 24 24 24 24 24 24 25 25 24 24 25 25 26 24 24 25 25 29 29 26 26 25 26 25 25 25 24 25
24 23 23 22 22 22 23 23 24 24 24 24 23 23 23 24 24 24 24 24 24 24 24 24 25 25 24 25 25 24 24 24 24 27 29 28 26 26 26 25 25 25 25
24 23 23 22 23 23 23 24 24 24 24 23 24 23 23 23 23 24 24 24 24 24 24 24 24 24 24 25 24 24 25 26 26 26 27 26 26 27 25 25 25 25 25

GFSSE_925_temp_120.txt.gz
Temp
24 22 22 21 21 21 21 20 20 21 21 21 21 20 20 20 21 21 21 21 21 21 21 21 21 21 21 21 21 21 21 21 20 21 20 20 20 20 21 22 23 23 20
22 21 22 22 21 22 21 21 21 21 21 21 21 20 21 21 21 21 21 21 21 21 21 21 21 21 21 21 20 21 21 21 21 21 21 21 20 20 20 21 22 21 20
22 22 22 22 21 21 21 21 21 21 21 21 21 20 20 21 21 21 21 21 21 21 21 21 21 21 21 21 21 21 21 21 21 22 23 24 22 20 20 20 20 20 20
23 23 22 22 22 21 21 21 21 21 21 21 21 21 20 21 21 21 21 21 21 21 21 21 21 21 21 21 21 21 20 21 22 22 24 24 23 20 20 20 20 20 20
24 25 22 22 22 21 21 21 21 21 21 21 21 21 21 21 21 21 21 21 22 22 21 21 21 21 21 21 21 20 20 22 23 25 25 25 24 21 20 21 21 20 21
25 26 22 22 22 21 21 20 21 21 21 21 21 21 21 21 21 21 21 21 21 21 21 21 21 21 21 21 20 20 21 22 24 25 24 23 22 21 20 21 20 20 20
26 25 23 21 21 21 21 21 21 21 21 21 21 20 20 21 21 21 21 21 21 21 21 21 21 21 20 20 20 20 21 22 24 24 22 22 22 20 20 20 20 20 20
26 26 23 21 21 21 21 21 21 21 21 21 21 21 20 21 21 21 21 21 21 21 21 21 21 21 20 21 21 21 21 22 25 24 24 23 20 20 20 20 20 20 20
26 25 25 24 22 21 21 21 21 21 22 21 20 21 20 21 21 21 21 21 21 21 21 21 21 21 21 21 22 22 22 23 24 24 25 24 20 20 20 20 20 20 20
25 25 25 25 24 24 23 22 21 21 21 21 21 21 21 21 21 21 22 21 21 21 22 22 22 22 22 22 22 22 23 24 25 24 25 22 20 20 20 20 20 20 21
25 26 26 25 24 22 23 22 22 21 21 21 21 21 23 24 23 23 22 21 21 21 22 22 23 23 23 23 22 22 24 26 26 25 25 21 20 20 20 21 21 21 21
26 26 26 25 24 23 24 22 22 24 24 24 23 23 24 24 23 23 22 22 22 23 23 23 23 23 24 26 25 24 26 25 26 25 23 22 22 21 21 21 21 21 21
26 26 25 24 24 24 24 24 24 24 24 23 22 23 23 24 24 24 23 23 23 23 25 25 25 26 25 26 26 27 26 26 26 25 23 23 22 21 21 21 21 21 21
26 25 25 24 24 24 24 25 25 25 25 24 23 23 23 24 24 24 24 24 24 25 24 25 26 25 25 26 26 26 27 27 26 26 23 23 22 22 21 22 22 22 23
26 25 25 24 23 23 24 25 25 25 25 25 24 23 24 25 24 24 24 25 25 25 25 26 26 26 26 27 26 26 27 26 26 26 25 23 23 22 22 23 23 23 23
26 25 24 24 23 23 24 23 24 25 25 25 25 24 23 25 24 24 24 25 25 25 26 26 26 27 28 27 26 26 27 26 25 25 26 24 24 24 24 24 24 24 24
26 25 24 24 23 23 23 23 24 25 25 25 25 23 23 24 23 23 25 25 25 24 25 25 26 27 28 28 27 27 26 26 26 25 26 27 25 25 25 25 25 25 24
26 25 24 25 24 24 24 23 25 25 25 25 25 24 23 23 23 23 25 25 25 25 26 27 28 28 28 28 28 28 27 27 26 26 26 27 26 27 26 26 25 25 25
26 25 24 25 24 24 23 24 24 24 24 25 25 25 23 23 23 24 25 25 24 26 26 28 28 28 28 29 29 28 28 28 27 28 27 26 27 27 28 27 26 26 26
26 25 24 24 24 24 23 23 25 25 25 25 25 25 23 24 23 24 25 25 25 27 27 27 27 27 28 29 30 29 29 28 28 28 28 28 28 27 28 27 27 28 26
26 25 24 24 23 24 24 25 25 25 25 25 25 24 23 24 23 24 25 25 26 27 26 26 27 27 28 27 29 29 29 28 28 28 28 29 29 29 29 28 27 28 28
26 26 25 24 23 23 24 24 26 26 26 26 25 24 24 24 24 24 24 25 25 27 26 26 26 29 29 28 30 30 31 30 30 30 29 29 29 29 29 29 28 27 26
27 26 25 24 24 23 24 24 24 24 24 24 25 25 24 24 24 24 24 25 25 25 27 26 26 27 29 28 26 29 31 32 31 30 29 29 28 29 29 28 27 27 26
28 26 25 25 24 23 24 24 24 25 26 26 25 24 24 24 24 24 24 24 24 25 25 26 26 26 27 29 28 28 27 28 32 32 30 30 29 29 29 29 29 28 26
28 27 26 25 24 24 24 25 24 25 26 25 26 24 24 23 24 25 24 24 24 25 25 24 25 25 27 28 29 29 28 29 28 30 32 32 30 30 29 29 29 28 27
28 27 26 25 24 24 23 24 24 25 25 25 24 25 25 25 25 24 24 24 24 24 24 25 25 25 25 26 27 27 29 29 30 30 31 31 30 30 29 29 28 28 27

GFSSE_925_temp_123.txt.gz
Temp
23 22 21 21 22 22 21 21 20 21 20 20 21 21 21 20 21 21 21 21 21 21 21 21 21 21 21 21 21 21 21 21 21 21 21 21 20 21 21 22 24 22 21
25 23 21 21 21 22 22 21 21 20 20 20 20 21 21 21 21 21 21 21 21 21 21 21 21 21 21 21 21 21 21 21 21 21 21 21 21 21 21 22 23 21 20
23 23 22 22 22 22 21 21 20 20 20 20 21 21 21 21 21 21 21 21 21 21 21 21 21 21 21 21 21 21 21 22 22 22 24 24 22 21 22 22 20 20 20
23 24 23 21 21 22 21 20 21 21 20 21 21 20 21 21 21 21 21 21 21 21 21 21 21 21 21 21 21 22 22 23 23 24 24 25 23 20 21 20 20 21 21
25 26 22 21 21 21 21 21 21 21 21 21 21 21 21 21 21 21 21 21 21 21 21 21 21 21 21 21 21 23 23 23 23 23 25 25 24 21 21 21 21 20 21
26 25 22 21 21 21 21 21 21 21 21 21 21 21 21 21 21 21 21 21 21 21 21 21 21 21 21 21 21 23 23 24 23 25 25 24 22 21 20 21 22 21 20
28 26 23 21 21 21 21 21 21 21 21 21 21 21 21 21 21 21 21 21 21 21 21 21 21 21 21 20 22 23 24 24 25 25 24 23 21 20 20 20 20 20 20
29 27 24 22 21 21 21 22 22 21 21 21 21 21 21 21 21 21 21 21 21 21 21 21 21 21 21 21 22 23 24 24 26 26 25 23 20 20 20 20 20 20 20
29 27 25 24 22 21 21 21 21 21 21 21 21 21 21 21 21 21 21 21 21 21 21 21 21 22 22 22 23 24 24 25 26 26 26 23 20 20 20 21 21 21 21
28 27 26 26 25 24 22 21 21 21 21 21 21 21 21 21 22 21 22 21 21 21 21 22 22 22 23 23 23 24 25 26 26 26 25 21 21 20 21 21 21 21 21
27 27 27 25 24 24 24 22 21 21 21 22 23 22 23 24 24 23 22 21 21 22 23 23 24 24 23 24 25 25 25 27 28 27 24 22 21 20 21 21 21 21 21
29 26 24 26 26 25 25 23 24 23 24 24 24 24 26 25 24 24 22 23 23 23 24 24 25 25 24 24 25 26 26 27 28 27 23 23 22 21 22 22 21 21 21
29 27 27 27 26 25 25 24 25 26 25 24 24 25 25 25 25 25 23 24 24 24 24 25 25 25 27 28 29 29 27 28 28 27 24 23 22 21 22 22 22 22 21
29 28 28 27 26 26 26 27 27 26 26 26 25 25 25 26 25 26 26 25 26 27 26 27 28 27 27 28 29 29 29 29 29 27 24 24 23 23 22 22 22 22 22
29 28 28 26 24 25 26 27 27 27 27 26 25 26 27 27 25 26 25 27 27 28 28 28 28 28 28 28 28 28 28 28 28 28 25 25 24 24 24 23 23 23 23
29 28 27 26 24 26 26 26 27 27 27 27 26 25 25 26 26 26 26 27 28 28 28 28 28 28 29 28 28 28 28 28 28 28 26 25 25 25 25 24 24 24 24
29 28 27 26 25 25 24 25 27 28 28 28 25 25 25 26 25 26 27 27 27 26 26 27 27 28 30 29 28 28 28 28 27 27 28 27 26 26 26 25 25 25 25
29 27 26 28 26 25 25 25 27 27 27 26 25 26 25 24 25 25 27 28 27 27 28 29 29 30 30 30 29 30 29 29 27 27 28 29 29 28 28 27 26 26 26
28 27 26 27 26 25 25 26 27 27 26 25 26 27 25 25 25 26 27 27 26 29 29 29 30 30 30 30 30 30 30 29 28 29 28 28 29 29 29 28 27 27 27
28 27 27 27 26 25 25 25 26 26 26 27 26 26 25 25 25 25 27 27 26 29 29 27 28 29 30 31 32 31 31 30 30 30 30 29 30 29 29 29 28 28 28
28 27 26 27 25 26 26 27 26 27 27 27 26 25 25 25 25 25 27 26 26 27 26 28 28 28 30 29 31 31 31 30 30 30 30 31 31 30 31 30 29 29 28
28 27 26 26 25 25 26 27 27 27 26 27 27 25 26 26 25 26 26 27 26 28 28 28 27 27 31 30 29 32 32 31 31 31 31 31 31 31 31 31 30 29 28
29 27 26 26 25 24 25 26 26 25 26 27 27 26 26 26 25 25 25 25 26 27 27 27 27 28 24 30 29 30 31 29 30 32 31 31 31 31 31 31 30 29 28
29 28 27 26 25 25 25 26 26 25 27 28 27 26 26 26 26 26 26 25 25 27 27 27 28 27 28 29 30 31 29 29 31 22 27 21 29 30 31 30 31 30 28
30 29 28 26 25 25 25 24 25 25 27 27 27 26 26 25 26 26 26 25 25 26 26 26 26 27 28 28 30 28 30 30 31 31 30 21 24 28 31 31 31 30 29
31 29 28 26 25 24 24 24 25 26 26 26 27 26 27 27 26 26 26 25 25 26 25 26 26 26 26 26 27 28 30 30 30 30 32 32 27 31 27 31 30 30 29

GFSSE_925_temp_126.txt.gz
Temp
22 21 22 22 21 21 21 22 21 21 21 21 21 21 21 21 21 21 21 21 21 21 21 21 21 21 21 21 22 22 22 22 22 21 21 21 21 21 21 22 22 21 21
23 22 22 21 22 22 21 21 21 20 21 21 21 21 21 21 21 21 21 21 21 21 21 21 21 21 21 21 21 22 22 21 21 22 22 21 21 21 21 22 21 20 21
23 21 22 22 22 22 22 21 20 21 21 21 21 21 21 21 21 21 21 21 21 21 21 22 21 21 21 21 21 22 23 23 23 23 23 22 21 21 22 22 20 20 20
24 22 22 22 22 22 22 21 20 21 21 21 21 21 21 21 21 21 21 21 21 21 21 21 21 21 21 21 22 23 22 22 22 22 24 23 22 21 22 22 21 21 21
26 24 21 21 21 22 21 20 20 21 21 21 21 21 21 21 21 21 21 21 21 21 21 21 21 21 21 22 22 22 22 23 23 24 24 23 22 20 21 21 21 20 21
24 23 21 21 22 22 21 21 21 21 21 21 21 21 21 21 22 21 21 21 21 21 21 21 21 21 22 23 22 23 23 23 24 23 24 23 21 20 21 21 21 21 20
21 22 22 21 21 21 21 21 21 21 21 21 21 21 21 21 21 21 21 21 21 21 21 21 21 21 22 23 23 24 24 24 25 24 23 22 21 21 21 21 21 21 21
22 24 22 21 21 21 21 21 21 21 21 21 21 21 21 21 21 21 21 21 21 21 21 21 21 22 23 24 24 24 25 24 25 24 23 21 21 21 20 20 20 20 20
26 25 23 22 21 21 21 21 21 21 21 21 21 21 21 21 21 21 21 21 21 21 21 21 23 23 24 25 24 25 25 25 26 25 23 22 21 21 20 21 20 21 21
27 26 25 23 22 22 21 21 21 21 21 21 21 22 22 21 21 22 22 22 21 21 22 23 23 23 24 25 25 26 26 26 26 25 23 23 21 21 20 20 21 21 21
24 26 27 25 24 23 21 21 21 21 22 22 22 23 23 23 23 22 22 22 22 23 24 25 24 24 25 25 25 26 26 26 27 25 24 22 21 21 21 22 22 21 21
24 22 24 24 24 24 24 22 22 23 23 24 24 24 23 24 24 22 23 23 24 24 25 25 24 24 24 24 26 26 27 28 26 25 24 23 22 22 22 22 22 21 21
26 24 25 26 25 25 24 22 22 23 24 24 25 25 25 25 25 24 24 24 25 25 25 25 25 25 26 26 26 27 28 28 26 25 24 24 23 22 22 22 22 22 22
26 25 25 25 25 25 25 24 24 25 25 25 25 25 25 25 25 25 25 25 25 26 26 26 27 27 27 28 29 29 29 29 27 26 25 24 24 23 23 23 23 23 23
27 28 26 25 25 25 23 25 26 26 26 26 25 25 26 26 25 26 26 26 26 28 27 28 27 28 28 28 29 29 29 29 27 27 25 25 25 24 24 24 24 24 24
28 28 25 25 26 26 25 26 26 26 27 26 26 26 26 26 25 26 26 27 28 27 28 28 28 28 29 28 28 28 28 28 28 28 27 26 25 25 25 25 25 25 25
29 28 26 26 26 25 25 26 26 26 26 25 26 25 26 25 25 26 26 27 27 27 27 28 28 28 29 28 28 28 28 28 27 27 27 27 27 26 26 26 26 26 26
29 27 26 26 25 25 25 26 26 27 25 24 25 25 25 25 25 26 27 27 27 27 28 28 28 29 30 29 28 29 29 28 27 27 28 28 28 28 27 27 27 27 27
28 27 27 26 25 25 26 25 26 26 27 26 25 25 25 25 25 25 25 27 28 27 28 29 29 30 30 30 30 30 29 28 28 28 28 28 29 28 28 28 28 28 27
28 27 27 26 25 25 25 25 26 27 26 25 25 26 25 25 25 25 26 27 26 25 26 29 28 30 30 30 31 30 30 30 30 29 29 29 29 29 29 28 29 28 28
28 27 27 26 25 25 25 25 25 26 25 25 25 25 25 25 25 25 25 27 25 24 22 28 27 27 28 30 30 30 30 30 30 30 30 30 30 30 30 29 29 28 28
28 27 27 26 25 25 26 25 25 26 26 25 25 25 26 26 25 25 26 25 23 24 27 27 28 23 24 28 29 23 27 29 27 25 27 26 27 27 24 29 28 29 28
28 27 26 25 25 26 26 24 25 25 26 25 25 26 26 26 26 26 26 25 25 25 26 26 27 24 25 27 26 29 23 19 20 27 26 26 26 27 24 25 29 26 26
28 27 26 26 25 25 25 26 26 26 26 27 26 26 26 26 26 26 26 26 25 25 23 27 26 26 27 24 25 27 26 24 17 17 24 25 25 26 24 22 24 27 28
29 28 26 26 25 25 24 25 26 26 27 26 26 26 26 26 26 26 26 26 25 25 26 26 26 26 26 26 25 27 29 26 24 20 19 21 24 24 23 25 26 29 28
29 29 27 26 25 25 24 24 25 26 25 27 25 26 26 26 26 26 26 26 25 25 25 26 26 26 26 26 26 27 27 29 29 28 23 20 21 23 23 25 29 29 29

GFSSE_925_temp_129.txt.gz
Temp
20 21 21 20 21 22 22 21 21 21 22 21 22 21 21 21 21 21 21 21 21 21 21 21 21 21 21 21 21 21 21 21 21 21 21 21 21 21 21 21 21 20 21
21 21 21 21 22 22 22 22 21 21 21 21 21 21 21 21 21 21 21 21 21 21 21 21 21 21 21 22 23 22 22 22 22 22 21 21 21 21 21 21 20 21 20
21 21 21 21 21 22 22 22 21 21 21 22 21 21 21 21 21 21 21 21 21 21 21 21 21 21 22 22 23 22 22 22 22 22 23 22 21 20 21 20 20 20 20
22 22 21 22 21 22 22 21 20 21 21 21 21 21 21 21 21 21 21 21 21 21 21 21 21 21 22 22 22 22 22 22 22 22 22 22 21 20 21 21 20 20 20
23 22 22 22 21 21 21 20 20 21 21 21 21 21 21 21 21 21 21 21 21 21 21 21 21 21 22 22 22 22 22 23 22 22 22 22 21 21 21 21 20 20 20
22 22 22 21 21 21 20 21 21 21 21 21 21 21 21 21 22 21 21 21 21 21 21 21 21 22 21 22 23 23 23 23 23 22 22 22 21 20 20 20 20 20 20
22 22 21 21 20 21 21 21 21 21 21 21 21 21 21 21 21 21 21 21 21 21 21 21 22 22 23 23 23 23 23 23 23 23 23 23 21 20 21 21 20 20 20
22 22 21 21 21 21 22 21 21 21 21 21 21 21 21 21 21 21 21 21 21 21 21 22 23 24 24 24 24 24 24 23 24 24 23 22 21 21 20 20 20 20 20
22 21 21 21 21 21 21 21 21 21 21 21 21 21 21 21 21 21 21 21 21 21 21 23 24 25 25 24 25 25 25 23 23 23 23 22 21 21 21 21 21 21 21
22 22 21 21 21 21 21 21 21 21 21 21 21 21 21 21 21 22 22 22 22 22 22 23 24 24 25 25 25 25 25 24 24 24 23 23 22 21 21 21 21 21 21
22 22 22 22 22 21 21 21 21 21 21 21 21 22 23 22 22 22 23 23 23 23 23 24 24 25 25 25 26 26 26 25 24 24 25 23 22 21 21 21 21 21 21
23 23 23 22 22 22 21 21 22 22 23 23 23 23 22 22 23 23 23 24 24 24 24 24 24 25 25 25 25 26 26 25 25 25 25 23 22 21 21 22 22 22 22
25 23 23 23 23 23 23 22 23 23 23 23 23 23 23 23 24 24 24 25 25 25 25 25 25 24 25 25 26 26 27 25 26 26 24 23 23 22 22 22 22 22 22
24 24 23 23 24 23 23 23 23 24 24 24 24 24 24 25 25 25 25 25 25 25 26 25 25 26 27 26 26 25 26 26 26 26 25 24 23 23 23 23 23 23 23
25 23 23 23 23 23 23 23 23 24 25 25 25 25 25 24 25 25 25 25 25 25 25 26 26 27 27 28 27 27 27 27 27 26 25 25 24 24 24 24 24 24 24
24 24 25 25 24 24 24 22 23 24 25 26 25 25 25 25 26 25 25 25 25 26 27 27 27 27 27 28 28 28 28 27 27 27 27 26 26 26 25 25 25 25 25
25 25 25 24 24 24 22 24 25 25 25 25 25 25 25 25 25 25 26 26 26 27 27 28 28 28 28 28 28 28 28 27 27 27 27 27 27 26 26 26 26 26 26
26 25 26 25 25 25 24 24 26 26 25 26 26 25 25 25 25 25 25 26 27 27 27 27 27 28 28 28 28 28 28 28 27 27 27 27 27 27 27 27 27 27 27
26 26 26 26 26 25 26 25 25 25 25 25 25 25 25 25 25 25 26 26 26 27 27 27 26 27 28 28 28 28 28 28 28 28 28 27 26 26 26 26 26 27 27
26 26 26 26 25 25 25 25 25 25 25 25 25 25 25 25 25 25 25 25 26 27 26 26 25 27 26 26 28 29 28 29 28 27 27 25 25 25 23 22 21 23 23
27 26 26 25 25 26 25 25 25 25 25 25 25 25 25 25 25 25 25 24 26 27 27 25 26 25 28 26 27 28 28 27 27 27 27 26 26 27 24 25 23 23 24
27 26 25 25 25 26 25 25 25 25 25 25 25 25 25 25 25 25 25 25 25 26 27 25 26 27 28 26 22 23 22 26 28 29 28 26 26 25 24 24 22 23 23
27 27 26 25 25 26 25 25 25 25 24 24 25 25 25 25 25 25 25 25 24 24 25 24 24 28 27 26 25 24 20 19 19 28 27 27 26 23 21 23 24 24 24
26 27 26 25 25 25 25 25 25 25 25 25 25 25 25 26 26 26 25 25 25 25 25 24 26 26 25 24 26 25 23 23 18 19 28 29 28 27 26 25 26 26 25
26 26 26 25 25 25 25 24 25 25 25 26 25 25 26 26 26 26 26 25 25 25 25 25 25 25 25 25 26 27 23 22 22 20 19 24 26 28 27 28 27 25 25
26 26 25 25 25 25 25 25 25 25 26 25 25 25 25 26 26 26 26 26 25 25 25 25 25 25 25 25 26 26 25 25 23 22 19 21 22 27 27 26 27 25 25